<?xml version="1.0" encoding="UTF-8" standalone="no" ?>
<gpx xmlns="http://www.topografix.com/GPX/1/1" xmlns:xsi="http://www.w3.org/2001/XMLSchema-instance" xsi:schemaLocation="http://www.topografix.com/GPX/1/1 http://www.topografix.com/GPX/1/1/gpx.xsd" version="1.1" creator="VisuGPX - https://www.visugpx.com">
  <metadata>
    <name>Sortie VTT Aydat</name>
    <desc><![CDATA[Sortie VTT Autour d'aydat jusqu'à laschamps par la cassiere]]></desc>
  </metadata>
  <trk>
    <name><![CDATA[Sortie VTT Aydat_1]]></name>
    <cmt><![CDATA[Avec Arnaud, Philou et jean françois.
Rythme tranquille]]></cmt>
    <trkseg>
      <trkpt lat="45.66639" lon="3.00122">
        <ele>828.7939453125</ele>
        <time>2009-06-13T12:52:04Z</time>
      </trkpt>
      <trkpt lat="45.66639" lon="3.00122">
        <ele>828.31323242188</ele>
        <time>2009-06-13T12:52:05Z</time>
      </trkpt>
      <trkpt lat="45.6664" lon="3.00124">
        <ele>829.2744140625</ele>
        <time>2009-06-13T12:52:22Z</time>
      </trkpt>
      <trkpt lat="45.66641" lon="3.00129">
        <ele>829.75512695312</ele>
        <time>2009-06-13T12:52:26Z</time>
      </trkpt>
      <trkpt lat="45.66638" lon="3.00136">
        <ele>829.75512695312</ele>
        <time>2009-06-13T12:52:31Z</time>
      </trkpt>
      <trkpt lat="45.66635" lon="3.00147">
        <ele>830.71655273438</ele>
        <time>2009-06-13T12:52:36Z</time>
      </trkpt>
      <trkpt lat="45.6663" lon="3.00163">
        <ele>831.197265625</ele>
        <time>2009-06-13T12:52:40Z</time>
      </trkpt>
      <trkpt lat="45.66621" lon="3.00178">
        <ele>831.677734375</ele>
        <time>2009-06-13T12:52:45Z</time>
      </trkpt>
      <trkpt lat="45.66619" lon="3.00194">
        <ele>832.15844726562</ele>
        <time>2009-06-13T12:52:50Z</time>
      </trkpt>
      <trkpt lat="45.66624" lon="3.00208">
        <ele>833.11962890625</ele>
        <time>2009-06-13T12:52:56Z</time>
      </trkpt>
      <trkpt lat="45.66628" lon="3.00227">
        <ele>833.60034179688</ele>
        <time>2009-06-13T12:53:01Z</time>
      </trkpt>
      <trkpt lat="45.66629" lon="3.0023">
        <ele>833.60034179688</ele>
        <time>2009-06-13T12:53:02Z</time>
      </trkpt>
      <trkpt lat="45.66631" lon="3.00233">
        <ele>834.56176757812</ele>
        <time>2009-06-13T12:53:07Z</time>
      </trkpt>
      <trkpt lat="45.66636" lon="3.00237">
        <ele>834.56176757812</ele>
        <time>2009-06-13T12:53:30Z</time>
      </trkpt>
      <trkpt lat="45.6664" lon="3.00239">
        <ele>833.60034179688</ele>
        <time>2009-06-13T12:53:33Z</time>
      </trkpt>
      <trkpt lat="45.66641" lon="3.0024">
        <ele>833.60034179688</ele>
        <time>2009-06-13T12:53:34Z</time>
      </trkpt>
      <trkpt lat="45.66646" lon="3.00249">
        <ele>831.197265625</ele>
        <time>2009-06-13T12:53:39Z</time>
      </trkpt>
      <trkpt lat="45.66654" lon="3.00259">
        <ele>829.75512695312</ele>
        <time>2009-06-13T12:53:44Z</time>
      </trkpt>
      <trkpt lat="45.66657" lon="3.00261">
        <ele>829.75512695312</ele>
        <time>2009-06-13T12:53:45Z</time>
      </trkpt>
      <trkpt lat="45.66664" lon="3.00268">
        <ele>828.7939453125</ele>
        <time>2009-06-13T12:53:48Z</time>
      </trkpt>
      <trkpt lat="45.66684" lon="3.00282">
        <ele>824.94848632812</ele>
        <time>2009-06-13T12:53:55Z</time>
      </trkpt>
      <trkpt lat="45.66702" lon="3.00287">
        <ele>823.50659179688</ele>
        <time>2009-06-13T12:54:00Z</time>
      </trkpt>
      <trkpt lat="45.66709" lon="3.00289">
        <ele>823.50659179688</ele>
        <time>2009-06-13T12:54:02Z</time>
      </trkpt>
      <trkpt lat="45.66726" lon="3.00291">
        <ele>823.50659179688</ele>
        <time>2009-06-13T12:54:06Z</time>
      </trkpt>
      <trkpt lat="45.6675" lon="3.00293">
        <ele>823.98706054688</ele>
        <time>2009-06-13T12:54:11Z</time>
      </trkpt>
      <trkpt lat="45.66772" lon="3.00301">
        <ele>823.98706054688</ele>
        <time>2009-06-13T12:54:17Z</time>
      </trkpt>
      <trkpt lat="45.66782" lon="3.0031">
        <ele>824.4677734375</ele>
        <time>2009-06-13T12:54:20Z</time>
      </trkpt>
      <trkpt lat="45.668" lon="3.00332">
        <ele>823.02587890625</ele>
        <time>2009-06-13T12:54:25Z</time>
      </trkpt>
      <trkpt lat="45.66817" lon="3.00353">
        <ele>823.02587890625</ele>
        <time>2009-06-13T12:54:30Z</time>
      </trkpt>
      <trkpt lat="45.6683" lon="3.00373">
        <ele>822.54516601562</ele>
        <time>2009-06-13T12:54:35Z</time>
      </trkpt>
      <trkpt lat="45.66842" lon="3.00385">
        <ele>819.66137695312</ele>
        <time>2009-06-13T12:54:39Z</time>
      </trkpt>
      <trkpt lat="45.66853" lon="3.00384">
        <ele>818.21923828125</ele>
        <time>2009-06-13T12:54:41Z</time>
      </trkpt>
      <trkpt lat="45.66863" lon="3.00394">
        <ele>818.69995117188</ele>
        <time>2009-06-13T12:54:44Z</time>
      </trkpt>
      <trkpt lat="45.66865" lon="3.004">
        <ele>818.21923828125</ele>
        <time>2009-06-13T12:54:45Z</time>
      </trkpt>
      <trkpt lat="45.6687" lon="3.00438">
        <ele>820.14184570312</ele>
        <time>2009-06-13T12:54:51Z</time>
      </trkpt>
      <trkpt lat="45.66877" lon="3.00457">
        <ele>822.064453125</ele>
        <time>2009-06-13T12:54:55Z</time>
      </trkpt>
      <trkpt lat="45.66879" lon="3.00461">
        <ele>822.064453125</ele>
        <time>2009-06-13T12:54:56Z</time>
      </trkpt>
      <trkpt lat="45.66891" lon="3.00456">
        <ele>820.62255859375</ele>
        <time>2009-06-13T12:55:01Z</time>
      </trkpt>
      <trkpt lat="45.66904" lon="3.00434">
        <ele>820.14184570312</ele>
        <time>2009-06-13T12:55:06Z</time>
      </trkpt>
      <trkpt lat="45.66908" lon="3.00426">
        <ele>820.14184570312</ele>
        <time>2009-06-13T12:55:09Z</time>
      </trkpt>
      <trkpt lat="45.66917" lon="3.00431">
        <ele>820.14184570312</ele>
        <time>2009-06-13T12:55:13Z</time>
      </trkpt>
      <trkpt lat="45.66931" lon="3.00444">
        <ele>817.73852539062</ele>
        <time>2009-06-13T12:55:18Z</time>
      </trkpt>
      <trkpt lat="45.66935" lon="3.00447">
        <ele>817.73852539062</ele>
        <time>2009-06-13T12:55:19Z</time>
      </trkpt>
      <trkpt lat="45.66951" lon="3.00454">
        <ele>816.77734375</ele>
        <time>2009-06-13T12:55:23Z</time>
      </trkpt>
      <trkpt lat="45.66959" lon="3.0046">
        <ele>817.73852539062</ele>
        <time>2009-06-13T12:55:25Z</time>
      </trkpt>
      <trkpt lat="45.66994" lon="3.00485">
        <ele>817.73852539062</ele>
        <time>2009-06-13T12:55:34Z</time>
      </trkpt>
      <trkpt lat="45.67" lon="3.00491">
        <ele>818.21923828125</ele>
        <time>2009-06-13T12:55:37Z</time>
      </trkpt>
      <trkpt lat="45.67024" lon="3.00502">
        <ele>817.25805664062</ele>
        <time>2009-06-13T12:55:44Z</time>
      </trkpt>
      <trkpt lat="45.67051" lon="3.0052">
        <ele>818.21923828125</ele>
        <time>2009-06-13T12:55:51Z</time>
      </trkpt>
      <trkpt lat="45.6708" lon="3.00537">
        <ele>819.1806640625</ele>
        <time>2009-06-13T12:55:58Z</time>
      </trkpt>
      <trkpt lat="45.67101" lon="3.00549">
        <ele>818.69995117188</ele>
        <time>2009-06-13T12:56:03Z</time>
      </trkpt>
      <trkpt lat="45.6714" lon="3.0056">
        <ele>817.73852539062</ele>
        <time>2009-06-13T12:56:11Z</time>
      </trkpt>
      <trkpt lat="45.6715" lon="3.00562">
        <ele>817.73852539062</ele>
        <time>2009-06-13T12:56:13Z</time>
      </trkpt>
      <trkpt lat="45.67176" lon="3.00553">
        <ele>818.21923828125</ele>
        <time>2009-06-13T12:56:18Z</time>
      </trkpt>
      <trkpt lat="45.67217" lon="3.00516">
        <ele>817.73852539062</ele>
        <time>2009-06-13T12:56:27Z</time>
      </trkpt>
      <trkpt lat="45.67221" lon="3.00512">
        <ele>818.21923828125</ele>
        <time>2009-06-13T12:56:28Z</time>
      </trkpt>
      <trkpt lat="45.67233" lon="3.00489">
        <ele>818.69995117188</ele>
        <time>2009-06-13T12:56:32Z</time>
      </trkpt>
      <trkpt lat="45.6724" lon="3.00478">
        <ele>819.1806640625</ele>
        <time>2009-06-13T12:56:34Z</time>
      </trkpt>
      <trkpt lat="45.67248" lon="3.00454">
        <ele>820.14184570312</ele>
        <time>2009-06-13T12:56:38Z</time>
      </trkpt>
      <trkpt lat="45.67248" lon="3.00447">
        <ele>820.62255859375</ele>
        <time>2009-06-13T12:56:39Z</time>
      </trkpt>
      <trkpt lat="45.67247" lon="3.00433">
        <ele>821.58374023438</ele>
        <time>2009-06-13T12:56:41Z</time>
      </trkpt>
      <trkpt lat="45.67243" lon="3.00399">
        <ele>821.58374023438</ele>
        <time>2009-06-13T12:56:46Z</time>
      </trkpt>
      <trkpt lat="45.67236" lon="3.00367">
        <ele>821.10327148438</ele>
        <time>2009-06-13T12:56:51Z</time>
      </trkpt>
      <trkpt lat="45.67244" lon="3.00352">
        <ele>820.14184570312</ele>
        <time>2009-06-13T12:56:54Z</time>
      </trkpt>
      <trkpt lat="45.67248" lon="3.00349">
        <ele>821.10327148438</ele>
        <time>2009-06-13T12:56:55Z</time>
      </trkpt>
      <trkpt lat="45.6726" lon="3.00341">
        <ele>821.58374023438</ele>
        <time>2009-06-13T12:56:58Z</time>
      </trkpt>
      <trkpt lat="45.67275" lon="3.00322">
        <ele>821.58374023438</ele>
        <time>2009-06-13T12:57:03Z</time>
      </trkpt>
      <trkpt lat="45.67278" lon="3.00319">
        <ele>821.58374023438</ele>
        <time>2009-06-13T12:57:04Z</time>
      </trkpt>
      <trkpt lat="45.6729" lon="3.0032">
        <ele>821.10327148438</ele>
        <time>2009-06-13T12:57:08Z</time>
      </trkpt>
      <trkpt lat="45.67295" lon="3.00328">
        <ele>821.58374023438</ele>
        <time>2009-06-13T12:57:10Z</time>
      </trkpt>
      <trkpt lat="45.67318" lon="3.00358">
        <ele>822.064453125</ele>
        <time>2009-06-13T12:57:18Z</time>
      </trkpt>
      <trkpt lat="45.67331" lon="3.00378">
        <ele>822.54516601562</ele>
        <time>2009-06-13T12:57:23Z</time>
      </trkpt>
      <trkpt lat="45.67341" lon="3.00403">
        <ele>823.98706054688</ele>
        <time>2009-06-13T12:57:28Z</time>
      </trkpt>
      <trkpt lat="45.67348" lon="3.00405">
        <ele>825.42895507812</ele>
        <time>2009-06-13T12:57:31Z</time>
      </trkpt>
      <trkpt lat="45.67352" lon="3.00404">
        <ele>825.90966796875</ele>
        <time>2009-06-13T12:57:32Z</time>
      </trkpt>
      <trkpt lat="45.67354" lon="3.00385">
        <ele>828.31323242188</ele>
        <time>2009-06-13T12:57:36Z</time>
      </trkpt>
      <trkpt lat="45.67354" lon="3.00376">
        <ele>829.2744140625</ele>
        <time>2009-06-13T12:57:38Z</time>
      </trkpt>
      <trkpt lat="45.67352" lon="3.00357">
        <ele>830.71655273438</ele>
        <time>2009-06-13T12:57:42Z</time>
      </trkpt>
      <trkpt lat="45.67351" lon="3.00343">
        <ele>831.677734375</ele>
        <time>2009-06-13T12:57:47Z</time>
      </trkpt>
      <trkpt lat="45.67349" lon="3.0033">
        <ele>832.63916015625</ele>
        <time>2009-06-13T12:57:52Z</time>
      </trkpt>
      <trkpt lat="45.67348" lon="3.00327">
        <ele>832.63916015625</ele>
        <time>2009-06-13T12:57:53Z</time>
      </trkpt>
      <trkpt lat="45.67341" lon="3.00303">
        <ele>835.04248046875</ele>
        <time>2009-06-13T12:58:00Z</time>
      </trkpt>
      <trkpt lat="45.67334" lon="3.00286">
        <ele>836.96484375</ele>
        <time>2009-06-13T12:58:06Z</time>
      </trkpt>
      <trkpt lat="45.67332" lon="3.00275">
        <ele>837.92626953125</ele>
        <time>2009-06-13T12:58:10Z</time>
      </trkpt>
      <trkpt lat="45.67329" lon="3.00258">
        <ele>839.84887695312</ele>
        <time>2009-06-13T12:58:15Z</time>
      </trkpt>
      <trkpt lat="45.67327" lon="3.00238">
        <ele>841.771484375</ele>
        <time>2009-06-13T12:58:20Z</time>
      </trkpt>
      <trkpt lat="45.67326" lon="3.0023">
        <ele>842.73291015625</ele>
        <time>2009-06-13T12:58:25Z</time>
      </trkpt>
      <trkpt lat="45.67327" lon="3.0023">
        <ele>842.73291015625</ele>
        <time>2009-06-13T12:58:43Z</time>
      </trkpt>
      <trkpt lat="45.67328" lon="3.00232">
        <ele>842.25219726562</ele>
        <time>2009-06-13T12:59:06Z</time>
      </trkpt>
      <trkpt lat="45.67331" lon="3.00223">
        <ele>843.21337890625</ele>
        <time>2009-06-13T12:59:11Z</time>
      </trkpt>
      <trkpt lat="45.67331" lon="3.00219">
        <ele>843.69409179688</ele>
        <time>2009-06-13T12:59:13Z</time>
      </trkpt>
      <trkpt lat="45.67332" lon="3.00214">
        <ele>844.17504882812</ele>
        <time>2009-06-13T12:59:15Z</time>
      </trkpt>
      <trkpt lat="45.67331" lon="3.00192">
        <ele>847.05883789062</ele>
        <time>2009-06-13T12:59:22Z</time>
      </trkpt>
      <trkpt lat="45.67331" lon="3.00185">
        <ele>847.53955078125</ele>
        <time>2009-06-13T12:59:24Z</time>
      </trkpt>
      <trkpt lat="45.6733" lon="3.00166">
        <ele>848.9814453125</ele>
        <time>2009-06-13T12:59:31Z</time>
      </trkpt>
      <trkpt lat="45.67334" lon="3.00147">
        <ele>850.42358398438</ele>
        <time>2009-06-13T12:59:37Z</time>
      </trkpt>
      <trkpt lat="45.67345" lon="3.0012">
        <ele>852.82666015625</ele>
        <time>2009-06-13T12:59:46Z</time>
      </trkpt>
      <trkpt lat="45.67358" lon="3.00102">
        <ele>852.82666015625</ele>
        <time>2009-06-13T12:59:54Z</time>
      </trkpt>
      <trkpt lat="45.6737" lon="3.00088">
        <ele>853.7880859375</ele>
        <time>2009-06-13T13:00:00Z</time>
      </trkpt>
      <trkpt lat="45.67382" lon="3.00081">
        <ele>855.22998046875</ele>
        <time>2009-06-13T13:00:05Z</time>
      </trkpt>
      <trkpt lat="45.67398" lon="3.00073">
        <ele>856.19116210938</ele>
        <time>2009-06-13T13:00:11Z</time>
      </trkpt>
      <trkpt lat="45.67418" lon="3.00064">
        <ele>859.0751953125</ele>
        <time>2009-06-13T13:00:19Z</time>
      </trkpt>
      <trkpt lat="45.6742" lon="3.00064">
        <ele>859.0751953125</ele>
        <time>2009-06-13T13:00:20Z</time>
      </trkpt>
      <trkpt lat="45.67434" lon="3.00055">
        <ele>860.998046875</ele>
        <time>2009-06-13T13:00:26Z</time>
      </trkpt>
      <trkpt lat="45.67451" lon="3.00042">
        <ele>861.47875976562</ele>
        <time>2009-06-13T13:00:33Z</time>
      </trkpt>
      <trkpt lat="45.67463" lon="3.00032">
        <ele>862.43994140625</ele>
        <time>2009-06-13T13:00:39Z</time>
      </trkpt>
      <trkpt lat="45.67473" lon="3.00018">
        <ele>862.92065429688</ele>
        <time>2009-06-13T13:00:45Z</time>
      </trkpt>
      <trkpt lat="45.6749" lon="3.00005">
        <ele>864.36254882812</ele>
        <time>2009-06-13T13:00:52Z</time>
      </trkpt>
      <trkpt lat="45.67506" lon="2.99991">
        <ele>866.76586914062</ele>
        <time>2009-06-13T13:00:59Z</time>
      </trkpt>
      <trkpt lat="45.67524" lon="2.99978">
        <ele>868.6884765625</ele>
        <time>2009-06-13T13:01:06Z</time>
      </trkpt>
      <trkpt lat="45.6754" lon="2.9997">
        <ele>869.16918945312</ele>
        <time>2009-06-13T13:01:12Z</time>
      </trkpt>
      <trkpt lat="45.67558" lon="2.99962">
        <ele>871.091796875</ele>
        <time>2009-06-13T13:01:19Z</time>
      </trkpt>
      <trkpt lat="45.67577" lon="2.99951">
        <ele>871.572265625</ele>
        <time>2009-06-13T13:01:26Z</time>
      </trkpt>
      <trkpt lat="45.67593" lon="2.99938">
        <ele>872.05297851562</ele>
        <time>2009-06-13T13:01:32Z</time>
      </trkpt>
      <trkpt lat="45.67606" lon="2.99923">
        <ele>872.53369140625</ele>
        <time>2009-06-13T13:01:38Z</time>
      </trkpt>
      <trkpt lat="45.6762" lon="2.99903">
        <ele>873.9755859375</ele>
        <time>2009-06-13T13:01:45Z</time>
      </trkpt>
      <trkpt lat="45.67633" lon="2.99884">
        <ele>876.37915039062</ele>
        <time>2009-06-13T13:01:52Z</time>
      </trkpt>
      <trkpt lat="45.67646" lon="2.99866">
        <ele>877.34057617188</ele>
        <time>2009-06-13T13:01:59Z</time>
      </trkpt>
      <trkpt lat="45.67647" lon="2.99864">
        <ele>877.34057617188</ele>
        <time>2009-06-13T13:02:00Z</time>
      </trkpt>
      <trkpt lat="45.67647" lon="2.99861">
        <ele>877.82104492188</ele>
        <time>2009-06-13T13:02:06Z</time>
      </trkpt>
      <trkpt lat="45.67647" lon="2.99861">
        <ele>877.34057617188</ele>
        <time>2009-06-13T13:02:16Z</time>
      </trkpt>
      <trkpt lat="45.67645" lon="2.99866">
        <ele>877.82104492188</ele>
        <time>2009-06-13T13:02:22Z</time>
      </trkpt>
      <trkpt lat="45.67645" lon="2.99865">
        <ele>877.34057617188</ele>
        <time>2009-06-13T13:02:28Z</time>
      </trkpt>
      <trkpt lat="45.67644" lon="2.99865">
        <ele>877.82104492188</ele>
        <time>2009-06-13T13:02:58Z</time>
      </trkpt>
      <trkpt lat="45.67644" lon="2.99866">
        <ele>877.34057617188</ele>
        <time>2009-06-13T13:03:08Z</time>
      </trkpt>
      <trkpt lat="45.67644" lon="2.99865">
        <ele>878.3017578125</ele>
        <time>2009-06-13T13:03:27Z</time>
      </trkpt>
      <trkpt lat="45.67645" lon="2.99866">
        <ele>879.26293945312</ele>
        <time>2009-06-13T13:04:18Z</time>
      </trkpt>
      <trkpt lat="45.67645" lon="2.99868">
        <ele>879.26293945312</ele>
        <time>2009-06-13T13:05:26Z</time>
      </trkpt>
      <trkpt lat="45.67645" lon="2.99868">
        <ele>878.78247070312</ele>
        <time>2009-06-13T13:05:53Z</time>
      </trkpt>
      <trkpt lat="45.67645" lon="2.99867">
        <ele>879.26293945312</ele>
        <time>2009-06-13T13:06:15Z</time>
      </trkpt>
      <trkpt lat="45.67645" lon="2.99867">
        <ele>878.78247070312</ele>
        <time>2009-06-13T13:06:39Z</time>
      </trkpt>
      <trkpt lat="45.67645" lon="2.99867">
        <ele>879.26293945312</ele>
        <time>2009-06-13T13:06:55Z</time>
      </trkpt>
      <trkpt lat="45.67651" lon="2.9986">
        <ele>879.74365234375</ele>
        <time>2009-06-13T13:07:01Z</time>
      </trkpt>
      <trkpt lat="45.67664" lon="2.99842">
        <ele>881.66625976562</ele>
        <time>2009-06-13T13:07:09Z</time>
      </trkpt>
      <trkpt lat="45.67672" lon="2.99827">
        <ele>881.66625976562</ele>
        <time>2009-06-13T13:07:15Z</time>
      </trkpt>
      <trkpt lat="45.67684" lon="2.9982">
        <ele>882.62768554688</ele>
        <time>2009-06-13T13:07:21Z</time>
      </trkpt>
      <trkpt lat="45.67694" lon="2.99811">
        <ele>883.5888671875</ele>
        <time>2009-06-13T13:07:26Z</time>
      </trkpt>
      <trkpt lat="45.67709" lon="2.99805">
        <ele>883.5888671875</ele>
        <time>2009-06-13T13:07:33Z</time>
      </trkpt>
      <trkpt lat="45.67712" lon="2.99805">
        <ele>883.5888671875</ele>
        <time>2009-06-13T13:07:34Z</time>
      </trkpt>
      <trkpt lat="45.67724" lon="2.99804">
        <ele>883.5888671875</ele>
        <time>2009-06-13T13:07:40Z</time>
      </trkpt>
      <trkpt lat="45.6774" lon="2.99803">
        <ele>884.55029296875</ele>
        <time>2009-06-13T13:07:47Z</time>
      </trkpt>
      <trkpt lat="45.67752" lon="2.99803">
        <ele>884.55029296875</ele>
        <time>2009-06-13T13:07:52Z</time>
      </trkpt>
      <trkpt lat="45.67772" lon="2.99805">
        <ele>886.47290039062</ele>
        <time>2009-06-13T13:07:59Z</time>
      </trkpt>
      <trkpt lat="45.67785" lon="2.99809">
        <ele>887.43408203125</ele>
        <time>2009-06-13T13:08:05Z</time>
      </trkpt>
      <trkpt lat="45.67785" lon="2.99816">
        <ele>886.95336914062</ele>
        <time>2009-06-13T13:08:10Z</time>
      </trkpt>
      <trkpt lat="45.67779" lon="2.99829">
        <ele>888.3955078125</ele>
        <time>2009-06-13T13:08:18Z</time>
      </trkpt>
      <trkpt lat="45.67775" lon="2.99845">
        <ele>889.35668945312</ele>
        <time>2009-06-13T13:08:24Z</time>
      </trkpt>
      <trkpt lat="45.67766" lon="2.99866">
        <ele>890.31811523438</ele>
        <time>2009-06-13T13:08:31Z</time>
      </trkpt>
      <trkpt lat="45.67762" lon="2.99871">
        <ele>890.79858398438</ele>
        <time>2009-06-13T13:08:33Z</time>
      </trkpt>
      <trkpt lat="45.67759" lon="2.99885">
        <ele>891.279296875</ele>
        <time>2009-06-13T13:08:38Z</time>
      </trkpt>
      <trkpt lat="45.67757" lon="2.99888">
        <ele>891.279296875</ele>
        <time>2009-06-13T13:08:39Z</time>
      </trkpt>
      <trkpt lat="45.67752" lon="2.99907">
        <ele>891.76000976562</ele>
        <time>2009-06-13T13:08:46Z</time>
      </trkpt>
      <trkpt lat="45.67747" lon="2.99926">
        <ele>893.2021484375</ele>
        <time>2009-06-13T13:08:52Z</time>
      </trkpt>
      <trkpt lat="45.67743" lon="2.99951">
        <ele>894.16357421875</ele>
        <time>2009-06-13T13:08:59Z</time>
      </trkpt>
      <trkpt lat="45.67739" lon="2.99975">
        <ele>895.12475585938</ele>
        <time>2009-06-13T13:09:05Z</time>
      </trkpt>
      <trkpt lat="45.67734" lon="3.00003">
        <ele>896.08618164062</ele>
        <time>2009-06-13T13:09:12Z</time>
      </trkpt>
      <trkpt lat="45.67733" lon="3.00047">
        <ele>896.08618164062</ele>
        <time>2009-06-13T13:09:22Z</time>
      </trkpt>
      <trkpt lat="45.67739" lon="3.00081">
        <ele>896.56689453125</ele>
        <time>2009-06-13T13:09:30Z</time>
      </trkpt>
      <trkpt lat="45.6774" lon="3.00112">
        <ele>898.4892578125</ele>
        <time>2009-06-13T13:09:38Z</time>
      </trkpt>
      <trkpt lat="45.67739" lon="3.00132">
        <ele>899.93139648438</ele>
        <time>2009-06-13T13:09:44Z</time>
      </trkpt>
      <trkpt lat="45.67738" lon="3.00149">
        <ele>901.37329101562</ele>
        <time>2009-06-13T13:09:51Z</time>
      </trkpt>
      <trkpt lat="45.67739" lon="3.00164">
        <ele>901.85400390625</ele>
        <time>2009-06-13T13:09:56Z</time>
      </trkpt>
      <trkpt lat="45.67739" lon="3.00189">
        <ele>902.33447265625</ele>
        <time>2009-06-13T13:10:03Z</time>
      </trkpt>
      <trkpt lat="45.67739" lon="3.00219">
        <ele>904.73779296875</ele>
        <time>2009-06-13T13:10:10Z</time>
      </trkpt>
      <trkpt lat="45.67737" lon="3.00235">
        <ele>906.1796875</ele>
        <time>2009-06-13T13:10:15Z</time>
      </trkpt>
      <trkpt lat="45.67735" lon="3.0025">
        <ele>906.66040039062</ele>
        <time>2009-06-13T13:10:22Z</time>
      </trkpt>
      <trkpt lat="45.67734" lon="3.00254">
        <ele>907.14111328125</ele>
        <time>2009-06-13T13:10:24Z</time>
      </trkpt>
      <trkpt lat="45.67735" lon="3.00258">
        <ele>907.62182617188</ele>
        <time>2009-06-13T13:10:30Z</time>
      </trkpt>
      <trkpt lat="45.67736" lon="3.00258">
        <ele>907.14111328125</ele>
        <time>2009-06-13T13:10:48Z</time>
      </trkpt>
      <trkpt lat="45.67736" lon="3.00259">
        <ele>907.62182617188</ele>
        <time>2009-06-13T13:11:10Z</time>
      </trkpt>
      <trkpt lat="45.67747" lon="3.0026">
        <ele>908.58325195312</ele>
        <time>2009-06-13T13:11:17Z</time>
      </trkpt>
      <trkpt lat="45.67764" lon="3.00272">
        <ele>910.02514648438</ele>
        <time>2009-06-13T13:11:26Z</time>
      </trkpt>
      <trkpt lat="45.67782" lon="3.0028">
        <ele>913.38989257812</ele>
        <time>2009-06-13T13:11:34Z</time>
      </trkpt>
      <trkpt lat="45.67798" lon="3.00285">
        <ele>915.3125</ele>
        <time>2009-06-13T13:11:41Z</time>
      </trkpt>
      <trkpt lat="45.6781" lon="3.00289">
        <ele>916.27368164062</ele>
        <time>2009-06-13T13:11:47Z</time>
      </trkpt>
      <trkpt lat="45.67819" lon="3.00297">
        <ele>917.23510742188</ele>
        <time>2009-06-13T13:11:51Z</time>
      </trkpt>
      <trkpt lat="45.67838" lon="3.00306">
        <ele>920.599609375</ele>
        <time>2009-06-13T13:11:59Z</time>
      </trkpt>
      <trkpt lat="45.67853" lon="3.0031">
        <ele>923.0029296875</ele>
        <time>2009-06-13T13:12:05Z</time>
      </trkpt>
      <trkpt lat="45.67862" lon="3.0032">
        <ele>924.44506835938</ele>
        <time>2009-06-13T13:12:10Z</time>
      </trkpt>
      <trkpt lat="45.6787" lon="3.00334">
        <ele>925.40625</ele>
        <time>2009-06-13T13:12:16Z</time>
      </trkpt>
      <trkpt lat="45.67881" lon="3.00344">
        <ele>926.36767578125</ele>
        <time>2009-06-13T13:12:22Z</time>
      </trkpt>
      <trkpt lat="45.67899" lon="3.00354">
        <ele>928.29028320312</ele>
        <time>2009-06-13T13:12:30Z</time>
      </trkpt>
      <trkpt lat="45.67914" lon="3.00365">
        <ele>930.212890625</ele>
        <time>2009-06-13T13:12:38Z</time>
      </trkpt>
      <trkpt lat="45.67924" lon="3.00372">
        <ele>932.6162109375</ele>
        <time>2009-06-13T13:12:44Z</time>
      </trkpt>
      <trkpt lat="45.67942" lon="3.00378">
        <ele>935.01953125</ele>
        <time>2009-06-13T13:12:53Z</time>
      </trkpt>
      <trkpt lat="45.67963" lon="3.0038">
        <ele>936.46142578125</ele>
        <time>2009-06-13T13:13:02Z</time>
      </trkpt>
      <trkpt lat="45.67975" lon="3.00373">
        <ele>938.86474609375</ele>
        <time>2009-06-13T13:13:08Z</time>
      </trkpt>
      <trkpt lat="45.67991" lon="3.00367">
        <ele>940.78735351562</ele>
        <time>2009-06-13T13:13:16Z</time>
      </trkpt>
      <trkpt lat="45.68008" lon="3.00368">
        <ele>942.2294921875</ele>
        <time>2009-06-13T13:13:24Z</time>
      </trkpt>
      <trkpt lat="45.6802" lon="3.00377">
        <ele>943.19067382812</ele>
        <time>2009-06-13T13:13:30Z</time>
      </trkpt>
      <trkpt lat="45.68042" lon="3.00392">
        <ele>946.55541992188</ele>
        <time>2009-06-13T13:13:40Z</time>
      </trkpt>
      <trkpt lat="45.6806" lon="3.00407">
        <ele>947.99731445312</ele>
        <time>2009-06-13T13:13:49Z</time>
      </trkpt>
      <trkpt lat="45.68081" lon="3.00423">
        <ele>949.919921875</ele>
        <time>2009-06-13T13:13:59Z</time>
      </trkpt>
      <trkpt lat="45.68102" lon="3.00435">
        <ele>952.8037109375</ele>
        <time>2009-06-13T13:14:09Z</time>
      </trkpt>
      <trkpt lat="45.68118" lon="3.00443">
        <ele>954.72631835938</ele>
        <time>2009-06-13T13:14:16Z</time>
      </trkpt>
      <trkpt lat="45.68131" lon="3.00446">
        <ele>956.16845703125</ele>
        <time>2009-06-13T13:14:22Z</time>
      </trkpt>
      <trkpt lat="45.68143" lon="3.00453">
        <ele>957.1298828125</ele>
        <time>2009-06-13T13:14:28Z</time>
      </trkpt>
      <trkpt lat="45.68163" lon="3.00466">
        <ele>960.013671875</ele>
        <time>2009-06-13T13:14:37Z</time>
      </trkpt>
      <trkpt lat="45.68182" lon="3.00481">
        <ele>961.9365234375</ele>
        <time>2009-06-13T13:14:46Z</time>
      </trkpt>
      <trkpt lat="45.68193" lon="3.00497">
        <ele>963.85888671875</ele>
        <time>2009-06-13T13:14:53Z</time>
      </trkpt>
      <trkpt lat="45.68207" lon="3.00503">
        <ele>964.33959960938</ele>
        <time>2009-06-13T13:14:59Z</time>
      </trkpt>
      <trkpt lat="45.68227" lon="3.00504">
        <ele>966.74291992188</ele>
        <time>2009-06-13T13:15:07Z</time>
      </trkpt>
      <trkpt lat="45.68246" lon="3.00509">
        <ele>967.7041015625</ele>
        <time>2009-06-13T13:15:15Z</time>
      </trkpt>
      <trkpt lat="45.68264" lon="3.00517">
        <ele>969.14624023438</ele>
        <time>2009-06-13T13:15:24Z</time>
      </trkpt>
      <trkpt lat="45.68274" lon="3.00519">
        <ele>970.58813476562</ele>
        <time>2009-06-13T13:15:29Z</time>
      </trkpt>
      <trkpt lat="45.68293" lon="3.00527">
        <ele>971.06884765625</ele>
        <time>2009-06-13T13:15:37Z</time>
      </trkpt>
      <trkpt lat="45.68303" lon="3.00531">
        <ele>972.0302734375</ele>
        <time>2009-06-13T13:15:44Z</time>
      </trkpt>
      <trkpt lat="45.68303" lon="3.00531">
        <ele>971.54931640625</ele>
        <time>2009-06-13T13:15:56Z</time>
      </trkpt>
      <trkpt lat="45.68304" lon="3.00531">
        <ele>972.0302734375</ele>
        <time>2009-06-13T13:16:16Z</time>
      </trkpt>
      <trkpt lat="45.68303" lon="3.00531">
        <ele>972.51098632812</ele>
        <time>2009-06-13T13:16:36Z</time>
      </trkpt>
      <trkpt lat="45.68303" lon="3.00531">
        <ele>972.99169921875</ele>
        <time>2009-06-13T13:16:48Z</time>
      </trkpt>
      <trkpt lat="45.68304" lon="3.00531">
        <ele>972.99169921875</ele>
        <time>2009-06-13T13:17:45Z</time>
      </trkpt>
      <trkpt lat="45.68307" lon="3.00531">
        <ele>973.47241210938</ele>
        <time>2009-06-13T13:18:37Z</time>
      </trkpt>
      <trkpt lat="45.68308" lon="3.00531">
        <ele>972.51098632812</ele>
        <time>2009-06-13T13:18:50Z</time>
      </trkpt>
      <trkpt lat="45.68307" lon="3.00531">
        <ele>973.47241210938</ele>
        <time>2009-06-13T13:19:17Z</time>
      </trkpt>
      <trkpt lat="45.68306" lon="3.00532">
        <ele>973.95288085938</ele>
        <time>2009-06-13T13:19:53Z</time>
      </trkpt>
      <trkpt lat="45.68305" lon="3.00532">
        <ele>973.47241210938</ele>
        <time>2009-06-13T13:20:02Z</time>
      </trkpt>
      <trkpt lat="45.68303" lon="3.00533">
        <ele>973.95288085938</ele>
        <time>2009-06-13T13:20:04Z</time>
      </trkpt>
      <trkpt lat="45.68303" lon="3.00532">
        <ele>973.47241210938</ele>
        <time>2009-06-13T13:20:05Z</time>
      </trkpt>
      <trkpt lat="45.68264" lon="3.00519">
        <ele>972.0302734375</ele>
        <time>2009-06-13T13:28:14Z</time>
      </trkpt>
      <trkpt lat="45.68266" lon="3.0052">
        <ele>970.58813476562</ele>
        <time>2009-06-13T13:28:15Z</time>
      </trkpt>
      <trkpt lat="45.68268" lon="3.0052">
        <ele>973.47241210938</ele>
        <time>2009-06-13T13:28:16Z</time>
      </trkpt>
      <trkpt lat="45.68285" lon="3.00526">
        <ele>972.99169921875</ele>
        <time>2009-06-13T13:28:22Z</time>
      </trkpt>
      <trkpt lat="45.6831" lon="3.00535">
        <ele>973.95288085938</ele>
        <time>2009-06-13T13:28:30Z</time>
      </trkpt>
      <trkpt lat="45.68337" lon="3.00547">
        <ele>974.91430664062</ele>
        <time>2009-06-13T13:28:38Z</time>
      </trkpt>
      <trkpt lat="45.68362" lon="3.00553">
        <ele>975.39477539062</ele>
        <time>2009-06-13T13:28:45Z</time>
      </trkpt>
      <trkpt lat="45.68388" lon="3.00564">
        <ele>975.87548828125</ele>
        <time>2009-06-13T13:28:52Z</time>
      </trkpt>
      <trkpt lat="45.6841" lon="3.00589">
        <ele>976.35620117188</ele>
        <time>2009-06-13T13:28:59Z</time>
      </trkpt>
      <trkpt lat="45.68428" lon="3.00608">
        <ele>977.31762695312</ele>
        <time>2009-06-13T13:29:05Z</time>
      </trkpt>
      <trkpt lat="45.68442" lon="3.00622">
        <ele>979.720703125</ele>
        <time>2009-06-13T13:29:11Z</time>
      </trkpt>
      <trkpt lat="45.68459" lon="3.00621">
        <ele>981.64331054688</ele>
        <time>2009-06-13T13:29:16Z</time>
      </trkpt>
      <trkpt lat="45.6847" lon="3.00618">
        <ele>983.08520507812</ele>
        <time>2009-06-13T13:29:20Z</time>
      </trkpt>
      <trkpt lat="45.68489" lon="3.00617">
        <ele>983.08520507812</ele>
        <time>2009-06-13T13:29:28Z</time>
      </trkpt>
      <trkpt lat="45.68501" lon="3.00622">
        <ele>983.08520507812</ele>
        <time>2009-06-13T13:29:34Z</time>
      </trkpt>
      <trkpt lat="45.68506" lon="3.00626">
        <ele>983.56591796875</ele>
        <time>2009-06-13T13:29:40Z</time>
      </trkpt>
      <trkpt lat="45.68506" lon="3.00627">
        <ele>982.60473632812</ele>
        <time>2009-06-13T13:30:01Z</time>
      </trkpt>
      <trkpt lat="45.68506" lon="3.00626">
        <ele>982.60473632812</ele>
        <time>2009-06-13T13:30:22Z</time>
      </trkpt>
      <trkpt lat="45.68508" lon="3.00628">
        <ele>983.08520507812</ele>
        <time>2009-06-13T13:30:33Z</time>
      </trkpt>
      <trkpt lat="45.68518" lon="3.00637">
        <ele>981.64331054688</ele>
        <time>2009-06-13T13:30:37Z</time>
      </trkpt>
      <trkpt lat="45.68542" lon="3.00661">
        <ele>981.16284179688</ele>
        <time>2009-06-13T13:30:44Z</time>
      </trkpt>
      <trkpt lat="45.6855" lon="3.0067">
        <ele>980.20141601562</ele>
        <time>2009-06-13T13:30:46Z</time>
      </trkpt>
      <trkpt lat="45.68576" lon="3.00696">
        <ele>979.720703125</ele>
        <time>2009-06-13T13:30:52Z</time>
      </trkpt>
      <trkpt lat="45.68599" lon="3.00703">
        <ele>979.720703125</ele>
        <time>2009-06-13T13:30:56Z</time>
      </trkpt>
      <trkpt lat="45.68631" lon="3.00703">
        <ele>980.20141601562</ele>
        <time>2009-06-13T13:31:02Z</time>
      </trkpt>
      <trkpt lat="45.68666" lon="3.00687">
        <ele>982.1240234375</ele>
        <time>2009-06-13T13:31:09Z</time>
      </trkpt>
      <trkpt lat="45.68702" lon="3.00667">
        <ele>984.04663085938</ele>
        <time>2009-06-13T13:31:16Z</time>
      </trkpt>
      <trkpt lat="45.68745" lon="3.00641">
        <ele>986.44995117188</ele>
        <time>2009-06-13T13:31:25Z</time>
      </trkpt>
      <trkpt lat="45.68769" lon="3.00629">
        <ele>987.4111328125</ele>
        <time>2009-06-13T13:31:31Z</time>
      </trkpt>
      <trkpt lat="45.6879" lon="3.0062">
        <ele>988.853515625</ele>
        <time>2009-06-13T13:31:36Z</time>
      </trkpt>
      <trkpt lat="45.68812" lon="3.0061">
        <ele>989.333984375</ele>
        <time>2009-06-13T13:31:41Z</time>
      </trkpt>
      <trkpt lat="45.68824" lon="3.00602">
        <ele>989.81469726562</ele>
        <time>2009-06-13T13:31:44Z</time>
      </trkpt>
      <trkpt lat="45.68856" lon="3.00585">
        <ele>989.81469726562</ele>
        <time>2009-06-13T13:31:52Z</time>
      </trkpt>
      <trkpt lat="45.68871" lon="3.00576">
        <ele>988.853515625</ele>
        <time>2009-06-13T13:31:57Z</time>
      </trkpt>
      <trkpt lat="45.68885" lon="3.00569">
        <ele>988.853515625</ele>
        <time>2009-06-13T13:32:03Z</time>
      </trkpt>
      <trkpt lat="45.68887" lon="3.00569">
        <ele>988.37280273438</ele>
        <time>2009-06-13T13:32:04Z</time>
      </trkpt>
      <trkpt lat="45.6889" lon="3.00565">
        <ele>988.37280273438</ele>
        <time>2009-06-13T13:32:07Z</time>
      </trkpt>
      <trkpt lat="45.689" lon="3.00557">
        <ele>986.44995117188</ele>
        <time>2009-06-13T13:32:13Z</time>
      </trkpt>
      <trkpt lat="45.68903" lon="3.00555">
        <ele>985.96923828125</ele>
        <time>2009-06-13T13:32:14Z</time>
      </trkpt>
      <trkpt lat="45.68923" lon="3.00545">
        <ele>985.00805664062</ele>
        <time>2009-06-13T13:32:20Z</time>
      </trkpt>
      <trkpt lat="45.68942" lon="3.00539">
        <ele>983.08520507812</ele>
        <time>2009-06-13T13:32:25Z</time>
      </trkpt>
      <trkpt lat="45.68959" lon="3.00537">
        <ele>983.56591796875</ele>
        <time>2009-06-13T13:32:30Z</time>
      </trkpt>
      <trkpt lat="45.68972" lon="3.00539">
        <ele>983.08520507812</ele>
        <time>2009-06-13T13:32:35Z</time>
      </trkpt>
      <trkpt lat="45.68972" lon="3.00539">
        <ele>983.56591796875</ele>
        <time>2009-06-13T13:32:42Z</time>
      </trkpt>
      <trkpt lat="45.68975" lon="3.00539">
        <ele>983.08520507812</ele>
        <time>2009-06-13T13:33:01Z</time>
      </trkpt>
      <trkpt lat="45.68983" lon="3.0054">
        <ele>982.1240234375</ele>
        <time>2009-06-13T13:33:04Z</time>
      </trkpt>
      <trkpt lat="45.68998" lon="3.00545">
        <ele>980.20141601562</ele>
        <time>2009-06-13T13:33:07Z</time>
      </trkpt>
      <trkpt lat="45.69026" lon="3.00559">
        <ele>976.8369140625</ele>
        <time>2009-06-13T13:33:12Z</time>
      </trkpt>
      <trkpt lat="45.69045" lon="3.00566">
        <ele>976.8369140625</ele>
        <time>2009-06-13T13:33:15Z</time>
      </trkpt>
      <trkpt lat="45.69069" lon="3.00566">
        <ele>974.91430664062</ele>
        <time>2009-06-13T13:33:18Z</time>
      </trkpt>
      <trkpt lat="45.69098" lon="3.00554">
        <ele>970.107421875</ele>
        <time>2009-06-13T13:33:22Z</time>
      </trkpt>
      <trkpt lat="45.69106" lon="3.0055">
        <ele>970.58813476562</ele>
        <time>2009-06-13T13:33:23Z</time>
      </trkpt>
      <trkpt lat="45.69138" lon="3.0053">
        <ele>967.2236328125</ele>
        <time>2009-06-13T13:33:27Z</time>
      </trkpt>
      <trkpt lat="45.69174" lon="3.00504">
        <ele>968.18481445312</ele>
        <time>2009-06-13T13:33:32Z</time>
      </trkpt>
      <trkpt lat="45.69198" lon="3.00486">
        <ele>970.58813476562</ele>
        <time>2009-06-13T13:33:36Z</time>
      </trkpt>
      <trkpt lat="45.69221" lon="3.00469">
        <ele>971.54931640625</ele>
        <time>2009-06-13T13:33:40Z</time>
      </trkpt>
      <trkpt lat="45.69255" lon="3.00431">
        <ele>969.626953125</ele>
        <time>2009-06-13T13:33:46Z</time>
      </trkpt>
      <trkpt lat="45.69279" lon="3.00404">
        <ele>967.2236328125</ele>
        <time>2009-06-13T13:33:50Z</time>
      </trkpt>
      <trkpt lat="45.6931" lon="3.00355">
        <ele>965.78173828125</ele>
        <time>2009-06-13T13:33:56Z</time>
      </trkpt>
      <trkpt lat="45.69321" lon="3.00331">
        <ele>962.4169921875</ele>
        <time>2009-06-13T13:33:59Z</time>
      </trkpt>
      <trkpt lat="45.69325" lon="3.00322">
        <ele>960.49438476562</ele>
        <time>2009-06-13T13:34:00Z</time>
      </trkpt>
      <trkpt lat="45.69336" lon="3.0029">
        <ele>954.24584960938</ele>
        <time>2009-06-13T13:34:03Z</time>
      </trkpt>
      <trkpt lat="45.69339" lon="3.00277">
        <ele>953.76513671875</ele>
        <time>2009-06-13T13:34:04Z</time>
      </trkpt>
      <trkpt lat="45.69343" lon="3.0025">
        <ele>951.84252929688</ele>
        <time>2009-06-13T13:34:06Z</time>
      </trkpt>
      <trkpt lat="45.69348" lon="3.00222">
        <ele>950.40063476562</ele>
        <time>2009-06-13T13:34:08Z</time>
      </trkpt>
      <trkpt lat="45.69355" lon="3.00175">
        <ele>948.47778320312</ele>
        <time>2009-06-13T13:34:12Z</time>
      </trkpt>
      <trkpt lat="45.69362" lon="3.00137">
        <ele>944.63256835938</ele>
        <time>2009-06-13T13:34:15Z</time>
      </trkpt>
      <trkpt lat="45.69384" lon="3.00078">
        <ele>942.2294921875</ele>
        <time>2009-06-13T13:34:20Z</time>
      </trkpt>
      <trkpt lat="45.69402" lon="3.00043">
        <ele>938.86474609375</ele>
        <time>2009-06-13T13:34:23Z</time>
      </trkpt>
      <trkpt lat="45.69416" lon="3.0002">
        <ele>935.01953125</ele>
        <time>2009-06-13T13:34:25Z</time>
      </trkpt>
      <trkpt lat="45.69424" lon="3.0001">
        <ele>935.01953125</ele>
        <time>2009-06-13T13:34:26Z</time>
      </trkpt>
      <trkpt lat="45.69448" lon="2.99972">
        <ele>934.05810546875</ele>
        <time>2009-06-13T13:34:30Z</time>
      </trkpt>
      <trkpt lat="45.69451" lon="2.99938">
        <ele>931.65478515625</ele>
        <time>2009-06-13T13:34:34Z</time>
      </trkpt>
      <trkpt lat="45.6945" lon="2.99927">
        <ele>930.69360351562</ele>
        <time>2009-06-13T13:34:35Z</time>
      </trkpt>
      <trkpt lat="45.69446" lon="2.9989">
        <ele>927.3291015625</ele>
        <time>2009-06-13T13:34:38Z</time>
      </trkpt>
      <trkpt lat="45.69436" lon="2.99838">
        <ele>922.04150390625</ele>
        <time>2009-06-13T13:34:42Z</time>
      </trkpt>
      <trkpt lat="45.69433" lon="2.99825">
        <ele>922.04150390625</ele>
        <time>2009-06-13T13:34:43Z</time>
      </trkpt>
      <trkpt lat="45.69425" lon="2.99783">
        <ele>922.04150390625</ele>
        <time>2009-06-13T13:34:47Z</time>
      </trkpt>
      <trkpt lat="45.69422" lon="2.99765">
        <ele>921.56079101562</ele>
        <time>2009-06-13T13:34:51Z</time>
      </trkpt>
      <trkpt lat="45.69421" lon="2.99765">
        <ele>920.599609375</ele>
        <time>2009-06-13T13:34:58Z</time>
      </trkpt>
      <trkpt lat="45.69421" lon="2.99769">
        <ele>922.04150390625</ele>
        <time>2009-06-13T13:36:15Z</time>
      </trkpt>
      <trkpt lat="45.69419" lon="2.99769">
        <ele>921.56079101562</ele>
        <time>2009-06-13T13:36:23Z</time>
      </trkpt>
      <trkpt lat="45.69417" lon="2.99768">
        <ele>922.04150390625</ele>
        <time>2009-06-13T13:36:25Z</time>
      </trkpt>
      <trkpt lat="45.69413" lon="2.99763">
        <ele>921.56079101562</ele>
        <time>2009-06-13T13:36:30Z</time>
      </trkpt>
      <trkpt lat="45.69413" lon="2.99762">
        <ele>921.56079101562</ele>
        <time>2009-06-13T13:36:35Z</time>
      </trkpt>
      <trkpt lat="45.69412" lon="2.99762">
        <ele>920.599609375</ele>
        <time>2009-06-13T13:36:47Z</time>
      </trkpt>
      <trkpt lat="45.6941" lon="2.99761">
        <ele>920.599609375</ele>
        <time>2009-06-13T13:36:58Z</time>
      </trkpt>
      <trkpt lat="45.69399" lon="2.99751">
        <ele>919.63842773438</ele>
        <time>2009-06-13T13:37:04Z</time>
      </trkpt>
      <trkpt lat="45.6938" lon="2.99741">
        <ele>916.75439453125</ele>
        <time>2009-06-13T13:37:10Z</time>
      </trkpt>
      <trkpt lat="45.6936" lon="2.99731">
        <ele>914.35107421875</ele>
        <time>2009-06-13T13:37:16Z</time>
      </trkpt>
      <trkpt lat="45.69359" lon="2.99726">
        <ele>913.38989257812</ele>
        <time>2009-06-13T13:37:20Z</time>
      </trkpt>
      <trkpt lat="45.69359" lon="2.99725">
        <ele>913.38989257812</ele>
        <time>2009-06-13T13:37:22Z</time>
      </trkpt>
      <trkpt lat="45.69365" lon="2.99722">
        <ele>912.9091796875</ele>
        <time>2009-06-13T13:37:27Z</time>
      </trkpt>
      <trkpt lat="45.6938" lon="2.99724">
        <ele>912.42846679688</ele>
        <time>2009-06-13T13:37:32Z</time>
      </trkpt>
      <trkpt lat="45.69398" lon="2.9973">
        <ele>913.38989257812</ele>
        <time>2009-06-13T13:37:36Z</time>
      </trkpt>
      <trkpt lat="45.69438" lon="2.99748">
        <ele>911.94799804688</ele>
        <time>2009-06-13T13:37:44Z</time>
      </trkpt>
      <trkpt lat="45.6946" lon="2.99757">
        <ele>910.98657226562</ele>
        <time>2009-06-13T13:37:48Z</time>
      </trkpt>
      <trkpt lat="45.69473" lon="2.9976">
        <ele>911.46728515625</ele>
        <time>2009-06-13T13:37:52Z</time>
      </trkpt>
      <trkpt lat="45.69482" lon="2.99752">
        <ele>910.98657226562</ele>
        <time>2009-06-13T13:37:56Z</time>
      </trkpt>
      <trkpt lat="45.6949" lon="2.99748">
        <ele>910.505859375</ele>
        <time>2009-06-13T13:37:59Z</time>
      </trkpt>
      <trkpt lat="45.69493" lon="2.99752">
        <ele>910.505859375</ele>
        <time>2009-06-13T13:38:05Z</time>
      </trkpt>
      <trkpt lat="45.69493" lon="2.99754">
        <ele>910.505859375</ele>
        <time>2009-06-13T13:38:23Z</time>
      </trkpt>
      <trkpt lat="45.69497" lon="2.99759">
        <ele>910.02514648438</ele>
        <time>2009-06-13T13:38:38Z</time>
      </trkpt>
      <trkpt lat="45.69508" lon="2.99777">
        <ele>907.14111328125</ele>
        <time>2009-06-13T13:38:43Z</time>
      </trkpt>
      <trkpt lat="45.69524" lon="2.99799">
        <ele>904.73779296875</ele>
        <time>2009-06-13T13:38:47Z</time>
      </trkpt>
      <trkpt lat="45.69544" lon="2.99826">
        <ele>901.37329101562</ele>
        <time>2009-06-13T13:38:51Z</time>
      </trkpt>
      <trkpt lat="45.69549" lon="2.99833">
        <ele>901.37329101562</ele>
        <time>2009-06-13T13:38:52Z</time>
      </trkpt>
      <trkpt lat="45.69555" lon="2.9984">
        <ele>900.892578125</ele>
        <time>2009-06-13T13:38:53Z</time>
      </trkpt>
      <trkpt lat="45.69597" lon="2.9988">
        <ele>901.37329101562</ele>
        <time>2009-06-13T13:39:01Z</time>
      </trkpt>
      <trkpt lat="45.69602" lon="2.99883">
        <ele>901.85400390625</ele>
        <time>2009-06-13T13:39:02Z</time>
      </trkpt>
      <trkpt lat="45.69641" lon="2.99917">
        <ele>898.96997070312</ele>
        <time>2009-06-13T13:39:10Z</time>
      </trkpt>
      <trkpt lat="45.69681" lon="2.99953">
        <ele>896.08618164062</ele>
        <time>2009-06-13T13:39:17Z</time>
      </trkpt>
      <trkpt lat="45.69704" lon="2.99977">
        <ele>891.279296875</ele>
        <time>2009-06-13T13:39:22Z</time>
      </trkpt>
      <trkpt lat="45.6971" lon="2.99983">
        <ele>889.83740234375</ele>
        <time>2009-06-13T13:39:23Z</time>
      </trkpt>
      <trkpt lat="45.69723" lon="2.99995">
        <ele>889.35668945312</ele>
        <time>2009-06-13T13:39:25Z</time>
      </trkpt>
      <trkpt lat="45.69735" lon="3.00005">
        <ele>886.47290039062</ele>
        <time>2009-06-13T13:39:27Z</time>
      </trkpt>
      <trkpt lat="45.69762" lon="3.00029">
        <ele>880.22436523438</ele>
        <time>2009-06-13T13:39:31Z</time>
      </trkpt>
      <trkpt lat="45.69769" lon="3.00035">
        <ele>880.22436523438</ele>
        <time>2009-06-13T13:39:32Z</time>
      </trkpt>
      <trkpt lat="45.69794" lon="3.00067">
        <ele>882.62768554688</ele>
        <time>2009-06-13T13:39:36Z</time>
      </trkpt>
      <trkpt lat="45.69799" lon="3.00072">
        <ele>883.5888671875</ele>
        <time>2009-06-13T13:39:37Z</time>
      </trkpt>
      <trkpt lat="45.69816" lon="3.00087">
        <ele>882.62768554688</ele>
        <time>2009-06-13T13:39:41Z</time>
      </trkpt>
      <trkpt lat="45.69834" lon="3.00101">
        <ele>882.62768554688</ele>
        <time>2009-06-13T13:39:47Z</time>
      </trkpt>
      <trkpt lat="45.69844" lon="3.00107">
        <ele>882.14697265625</ele>
        <time>2009-06-13T13:39:53Z</time>
      </trkpt>
      <trkpt lat="45.69847" lon="3.00108">
        <ele>883.10815429688</ele>
        <time>2009-06-13T13:39:57Z</time>
      </trkpt>
      <trkpt lat="45.69856" lon="3.00115">
        <ele>882.62768554688</ele>
        <time>2009-06-13T13:40:01Z</time>
      </trkpt>
      <trkpt lat="45.69877" lon="3.0012">
        <ele>877.82104492188</ele>
        <time>2009-06-13T13:40:05Z</time>
      </trkpt>
      <trkpt lat="45.69888" lon="3.00119">
        <ele>877.34057617188</ele>
        <time>2009-06-13T13:40:07Z</time>
      </trkpt>
      <trkpt lat="45.6991" lon="3.00128">
        <ele>873.01440429688</ele>
        <time>2009-06-13T13:40:11Z</time>
      </trkpt>
      <trkpt lat="45.69917" lon="3.00133">
        <ele>871.091796875</ele>
        <time>2009-06-13T13:40:12Z</time>
      </trkpt>
      <trkpt lat="45.69939" lon="3.00141">
        <ele>871.091796875</ele>
        <time>2009-06-13T13:40:16Z</time>
      </trkpt>
      <trkpt lat="45.69954" lon="3.00135">
        <ele>870.61108398438</ele>
        <time>2009-06-13T13:40:22Z</time>
      </trkpt>
      <trkpt lat="45.6997" lon="3.00113">
        <ele>868.20776367188</ele>
        <time>2009-06-13T13:40:29Z</time>
      </trkpt>
      <trkpt lat="45.69976" lon="3.001">
        <ele>867.24658203125</ele>
        <time>2009-06-13T13:40:32Z</time>
      </trkpt>
      <trkpt lat="45.69987" lon="3.00075">
        <ele>866.76586914062</ele>
        <time>2009-06-13T13:40:38Z</time>
      </trkpt>
      <trkpt lat="45.70002" lon="3.00057">
        <ele>864.36254882812</ele>
        <time>2009-06-13T13:40:45Z</time>
      </trkpt>
      <trkpt lat="45.70018" lon="3.00058">
        <ele>863.4013671875</ele>
        <time>2009-06-13T13:40:50Z</time>
      </trkpt>
      <trkpt lat="45.70033" lon="3.00071">
        <ele>862.43994140625</ele>
        <time>2009-06-13T13:40:55Z</time>
      </trkpt>
      <trkpt lat="45.70042" lon="3.00089">
        <ele>860.998046875</ele>
        <time>2009-06-13T13:41:00Z</time>
      </trkpt>
      <trkpt lat="45.70052" lon="3.00114">
        <ele>858.59448242188</ele>
        <time>2009-06-13T13:41:06Z</time>
      </trkpt>
      <trkpt lat="45.70063" lon="3.00132">
        <ele>858.59448242188</ele>
        <time>2009-06-13T13:41:11Z</time>
      </trkpt>
      <trkpt lat="45.70074" lon="3.0015">
        <ele>857.63330078125</ele>
        <time>2009-06-13T13:41:16Z</time>
      </trkpt>
      <trkpt lat="45.70093" lon="3.00171">
        <ele>854.26879882812</ele>
        <time>2009-06-13T13:41:21Z</time>
      </trkpt>
      <trkpt lat="45.70103" lon="3.00178">
        <ele>854.26879882812</ele>
        <time>2009-06-13T13:41:23Z</time>
      </trkpt>
      <trkpt lat="45.70125" lon="3.00206">
        <ele>852.34594726562</ele>
        <time>2009-06-13T13:41:28Z</time>
      </trkpt>
      <trkpt lat="45.70153" lon="3.00235">
        <ele>851.86547851562</ele>
        <time>2009-06-13T13:41:34Z</time>
      </trkpt>
      <trkpt lat="45.70167" lon="3.00246">
        <ele>852.82666015625</ele>
        <time>2009-06-13T13:41:37Z</time>
      </trkpt>
      <trkpt lat="45.70186" lon="3.00257">
        <ele>850.90405273438</ele>
        <time>2009-06-13T13:41:41Z</time>
      </trkpt>
      <trkpt lat="45.70204" lon="3.00265">
        <ele>851.86547851562</ele>
        <time>2009-06-13T13:41:45Z</time>
      </trkpt>
      <trkpt lat="45.70222" lon="3.00274">
        <ele>850.42358398438</ele>
        <time>2009-06-13T13:41:49Z</time>
      </trkpt>
      <trkpt lat="45.70251" lon="3.00283">
        <ele>849.46215820312</ele>
        <time>2009-06-13T13:41:55Z</time>
      </trkpt>
      <trkpt lat="45.7026" lon="3.00284">
        <ele>849.46215820312</ele>
        <time>2009-06-13T13:41:57Z</time>
      </trkpt>
      <trkpt lat="45.70279" lon="3.0028">
        <ele>849.94287109375</ele>
        <time>2009-06-13T13:42:02Z</time>
      </trkpt>
      <trkpt lat="45.70296" lon="3.0028">
        <ele>849.46215820312</ele>
        <time>2009-06-13T13:42:06Z</time>
      </trkpt>
      <trkpt lat="45.70304" lon="3.00281">
        <ele>849.94287109375</ele>
        <time>2009-06-13T13:42:08Z</time>
      </trkpt>
      <trkpt lat="45.70319" lon="3.00282">
        <ele>850.90405273438</ele>
        <time>2009-06-13T13:42:12Z</time>
      </trkpt>
      <trkpt lat="45.70323" lon="3.00281">
        <ele>850.90405273438</ele>
        <time>2009-06-13T13:42:15Z</time>
      </trkpt>
      <trkpt lat="45.70324" lon="3.0028">
        <ele>850.90405273438</ele>
        <time>2009-06-13T13:42:29Z</time>
      </trkpt>
      <trkpt lat="45.70322" lon="3.0028">
        <ele>850.90405273438</ele>
        <time>2009-06-13T13:42:38Z</time>
      </trkpt>
      <trkpt lat="45.70325" lon="3.0028">
        <ele>850.90405273438</ele>
        <time>2009-06-13T13:42:48Z</time>
      </trkpt>
      <trkpt lat="45.70325" lon="3.00281">
        <ele>851.384765625</ele>
        <time>2009-06-13T13:42:58Z</time>
      </trkpt>
      <trkpt lat="45.70327" lon="3.00279">
        <ele>850.90405273438</ele>
        <time>2009-06-13T13:43:18Z</time>
      </trkpt>
      <trkpt lat="45.70327" lon="3.00279">
        <ele>851.384765625</ele>
        <time>2009-06-13T13:43:26Z</time>
      </trkpt>
      <trkpt lat="45.70329" lon="3.00279">
        <ele>850.42358398438</ele>
        <time>2009-06-13T13:44:10Z</time>
      </trkpt>
      <trkpt lat="45.7033" lon="3.00279">
        <ele>849.94287109375</ele>
        <time>2009-06-13T13:44:29Z</time>
      </trkpt>
      <trkpt lat="45.70331" lon="3.00279">
        <ele>850.90405273438</ele>
        <time>2009-06-13T13:44:57Z</time>
      </trkpt>
      <trkpt lat="45.70332" lon="3.00278">
        <ele>851.384765625</ele>
        <time>2009-06-13T13:45:07Z</time>
      </trkpt>
      <trkpt lat="45.70334" lon="3.0028">
        <ele>850.42358398438</ele>
        <time>2009-06-13T13:45:14Z</time>
      </trkpt>
      <trkpt lat="45.70335" lon="3.0028">
        <ele>850.42358398438</ele>
        <time>2009-06-13T13:45:24Z</time>
      </trkpt>
      <trkpt lat="45.70336" lon="3.00281">
        <ele>849.94287109375</ele>
        <time>2009-06-13T13:45:26Z</time>
      </trkpt>
      <trkpt lat="45.70336" lon="3.00286">
        <ele>850.42358398438</ele>
        <time>2009-06-13T13:45:33Z</time>
      </trkpt>
      <trkpt lat="45.70336" lon="3.00286">
        <ele>850.42358398438</ele>
        <time>2009-06-13T13:45:38Z</time>
      </trkpt>
      <trkpt lat="45.70337" lon="3.00287">
        <ele>849.94287109375</ele>
        <time>2009-06-13T13:45:40Z</time>
      </trkpt>
      <trkpt lat="45.70346" lon="3.00288">
        <ele>850.42358398438</ele>
        <time>2009-06-13T13:45:47Z</time>
      </trkpt>
      <trkpt lat="45.70351" lon="3.00285">
        <ele>850.90405273438</ele>
        <time>2009-06-13T13:45:51Z</time>
      </trkpt>
      <trkpt lat="45.70357" lon="3.00279">
        <ele>850.42358398438</ele>
        <time>2009-06-13T13:45:55Z</time>
      </trkpt>
      <trkpt lat="45.70361" lon="3.00276">
        <ele>850.42358398438</ele>
        <time>2009-06-13T13:45:57Z</time>
      </trkpt>
      <trkpt lat="45.70367" lon="3.00271">
        <ele>850.90405273438</ele>
        <time>2009-06-13T13:46:00Z</time>
      </trkpt>
      <trkpt lat="45.70377" lon="3.00248">
        <ele>852.34594726562</ele>
        <time>2009-06-13T13:46:07Z</time>
      </trkpt>
      <trkpt lat="45.70381" lon="3.00238">
        <ele>853.30737304688</ele>
        <time>2009-06-13T13:46:10Z</time>
      </trkpt>
      <trkpt lat="45.70395" lon="3.00233">
        <ele>856.19116210938</ele>
        <time>2009-06-13T13:46:15Z</time>
      </trkpt>
      <trkpt lat="45.70406" lon="3.00223">
        <ele>857.63330078125</ele>
        <time>2009-06-13T13:46:20Z</time>
      </trkpt>
      <trkpt lat="45.70418" lon="3.00206">
        <ele>860.51733398438</ele>
        <time>2009-06-13T13:46:25Z</time>
      </trkpt>
      <trkpt lat="45.7042" lon="3.00204">
        <ele>861.47875976562</ele>
        <time>2009-06-13T13:46:26Z</time>
      </trkpt>
      <trkpt lat="45.70429" lon="3.00206">
        <ele>862.92065429688</ele>
        <time>2009-06-13T13:46:30Z</time>
      </trkpt>
      <trkpt lat="45.70432" lon="3.00209">
        <ele>863.8818359375</ele>
        <time>2009-06-13T13:46:31Z</time>
      </trkpt>
      <trkpt lat="45.70445" lon="3.00224">
        <ele>865.8046875</ele>
        <time>2009-06-13T13:46:37Z</time>
      </trkpt>
      <trkpt lat="45.70459" lon="3.00237">
        <ele>866.28515625</ele>
        <time>2009-06-13T13:46:44Z</time>
      </trkpt>
      <trkpt lat="45.70477" lon="3.00244">
        <ele>866.28515625</ele>
        <time>2009-06-13T13:46:50Z</time>
      </trkpt>
      <trkpt lat="45.70493" lon="3.00239">
        <ele>866.76586914062</ele>
        <time>2009-06-13T13:46:56Z</time>
      </trkpt>
      <trkpt lat="45.70504" lon="3.00229">
        <ele>867.24658203125</ele>
        <time>2009-06-13T13:47:02Z</time>
      </trkpt>
      <trkpt lat="45.70512" lon="3.00223">
        <ele>867.72705078125</ele>
        <time>2009-06-13T13:47:06Z</time>
      </trkpt>
      <trkpt lat="45.70525" lon="3.00214">
        <ele>868.20776367188</ele>
        <time>2009-06-13T13:47:11Z</time>
      </trkpt>
      <trkpt lat="45.70533" lon="3.00205">
        <ele>868.6884765625</ele>
        <time>2009-06-13T13:47:16Z</time>
      </trkpt>
      <trkpt lat="45.70533" lon="3.00203">
        <ele>868.6884765625</ele>
        <time>2009-06-13T13:47:17Z</time>
      </trkpt>
      <trkpt lat="45.70535" lon="3.00196">
        <ele>869.64990234375</ele>
        <time>2009-06-13T13:47:23Z</time>
      </trkpt>
      <trkpt lat="45.70539" lon="3.00195">
        <ele>870.13037109375</ele>
        <time>2009-06-13T13:47:55Z</time>
      </trkpt>
      <trkpt lat="45.70539" lon="3.00187">
        <ele>870.13037109375</ele>
        <time>2009-06-13T13:47:59Z</time>
      </trkpt>
      <trkpt lat="45.70537" lon="3.0016">
        <ele>870.61108398438</ele>
        <time>2009-06-13T13:48:07Z</time>
      </trkpt>
      <trkpt lat="45.70537" lon="3.00156">
        <ele>870.61108398438</ele>
        <time>2009-06-13T13:48:08Z</time>
      </trkpt>
      <trkpt lat="45.70532" lon="3.00138">
        <ele>871.572265625</ele>
        <time>2009-06-13T13:48:12Z</time>
      </trkpt>
      <trkpt lat="45.70527" lon="3.00127">
        <ele>871.572265625</ele>
        <time>2009-06-13T13:48:14Z</time>
      </trkpt>
      <trkpt lat="45.70517" lon="3.00094">
        <ele>873.9755859375</ele>
        <time>2009-06-13T13:48:20Z</time>
      </trkpt>
      <trkpt lat="45.70514" lon="3.00082">
        <ele>875.89819335938</ele>
        <time>2009-06-13T13:48:25Z</time>
      </trkpt>
      <trkpt lat="45.70511" lon="3.0007">
        <ele>875.89819335938</ele>
        <time>2009-06-13T13:48:30Z</time>
      </trkpt>
      <trkpt lat="45.70506" lon="3.00047">
        <ele>876.85986328125</ele>
        <time>2009-06-13T13:48:37Z</time>
      </trkpt>
      <trkpt lat="45.70502" lon="3.00028">
        <ele>878.3017578125</ele>
        <time>2009-06-13T13:48:42Z</time>
      </trkpt>
      <trkpt lat="45.70502" lon="3.00012">
        <ele>879.26293945312</ele>
        <time>2009-06-13T13:48:47Z</time>
      </trkpt>
      <trkpt lat="45.70503" lon="3.00008">
        <ele>879.26293945312</ele>
        <time>2009-06-13T13:48:48Z</time>
      </trkpt>
      <trkpt lat="45.70498" lon="2.99994">
        <ele>880.705078125</ele>
        <time>2009-06-13T13:48:53Z</time>
      </trkpt>
      <trkpt lat="45.70494" lon="2.99985">
        <ele>882.14697265625</ele>
        <time>2009-06-13T13:48:56Z</time>
      </trkpt>
      <trkpt lat="45.70486" lon="2.99967">
        <ele>883.10815429688</ele>
        <time>2009-06-13T13:49:02Z</time>
      </trkpt>
      <trkpt lat="45.70481" lon="2.99956">
        <ele>883.5888671875</ele>
        <time>2009-06-13T13:49:07Z</time>
      </trkpt>
      <trkpt lat="45.70476" lon="2.99941">
        <ele>883.5888671875</ele>
        <time>2009-06-13T13:49:13Z</time>
      </trkpt>
      <trkpt lat="45.70473" lon="2.99932">
        <ele>884.55029296875</ele>
        <time>2009-06-13T13:49:18Z</time>
      </trkpt>
      <trkpt lat="45.70469" lon="2.99919">
        <ele>885.51147460938</ele>
        <time>2009-06-13T13:49:24Z</time>
      </trkpt>
      <trkpt lat="45.70466" lon="2.99904">
        <ele>885.9921875</ele>
        <time>2009-06-13T13:49:30Z</time>
      </trkpt>
      <trkpt lat="45.70461" lon="2.99892">
        <ele>886.47290039062</ele>
        <time>2009-06-13T13:49:35Z</time>
      </trkpt>
      <trkpt lat="45.70454" lon="2.99875">
        <ele>886.47290039062</ele>
        <time>2009-06-13T13:49:41Z</time>
      </trkpt>
      <trkpt lat="45.70449" lon="2.99865">
        <ele>886.95336914062</ele>
        <time>2009-06-13T13:49:46Z</time>
      </trkpt>
      <trkpt lat="45.70448" lon="2.99863">
        <ele>886.47290039062</ele>
        <time>2009-06-13T13:49:54Z</time>
      </trkpt>
      <trkpt lat="45.70445" lon="2.99859">
        <ele>886.47290039062</ele>
        <time>2009-06-13T13:50:06Z</time>
      </trkpt>
      <trkpt lat="45.7044" lon="2.99851">
        <ele>886.95336914062</ele>
        <time>2009-06-13T13:50:11Z</time>
      </trkpt>
      <trkpt lat="45.70436" lon="2.99841">
        <ele>886.95336914062</ele>
        <time>2009-06-13T13:50:17Z</time>
      </trkpt>
      <trkpt lat="45.70432" lon="2.99836">
        <ele>887.43408203125</ele>
        <time>2009-06-13T13:50:21Z</time>
      </trkpt>
      <trkpt lat="45.70429" lon="2.99825">
        <ele>887.91479492188</ele>
        <time>2009-06-13T13:50:26Z</time>
      </trkpt>
      <trkpt lat="45.70425" lon="2.9981">
        <ele>887.91479492188</ele>
        <time>2009-06-13T13:50:35Z</time>
      </trkpt>
      <trkpt lat="45.7042" lon="2.99797">
        <ele>888.3955078125</ele>
        <time>2009-06-13T13:50:43Z</time>
      </trkpt>
      <trkpt lat="45.70419" lon="2.99789">
        <ele>889.35668945312</ele>
        <time>2009-06-13T13:50:48Z</time>
      </trkpt>
      <trkpt lat="45.70416" lon="2.99777">
        <ele>890.31811523438</ele>
        <time>2009-06-13T13:50:56Z</time>
      </trkpt>
      <trkpt lat="45.70416" lon="2.99775">
        <ele>889.83740234375</ele>
        <time>2009-06-13T13:50:57Z</time>
      </trkpt>
      <trkpt lat="45.70417" lon="2.99764">
        <ele>890.79858398438</ele>
        <time>2009-06-13T13:51:04Z</time>
      </trkpt>
      <trkpt lat="45.70416" lon="2.99762">
        <ele>890.79858398438</ele>
        <time>2009-06-13T13:51:05Z</time>
      </trkpt>
      <trkpt lat="45.70417" lon="2.99756">
        <ele>890.31811523438</ele>
        <time>2009-06-13T13:51:10Z</time>
      </trkpt>
      <trkpt lat="45.70417" lon="2.99741">
        <ele>890.79858398438</ele>
        <time>2009-06-13T13:51:18Z</time>
      </trkpt>
      <trkpt lat="45.70421" lon="2.99732">
        <ele>890.79858398438</ele>
        <time>2009-06-13T13:51:24Z</time>
      </trkpt>
      <trkpt lat="45.70422" lon="2.99726">
        <ele>891.76000976562</ele>
        <time>2009-06-13T13:51:32Z</time>
      </trkpt>
      <trkpt lat="45.70422" lon="2.99722">
        <ele>891.76000976562</ele>
        <time>2009-06-13T13:51:35Z</time>
      </trkpt>
      <trkpt lat="45.7042" lon="2.99714">
        <ele>893.2021484375</ele>
        <time>2009-06-13T13:51:41Z</time>
      </trkpt>
      <trkpt lat="45.70421" lon="2.99709">
        <ele>892.7216796875</ele>
        <time>2009-06-13T13:51:44Z</time>
      </trkpt>
      <trkpt lat="45.7042" lon="2.9969">
        <ele>891.76000976562</ele>
        <time>2009-06-13T13:51:52Z</time>
      </trkpt>
      <trkpt lat="45.70421" lon="2.99674">
        <ele>892.24096679688</ele>
        <time>2009-06-13T13:51:58Z</time>
      </trkpt>
      <trkpt lat="45.70419" lon="2.99658">
        <ele>892.7216796875</ele>
        <time>2009-06-13T13:52:04Z</time>
      </trkpt>
      <trkpt lat="45.70419" lon="2.99643">
        <ele>893.2021484375</ele>
        <time>2009-06-13T13:52:10Z</time>
      </trkpt>
      <trkpt lat="45.7042" lon="2.9964">
        <ele>893.2021484375</ele>
        <time>2009-06-13T13:52:11Z</time>
      </trkpt>
      <trkpt lat="45.70424" lon="2.9962">
        <ele>893.68286132812</ele>
        <time>2009-06-13T13:52:18Z</time>
      </trkpt>
      <trkpt lat="45.70426" lon="2.996">
        <ele>894.64404296875</ele>
        <time>2009-06-13T13:52:24Z</time>
      </trkpt>
      <trkpt lat="45.70429" lon="2.99582">
        <ele>894.16357421875</ele>
        <time>2009-06-13T13:52:30Z</time>
      </trkpt>
      <trkpt lat="45.70429" lon="2.99568">
        <ele>895.60546875</ele>
        <time>2009-06-13T13:52:35Z</time>
      </trkpt>
      <trkpt lat="45.70432" lon="2.99554">
        <ele>896.08618164062</ele>
        <time>2009-06-13T13:52:40Z</time>
      </trkpt>
      <trkpt lat="45.70435" lon="2.99541">
        <ele>896.56689453125</ele>
        <time>2009-06-13T13:52:44Z</time>
      </trkpt>
      <trkpt lat="45.70439" lon="2.99521">
        <ele>898.0087890625</ele>
        <time>2009-06-13T13:52:51Z</time>
      </trkpt>
      <trkpt lat="45.70444" lon="2.99507">
        <ele>897.52807617188</ele>
        <time>2009-06-13T13:52:57Z</time>
      </trkpt>
      <trkpt lat="45.70449" lon="2.99499">
        <ele>898.0087890625</ele>
        <time>2009-06-13T13:53:00Z</time>
      </trkpt>
      <trkpt lat="45.70454" lon="2.99485">
        <ele>898.96997070312</ele>
        <time>2009-06-13T13:53:05Z</time>
      </trkpt>
      <trkpt lat="45.70455" lon="2.99471">
        <ele>898.96997070312</ele>
        <time>2009-06-13T13:53:11Z</time>
      </trkpt>
      <trkpt lat="45.70454" lon="2.99457">
        <ele>899.45068359375</ele>
        <time>2009-06-13T13:53:16Z</time>
      </trkpt>
      <trkpt lat="45.70454" lon="2.99449">
        <ele>899.93139648438</ele>
        <time>2009-06-13T13:53:20Z</time>
      </trkpt>
      <trkpt lat="45.70455" lon="2.99438">
        <ele>899.93139648438</ele>
        <time>2009-06-13T13:53:26Z</time>
      </trkpt>
      <trkpt lat="45.7046" lon="2.99434">
        <ele>898.96997070312</ele>
        <time>2009-06-13T13:53:50Z</time>
      </trkpt>
      <trkpt lat="45.70461" lon="2.99425">
        <ele>900.412109375</ele>
        <time>2009-06-13T13:54:07Z</time>
      </trkpt>
      <trkpt lat="45.70458" lon="2.99412">
        <ele>901.85400390625</ele>
        <time>2009-06-13T13:54:12Z</time>
      </trkpt>
      <trkpt lat="45.70452" lon="2.99384">
        <ele>902.81518554688</ele>
        <time>2009-06-13T13:54:21Z</time>
      </trkpt>
      <trkpt lat="45.70447" lon="2.99355">
        <ele>903.2958984375</ele>
        <time>2009-06-13T13:54:30Z</time>
      </trkpt>
      <trkpt lat="45.70447" lon="2.99332">
        <ele>904.73779296875</ele>
        <time>2009-06-13T13:54:37Z</time>
      </trkpt>
      <trkpt lat="45.70447" lon="2.99311">
        <ele>906.66040039062</ele>
        <time>2009-06-13T13:54:44Z</time>
      </trkpt>
      <trkpt lat="45.70447" lon="2.99289">
        <ele>908.10278320312</ele>
        <time>2009-06-13T13:54:51Z</time>
      </trkpt>
      <trkpt lat="45.70447" lon="2.99269">
        <ele>909.54467773438</ele>
        <time>2009-06-13T13:54:59Z</time>
      </trkpt>
      <trkpt lat="45.70447" lon="2.99257">
        <ele>910.02514648438</ele>
        <time>2009-06-13T13:55:05Z</time>
      </trkpt>
      <trkpt lat="45.70449" lon="2.99243">
        <ele>910.505859375</ele>
        <time>2009-06-13T13:55:12Z</time>
      </trkpt>
      <trkpt lat="45.70449" lon="2.99228">
        <ele>910.98657226562</ele>
        <time>2009-06-13T13:55:18Z</time>
      </trkpt>
      <trkpt lat="45.70446" lon="2.99211">
        <ele>911.94799804688</ele>
        <time>2009-06-13T13:55:26Z</time>
      </trkpt>
      <trkpt lat="45.70443" lon="2.99195">
        <ele>913.38989257812</ele>
        <time>2009-06-13T13:55:33Z</time>
      </trkpt>
      <trkpt lat="45.70443" lon="2.99192">
        <ele>913.38989257812</ele>
        <time>2009-06-13T13:55:34Z</time>
      </trkpt>
      <trkpt lat="45.70441" lon="2.9917">
        <ele>914.35107421875</ele>
        <time>2009-06-13T13:55:42Z</time>
      </trkpt>
      <trkpt lat="45.7044" lon="2.99166">
        <ele>914.35107421875</ele>
        <time>2009-06-13T13:55:44Z</time>
      </trkpt>
      <trkpt lat="45.70438" lon="2.99155">
        <ele>913.87036132812</ele>
        <time>2009-06-13T13:55:51Z</time>
      </trkpt>
      <trkpt lat="45.70436" lon="2.99142">
        <ele>914.83178710938</ele>
        <time>2009-06-13T13:55:57Z</time>
      </trkpt>
      <trkpt lat="45.70435" lon="2.99124">
        <ele>915.3125</ele>
        <time>2009-06-13T13:56:04Z</time>
      </trkpt>
      <trkpt lat="45.70435" lon="2.99122">
        <ele>915.3125</ele>
        <time>2009-06-13T13:56:05Z</time>
      </trkpt>
      <trkpt lat="45.70436" lon="2.99107">
        <ele>915.79321289062</ele>
        <time>2009-06-13T13:56:12Z</time>
      </trkpt>
      <trkpt lat="45.70436" lon="2.99085">
        <ele>917.71557617188</ele>
        <time>2009-06-13T13:56:21Z</time>
      </trkpt>
      <trkpt lat="45.70435" lon="2.99059">
        <ele>918.1962890625</ele>
        <time>2009-06-13T13:56:29Z</time>
      </trkpt>
      <trkpt lat="45.7043" lon="2.99032">
        <ele>918.1962890625</ele>
        <time>2009-06-13T13:56:36Z</time>
      </trkpt>
      <trkpt lat="45.70425" lon="2.99008">
        <ele>918.1962890625</ele>
        <time>2009-06-13T13:56:42Z</time>
      </trkpt>
      <trkpt lat="45.70422" lon="2.98983">
        <ele>919.15771484375</ele>
        <time>2009-06-13T13:56:48Z</time>
      </trkpt>
      <trkpt lat="45.70422" lon="2.98974">
        <ele>919.63842773438</ele>
        <time>2009-06-13T13:56:51Z</time>
      </trkpt>
      <trkpt lat="45.7042" lon="2.9897">
        <ele>919.15771484375</ele>
        <time>2009-06-13T13:56:53Z</time>
      </trkpt>
      <trkpt lat="45.7042" lon="2.98967">
        <ele>919.15771484375</ele>
        <time>2009-06-13T13:56:58Z</time>
      </trkpt>
      <trkpt lat="45.7042" lon="2.98968">
        <ele>920.11889648438</ele>
        <time>2009-06-13T13:57:18Z</time>
      </trkpt>
      <trkpt lat="45.70418" lon="2.98958">
        <ele>919.15771484375</ele>
        <time>2009-06-13T13:57:24Z</time>
      </trkpt>
      <trkpt lat="45.70416" lon="2.98928">
        <ele>919.15771484375</ele>
        <time>2009-06-13T13:57:31Z</time>
      </trkpt>
      <trkpt lat="45.70415" lon="2.98897">
        <ele>919.15771484375</ele>
        <time>2009-06-13T13:57:37Z</time>
      </trkpt>
      <trkpt lat="45.70414" lon="2.98885">
        <ele>919.63842773438</ele>
        <time>2009-06-13T13:57:39Z</time>
      </trkpt>
      <trkpt lat="45.70412" lon="2.98852">
        <ele>920.11889648438</ele>
        <time>2009-06-13T13:57:44Z</time>
      </trkpt>
      <trkpt lat="45.70411" lon="2.98838">
        <ele>921.56079101562</ele>
        <time>2009-06-13T13:57:46Z</time>
      </trkpt>
      <trkpt lat="45.7041" lon="2.98797">
        <ele>920.599609375</ele>
        <time>2009-06-13T13:57:52Z</time>
      </trkpt>
      <trkpt lat="45.70407" lon="2.98737">
        <ele>922.04150390625</ele>
        <time>2009-06-13T13:58:01Z</time>
      </trkpt>
      <trkpt lat="45.70404" lon="2.98709">
        <ele>922.04150390625</ele>
        <time>2009-06-13T13:58:06Z</time>
      </trkpt>
      <trkpt lat="45.70403" lon="2.98677">
        <ele>922.04150390625</ele>
        <time>2009-06-13T13:58:13Z</time>
      </trkpt>
      <trkpt lat="45.70402" lon="2.98652">
        <ele>922.04150390625</ele>
        <time>2009-06-13T13:58:18Z</time>
      </trkpt>
      <trkpt lat="45.70398" lon="2.98608">
        <ele>923.0029296875</ele>
        <time>2009-06-13T13:58:27Z</time>
      </trkpt>
      <trkpt lat="45.70398" lon="2.98589">
        <ele>923.0029296875</ele>
        <time>2009-06-13T13:58:31Z</time>
      </trkpt>
      <trkpt lat="45.70394" lon="2.98556">
        <ele>923.96411132812</ele>
        <time>2009-06-13T13:58:37Z</time>
      </trkpt>
      <trkpt lat="45.7039" lon="2.9853">
        <ele>924.92578125</ele>
        <time>2009-06-13T13:58:42Z</time>
      </trkpt>
      <trkpt lat="45.70381" lon="2.98491">
        <ele>924.44506835938</ele>
        <time>2009-06-13T13:58:50Z</time>
      </trkpt>
      <trkpt lat="45.7038" lon="2.98458">
        <ele>924.92578125</ele>
        <time>2009-06-13T13:58:56Z</time>
      </trkpt>
      <trkpt lat="45.70379" lon="2.98417">
        <ele>924.92578125</ele>
        <time>2009-06-13T13:59:04Z</time>
      </trkpt>
      <trkpt lat="45.70379" lon="2.98386">
        <ele>925.40625</ele>
        <time>2009-06-13T13:59:10Z</time>
      </trkpt>
      <trkpt lat="45.7038" lon="2.98355">
        <ele>925.40625</ele>
        <time>2009-06-13T13:59:17Z</time>
      </trkpt>
      <trkpt lat="45.70377" lon="2.98336">
        <ele>925.88696289062</ele>
        <time>2009-06-13T13:59:22Z</time>
      </trkpt>
      <trkpt lat="45.70371" lon="2.98311">
        <ele>925.88696289062</ele>
        <time>2009-06-13T13:59:29Z</time>
      </trkpt>
      <trkpt lat="45.70368" lon="2.98288">
        <ele>925.88696289062</ele>
        <time>2009-06-13T13:59:35Z</time>
      </trkpt>
      <trkpt lat="45.70367" lon="2.98263">
        <ele>926.36767578125</ele>
        <time>2009-06-13T13:59:42Z</time>
      </trkpt>
      <trkpt lat="45.70367" lon="2.98242">
        <ele>926.84838867188</ele>
        <time>2009-06-13T13:59:50Z</time>
      </trkpt>
      <trkpt lat="45.70363" lon="2.98226">
        <ele>927.8095703125</ele>
        <time>2009-06-13T13:59:58Z</time>
      </trkpt>
      <trkpt lat="45.70361" lon="2.98211">
        <ele>926.84838867188</ele>
        <time>2009-06-13T14:00:04Z</time>
      </trkpt>
      <trkpt lat="45.70359" lon="2.9819">
        <ele>927.3291015625</ele>
        <time>2009-06-13T14:00:10Z</time>
      </trkpt>
      <trkpt lat="45.7036" lon="2.98179">
        <ele>926.84838867188</ele>
        <time>2009-06-13T14:00:13Z</time>
      </trkpt>
      <trkpt lat="45.70361" lon="2.98158">
        <ele>925.88696289062</ele>
        <time>2009-06-13T14:00:18Z</time>
      </trkpt>
      <trkpt lat="45.70361" lon="2.98152">
        <ele>925.40625</ele>
        <time>2009-06-13T14:00:19Z</time>
      </trkpt>
      <trkpt lat="45.70358" lon="2.9813">
        <ele>924.44506835938</ele>
        <time>2009-06-13T14:00:22Z</time>
      </trkpt>
      <trkpt lat="45.70354" lon="2.98104">
        <ele>922.52221679688</ele>
        <time>2009-06-13T14:00:25Z</time>
      </trkpt>
      <trkpt lat="45.70347" lon="2.98075">
        <ele>922.52221679688</ele>
        <time>2009-06-13T14:00:29Z</time>
      </trkpt>
      <trkpt lat="45.70337" lon="2.98042">
        <ele>919.15771484375</ele>
        <time>2009-06-13T14:00:33Z</time>
      </trkpt>
      <trkpt lat="45.70332" lon="2.98023">
        <ele>918.67700195312</ele>
        <time>2009-06-13T14:00:35Z</time>
      </trkpt>
      <trkpt lat="45.70322" lon="2.97974">
        <ele>916.27368164062</ele>
        <time>2009-06-13T14:00:40Z</time>
      </trkpt>
      <trkpt lat="45.70319" lon="2.97944">
        <ele>916.27368164062</ele>
        <time>2009-06-13T14:00:43Z</time>
      </trkpt>
      <trkpt lat="45.70319" lon="2.97913">
        <ele>915.3125</ele>
        <time>2009-06-13T14:00:46Z</time>
      </trkpt>
      <trkpt lat="45.70322" lon="2.97884">
        <ele>915.3125</ele>
        <time>2009-06-13T14:00:49Z</time>
      </trkpt>
      <trkpt lat="45.70322" lon="2.9784">
        <ele>916.27368164062</ele>
        <time>2009-06-13T14:00:54Z</time>
      </trkpt>
      <trkpt lat="45.70322" lon="2.97807">
        <ele>917.23510742188</ele>
        <time>2009-06-13T14:01:00Z</time>
      </trkpt>
      <trkpt lat="45.70324" lon="2.97787">
        <ele>917.71557617188</ele>
        <time>2009-06-13T14:01:06Z</time>
      </trkpt>
      <trkpt lat="45.7033" lon="2.9777">
        <ele>918.67700195312</ele>
        <time>2009-06-13T14:01:11Z</time>
      </trkpt>
      <trkpt lat="45.70333" lon="2.97752">
        <ele>919.15771484375</ele>
        <time>2009-06-13T14:01:18Z</time>
      </trkpt>
      <trkpt lat="45.70332" lon="2.97735">
        <ele>919.15771484375</ele>
        <time>2009-06-13T14:01:24Z</time>
      </trkpt>
      <trkpt lat="45.70336" lon="2.97714">
        <ele>920.11889648438</ele>
        <time>2009-06-13T14:01:31Z</time>
      </trkpt>
      <trkpt lat="45.7034" lon="2.9769">
        <ele>920.599609375</ele>
        <time>2009-06-13T14:01:38Z</time>
      </trkpt>
      <trkpt lat="45.70333" lon="2.97667">
        <ele>923.0029296875</ele>
        <time>2009-06-13T14:01:45Z</time>
      </trkpt>
      <trkpt lat="45.70332" lon="2.9766">
        <ele>923.96411132812</ele>
        <time>2009-06-13T14:01:50Z</time>
      </trkpt>
      <trkpt lat="45.70331" lon="2.97653">
        <ele>924.44506835938</ele>
        <time>2009-06-13T14:01:56Z</time>
      </trkpt>
      <trkpt lat="45.7033" lon="2.97642">
        <ele>925.88696289062</ele>
        <time>2009-06-13T14:02:03Z</time>
      </trkpt>
      <trkpt lat="45.7033" lon="2.97637">
        <ele>926.36767578125</ele>
        <time>2009-06-13T14:02:05Z</time>
      </trkpt>
      <trkpt lat="45.70329" lon="2.97621">
        <ele>927.3291015625</ele>
        <time>2009-06-13T14:02:11Z</time>
      </trkpt>
      <trkpt lat="45.70328" lon="2.97609">
        <ele>928.77099609375</ele>
        <time>2009-06-13T14:02:15Z</time>
      </trkpt>
      <trkpt lat="45.70325" lon="2.97585">
        <ele>930.69360351562</ele>
        <time>2009-06-13T14:02:22Z</time>
      </trkpt>
      <trkpt lat="45.70324" lon="2.97567">
        <ele>931.65478515625</ele>
        <time>2009-06-13T14:02:27Z</time>
      </trkpt>
      <trkpt lat="45.70322" lon="2.97546">
        <ele>933.0966796875</ele>
        <time>2009-06-13T14:02:33Z</time>
      </trkpt>
      <trkpt lat="45.7032" lon="2.97521">
        <ele>935.5</ele>
        <time>2009-06-13T14:02:41Z</time>
      </trkpt>
      <trkpt lat="45.70322" lon="2.97507">
        <ele>936.46142578125</ele>
        <time>2009-06-13T14:02:47Z</time>
      </trkpt>
      <trkpt lat="45.70323" lon="2.97491">
        <ele>937.9033203125</ele>
        <time>2009-06-13T14:02:53Z</time>
      </trkpt>
      <trkpt lat="45.70323" lon="2.97488">
        <ele>937.9033203125</ele>
        <time>2009-06-13T14:02:54Z</time>
      </trkpt>
      <trkpt lat="45.70322" lon="2.97472">
        <ele>940.78735351562</ele>
        <time>2009-06-13T14:03:01Z</time>
      </trkpt>
      <trkpt lat="45.70322" lon="2.9747">
        <ele>940.78735351562</ele>
        <time>2009-06-13T14:03:02Z</time>
      </trkpt>
      <trkpt lat="45.70325" lon="2.97446">
        <ele>943.19067382812</ele>
        <time>2009-06-13T14:03:10Z</time>
      </trkpt>
      <trkpt lat="45.70324" lon="2.97427">
        <ele>944.63256835938</ele>
        <time>2009-06-13T14:03:16Z</time>
      </trkpt>
      <trkpt lat="45.7033" lon="2.97407">
        <ele>947.99731445312</ele>
        <time>2009-06-13T14:03:23Z</time>
      </trkpt>
      <trkpt lat="45.70332" lon="2.97406">
        <ele>947.99731445312</ele>
        <time>2009-06-13T14:03:24Z</time>
      </trkpt>
      <trkpt lat="45.70345" lon="2.97394">
        <ele>950.40063476562</ele>
        <time>2009-06-13T14:03:33Z</time>
      </trkpt>
      <trkpt lat="45.70353" lon="2.97381">
        <ele>953.76513671875</ele>
        <time>2009-06-13T14:03:40Z</time>
      </trkpt>
      <trkpt lat="45.70356" lon="2.97377">
        <ele>954.24584960938</ele>
        <time>2009-06-13T14:03:42Z</time>
      </trkpt>
      <trkpt lat="45.70366" lon="2.97359">
        <ele>955.68774414062</ele>
        <time>2009-06-13T14:03:51Z</time>
      </trkpt>
      <trkpt lat="45.70372" lon="2.97346">
        <ele>956.64916992188</ele>
        <time>2009-06-13T14:03:58Z</time>
      </trkpt>
      <trkpt lat="45.70376" lon="2.97332">
        <ele>959.05249023438</ele>
        <time>2009-06-13T14:04:05Z</time>
      </trkpt>
      <trkpt lat="45.70377" lon="2.97318">
        <ele>960.97509765625</ele>
        <time>2009-06-13T14:04:12Z</time>
      </trkpt>
      <trkpt lat="45.70377" lon="2.97313">
        <ele>960.97509765625</ele>
        <time>2009-06-13T14:04:14Z</time>
      </trkpt>
      <trkpt lat="45.7038" lon="2.973">
        <ele>962.4169921875</ele>
        <time>2009-06-13T14:04:20Z</time>
      </trkpt>
      <trkpt lat="45.70388" lon="2.9729">
        <ele>963.85888671875</ele>
        <time>2009-06-13T14:04:27Z</time>
      </trkpt>
      <trkpt lat="45.70391" lon="2.97287">
        <ele>964.33959960938</ele>
        <time>2009-06-13T14:04:29Z</time>
      </trkpt>
      <trkpt lat="45.70395" lon="2.97276">
        <ele>965.78173828125</ele>
        <time>2009-06-13T14:04:35Z</time>
      </trkpt>
      <trkpt lat="45.70396" lon="2.9727">
        <ele>966.26220703125</ele>
        <time>2009-06-13T14:04:37Z</time>
      </trkpt>
      <trkpt lat="45.70397" lon="2.97259">
        <ele>966.74291992188</ele>
        <time>2009-06-13T14:04:44Z</time>
      </trkpt>
      <trkpt lat="45.70392" lon="2.97259">
        <ele>966.74291992188</ele>
        <time>2009-06-13T14:04:58Z</time>
      </trkpt>
      <trkpt lat="45.70398" lon="2.9726">
        <ele>966.74291992188</ele>
        <time>2009-06-13T14:05:12Z</time>
      </trkpt>
      <trkpt lat="45.70398" lon="2.97255">
        <ele>966.74291992188</ele>
        <time>2009-06-13T14:05:34Z</time>
      </trkpt>
      <trkpt lat="45.70396" lon="2.97252">
        <ele>966.74291992188</ele>
        <time>2009-06-13T14:05:47Z</time>
      </trkpt>
      <trkpt lat="45.70399" lon="2.97256">
        <ele>966.74291992188</ele>
        <time>2009-06-13T14:05:55Z</time>
      </trkpt>
      <trkpt lat="45.70404" lon="2.97261">
        <ele>967.2236328125</ele>
        <time>2009-06-13T14:06:13Z</time>
      </trkpt>
      <trkpt lat="45.70408" lon="2.97261">
        <ele>967.7041015625</ele>
        <time>2009-06-13T14:06:22Z</time>
      </trkpt>
      <trkpt lat="45.70406" lon="2.97262">
        <ele>968.66552734375</ele>
        <time>2009-06-13T14:06:38Z</time>
      </trkpt>
      <trkpt lat="45.70405" lon="2.97261">
        <ele>969.14624023438</ele>
        <time>2009-06-13T14:06:51Z</time>
      </trkpt>
      <trkpt lat="45.70406" lon="2.9726">
        <ele>969.14624023438</ele>
        <time>2009-06-13T14:07:03Z</time>
      </trkpt>
      <trkpt lat="45.70397" lon="2.97252">
        <ele>969.14624023438</ele>
        <time>2009-06-13T14:07:28Z</time>
      </trkpt>
      <trkpt lat="45.70397" lon="2.97252">
        <ele>968.66552734375</ele>
        <time>2009-06-13T14:07:39Z</time>
      </trkpt>
      <trkpt lat="45.70396" lon="2.97251">
        <ele>968.18481445312</ele>
        <time>2009-06-13T14:07:55Z</time>
      </trkpt>
      <trkpt lat="45.70395" lon="2.9725">
        <ele>968.66552734375</ele>
        <time>2009-06-13T14:08:09Z</time>
      </trkpt>
      <trkpt lat="45.70393" lon="2.97248">
        <ele>968.66552734375</ele>
        <time>2009-06-13T14:08:22Z</time>
      </trkpt>
      <trkpt lat="45.70393" lon="2.97246">
        <ele>969.14624023438</ele>
        <time>2009-06-13T14:08:34Z</time>
      </trkpt>
      <trkpt lat="45.70399" lon="2.97248">
        <ele>969.626953125</ele>
        <time>2009-06-13T14:08:49Z</time>
      </trkpt>
      <trkpt lat="45.70403" lon="2.97248">
        <ele>969.626953125</ele>
        <time>2009-06-13T14:08:59Z</time>
      </trkpt>
      <trkpt lat="45.70401" lon="2.97251">
        <ele>969.626953125</ele>
        <time>2009-06-13T14:09:09Z</time>
      </trkpt>
      <trkpt lat="45.704" lon="2.97252">
        <ele>969.626953125</ele>
        <time>2009-06-13T14:09:24Z</time>
      </trkpt>
      <trkpt lat="45.70398" lon="2.97254">
        <ele>970.107421875</ele>
        <time>2009-06-13T14:09:46Z</time>
      </trkpt>
      <trkpt lat="45.70395" lon="2.97251">
        <ele>970.58813476562</ele>
        <time>2009-06-13T14:09:54Z</time>
      </trkpt>
      <trkpt lat="45.70395" lon="2.97252">
        <ele>970.58813476562</ele>
        <time>2009-06-13T14:10:03Z</time>
      </trkpt>
      <trkpt lat="45.70397" lon="2.97252">
        <ele>970.58813476562</ele>
        <time>2009-06-13T14:10:16Z</time>
      </trkpt>
      <trkpt lat="45.70398" lon="2.97252">
        <ele>970.107421875</ele>
        <time>2009-06-13T14:10:21Z</time>
      </trkpt>
      <trkpt lat="45.70398" lon="2.97246">
        <ele>969.626953125</ele>
        <time>2009-06-13T14:10:38Z</time>
      </trkpt>
      <trkpt lat="45.70396" lon="2.97242">
        <ele>969.626953125</ele>
        <time>2009-06-13T14:10:51Z</time>
      </trkpt>
      <trkpt lat="45.70396" lon="2.9724">
        <ele>969.626953125</ele>
        <time>2009-06-13T14:10:52Z</time>
      </trkpt>
      <trkpt lat="45.70399" lon="2.97236">
        <ele>970.58813476562</ele>
        <time>2009-06-13T14:10:57Z</time>
      </trkpt>
      <trkpt lat="45.70408" lon="2.97232">
        <ele>972.0302734375</ele>
        <time>2009-06-13T14:11:04Z</time>
      </trkpt>
      <trkpt lat="45.70416" lon="2.9723">
        <ele>972.0302734375</ele>
        <time>2009-06-13T14:11:09Z</time>
      </trkpt>
      <trkpt lat="45.70424" lon="2.97221">
        <ele>972.99169921875</ele>
        <time>2009-06-13T14:11:14Z</time>
      </trkpt>
      <trkpt lat="45.70433" lon="2.97206">
        <ele>973.47241210938</ele>
        <time>2009-06-13T14:11:20Z</time>
      </trkpt>
      <trkpt lat="45.70441" lon="2.97189">
        <ele>973.95288085938</ele>
        <time>2009-06-13T14:11:27Z</time>
      </trkpt>
      <trkpt lat="45.70451" lon="2.97171">
        <ele>974.43359375</ele>
        <time>2009-06-13T14:11:34Z</time>
      </trkpt>
      <trkpt lat="45.7046" lon="2.9716">
        <ele>974.91430664062</ele>
        <time>2009-06-13T14:11:40Z</time>
      </trkpt>
      <trkpt lat="45.70472" lon="2.97147">
        <ele>974.91430664062</ele>
        <time>2009-06-13T14:11:46Z</time>
      </trkpt>
      <trkpt lat="45.7048" lon="2.97136">
        <ele>974.91430664062</ele>
        <time>2009-06-13T14:11:51Z</time>
      </trkpt>
      <trkpt lat="45.70496" lon="2.97124">
        <ele>975.39477539062</ele>
        <time>2009-06-13T14:11:58Z</time>
      </trkpt>
      <trkpt lat="45.70513" lon="2.9712">
        <ele>974.43359375</ele>
        <time>2009-06-13T14:12:03Z</time>
      </trkpt>
      <trkpt lat="45.70541" lon="2.97107">
        <ele>972.0302734375</ele>
        <time>2009-06-13T14:12:08Z</time>
      </trkpt>
      <trkpt lat="45.70564" lon="2.97086">
        <ele>972.0302734375</ele>
        <time>2009-06-13T14:12:13Z</time>
      </trkpt>
      <trkpt lat="45.70582" lon="2.97082">
        <ele>971.06884765625</ele>
        <time>2009-06-13T14:12:17Z</time>
      </trkpt>
      <trkpt lat="45.70599" lon="2.97079">
        <ele>971.06884765625</ele>
        <time>2009-06-13T14:12:21Z</time>
      </trkpt>
      <trkpt lat="45.70605" lon="2.97066">
        <ele>970.58813476562</ele>
        <time>2009-06-13T14:12:27Z</time>
      </trkpt>
      <trkpt lat="45.7061" lon="2.97061">
        <ele>970.107421875</ele>
        <time>2009-06-13T14:12:30Z</time>
      </trkpt>
      <trkpt lat="45.70619" lon="2.97066">
        <ele>970.107421875</ele>
        <time>2009-06-13T14:12:36Z</time>
      </trkpt>
      <trkpt lat="45.70636" lon="2.97074">
        <ele>969.14624023438</ele>
        <time>2009-06-13T14:12:44Z</time>
      </trkpt>
      <trkpt lat="45.70652" lon="2.97075">
        <ele>967.7041015625</ele>
        <time>2009-06-13T14:12:50Z</time>
      </trkpt>
      <trkpt lat="45.7067" lon="2.97073">
        <ele>966.74291992188</ele>
        <time>2009-06-13T14:12:55Z</time>
      </trkpt>
      <trkpt lat="45.70708" lon="2.9706">
        <ele>965.30102539062</ele>
        <time>2009-06-13T14:13:04Z</time>
      </trkpt>
      <trkpt lat="45.70713" lon="2.9706">
        <ele>965.78173828125</ele>
        <time>2009-06-13T14:13:05Z</time>
      </trkpt>
      <trkpt lat="45.70727" lon="2.97061">
        <ele>965.30102539062</ele>
        <time>2009-06-13T14:13:08Z</time>
      </trkpt>
      <trkpt lat="45.70751" lon="2.97074">
        <ele>964.33959960938</ele>
        <time>2009-06-13T14:13:14Z</time>
      </trkpt>
      <trkpt lat="45.70759" lon="2.97079">
        <ele>963.85888671875</ele>
        <time>2009-06-13T14:13:16Z</time>
      </trkpt>
      <trkpt lat="45.70787" lon="2.97106">
        <ele>963.37841796875</ele>
        <time>2009-06-13T14:13:24Z</time>
      </trkpt>
      <trkpt lat="45.70803" lon="2.97127">
        <ele>963.85888671875</ele>
        <time>2009-06-13T14:13:31Z</time>
      </trkpt>
      <trkpt lat="45.70805" lon="2.9713">
        <ele>963.85888671875</ele>
        <time>2009-06-13T14:13:32Z</time>
      </trkpt>
      <trkpt lat="45.70813" lon="2.97135">
        <ele>964.33959960938</ele>
        <time>2009-06-13T14:13:36Z</time>
      </trkpt>
      <trkpt lat="45.70828" lon="2.97153">
        <ele>965.30102539062</ele>
        <time>2009-06-13T14:13:44Z</time>
      </trkpt>
      <trkpt lat="45.70839" lon="2.97165">
        <ele>966.26220703125</ele>
        <time>2009-06-13T14:13:49Z</time>
      </trkpt>
      <trkpt lat="45.70851" lon="2.97185">
        <ele>967.2236328125</ele>
        <time>2009-06-13T14:13:56Z</time>
      </trkpt>
      <trkpt lat="45.70854" lon="2.9719">
        <ele>968.18481445312</ele>
        <time>2009-06-13T14:13:59Z</time>
      </trkpt>
      <trkpt lat="45.70868" lon="2.97197">
        <ele>967.2236328125</ele>
        <time>2009-06-13T14:14:05Z</time>
      </trkpt>
      <trkpt lat="45.70881" lon="2.97204">
        <ele>968.18481445312</ele>
        <time>2009-06-13T14:14:10Z</time>
      </trkpt>
      <trkpt lat="45.70894" lon="2.97209">
        <ele>967.2236328125</ele>
        <time>2009-06-13T14:14:14Z</time>
      </trkpt>
      <trkpt lat="45.7091" lon="2.97215">
        <ele>965.30102539062</ele>
        <time>2009-06-13T14:14:17Z</time>
      </trkpt>
      <trkpt lat="45.70928" lon="2.97221">
        <ele>962.89770507812</ele>
        <time>2009-06-13T14:14:20Z</time>
      </trkpt>
      <trkpt lat="45.70948" lon="2.97225">
        <ele>961.45581054688</ele>
        <time>2009-06-13T14:14:23Z</time>
      </trkpt>
      <trkpt lat="45.70988" lon="2.97229">
        <ele>961.45581054688</ele>
        <time>2009-06-13T14:14:29Z</time>
      </trkpt>
      <trkpt lat="45.71014" lon="2.97239">
        <ele>961.45581054688</ele>
        <time>2009-06-13T14:14:34Z</time>
      </trkpt>
      <trkpt lat="45.7103" lon="2.97242">
        <ele>962.4169921875</ele>
        <time>2009-06-13T14:14:39Z</time>
      </trkpt>
      <trkpt lat="45.71056" lon="2.97244">
        <ele>962.89770507812</ele>
        <time>2009-06-13T14:14:47Z</time>
      </trkpt>
      <trkpt lat="45.71073" lon="2.97246">
        <ele>964.33959960938</ele>
        <time>2009-06-13T14:14:51Z</time>
      </trkpt>
      <trkpt lat="45.7109" lon="2.97248">
        <ele>965.30102539062</ele>
        <time>2009-06-13T14:14:56Z</time>
      </trkpt>
      <trkpt lat="45.71107" lon="2.97249">
        <ele>966.26220703125</ele>
        <time>2009-06-13T14:15:02Z</time>
      </trkpt>
      <trkpt lat="45.71116" lon="2.97245">
        <ele>966.26220703125</ele>
        <time>2009-06-13T14:15:05Z</time>
      </trkpt>
      <trkpt lat="45.71134" lon="2.97239">
        <ele>963.85888671875</ele>
        <time>2009-06-13T14:15:09Z</time>
      </trkpt>
      <trkpt lat="45.71149" lon="2.97237">
        <ele>963.85888671875</ele>
        <time>2009-06-13T14:15:12Z</time>
      </trkpt>
      <trkpt lat="45.71167" lon="2.97231">
        <ele>963.37841796875</ele>
        <time>2009-06-13T14:15:16Z</time>
      </trkpt>
      <trkpt lat="45.71196" lon="2.97214">
        <ele>964.33959960938</ele>
        <time>2009-06-13T14:15:23Z</time>
      </trkpt>
      <trkpt lat="45.71199" lon="2.97213">
        <ele>963.85888671875</ele>
        <time>2009-06-13T14:15:24Z</time>
      </trkpt>
      <trkpt lat="45.71214" lon="2.97192">
        <ele>964.33959960938</ele>
        <time>2009-06-13T14:15:29Z</time>
      </trkpt>
      <trkpt lat="45.71225" lon="2.97176">
        <ele>964.33959960938</ele>
        <time>2009-06-13T14:15:34Z</time>
      </trkpt>
      <trkpt lat="45.7124" lon="2.97164">
        <ele>965.30102539062</ele>
        <time>2009-06-13T14:15:38Z</time>
      </trkpt>
      <trkpt lat="45.71251" lon="2.97156">
        <ele>964.8203125</ele>
        <time>2009-06-13T14:15:41Z</time>
      </trkpt>
      <trkpt lat="45.7126" lon="2.97152">
        <ele>965.78173828125</ele>
        <time>2009-06-13T14:15:43Z</time>
      </trkpt>
      <trkpt lat="45.71276" lon="2.97149">
        <ele>965.30102539062</ele>
        <time>2009-06-13T14:15:46Z</time>
      </trkpt>
      <trkpt lat="45.71297" lon="2.97141">
        <ele>966.74291992188</ele>
        <time>2009-06-13T14:15:51Z</time>
      </trkpt>
      <trkpt lat="45.71305" lon="2.97135">
        <ele>966.74291992188</ele>
        <time>2009-06-13T14:15:53Z</time>
      </trkpt>
      <trkpt lat="45.7133" lon="2.97125">
        <ele>968.18481445312</ele>
        <time>2009-06-13T14:15:59Z</time>
      </trkpt>
      <trkpt lat="45.71348" lon="2.97119">
        <ele>966.74291992188</ele>
        <time>2009-06-13T14:16:04Z</time>
      </trkpt>
      <trkpt lat="45.71371" lon="2.97124">
        <ele>962.89770507812</ele>
        <time>2009-06-13T14:16:08Z</time>
      </trkpt>
      <trkpt lat="45.71392" lon="2.97137">
        <ele>961.45581054688</ele>
        <time>2009-06-13T14:16:11Z</time>
      </trkpt>
      <trkpt lat="45.71423" lon="2.97145">
        <ele>958.09130859375</ele>
        <time>2009-06-13T14:16:15Z</time>
      </trkpt>
      <trkpt lat="45.71472" lon="2.97117">
        <ele>953.76513671875</ele>
        <time>2009-06-13T14:16:21Z</time>
      </trkpt>
      <trkpt lat="45.71489" lon="2.97108">
        <ele>953.28442382812</ele>
        <time>2009-06-13T14:16:23Z</time>
      </trkpt>
      <trkpt lat="45.71529" lon="2.97111">
        <ele>951.36181640625</ele>
        <time>2009-06-13T14:16:27Z</time>
      </trkpt>
      <trkpt lat="45.71556" lon="2.97125">
        <ele>949.43920898438</ele>
        <time>2009-06-13T14:16:30Z</time>
      </trkpt>
      <trkpt lat="45.71572" lon="2.97116">
        <ele>949.919921875</ele>
        <time>2009-06-13T14:16:33Z</time>
      </trkpt>
      <trkpt lat="45.71581" lon="2.97088">
        <ele>948.47778320312</ele>
        <time>2009-06-13T14:16:36Z</time>
      </trkpt>
      <trkpt lat="45.71579" lon="2.97078">
        <ele>947.99731445312</ele>
        <time>2009-06-13T14:16:37Z</time>
      </trkpt>
      <trkpt lat="45.71579" lon="2.97056">
        <ele>947.5166015625</ele>
        <time>2009-06-13T14:16:39Z</time>
      </trkpt>
      <trkpt lat="45.71589" lon="2.97031">
        <ele>946.07470703125</ele>
        <time>2009-06-13T14:16:42Z</time>
      </trkpt>
      <trkpt lat="45.71605" lon="2.97019">
        <ele>945.11328125</ele>
        <time>2009-06-13T14:16:45Z</time>
      </trkpt>
      <trkpt lat="45.71642" lon="2.97011">
        <ele>945.59399414062</ele>
        <time>2009-06-13T14:16:52Z</time>
      </trkpt>
      <trkpt lat="45.71679" lon="2.97009">
        <ele>946.07470703125</ele>
        <time>2009-06-13T14:17:00Z</time>
      </trkpt>
      <trkpt lat="45.71694" lon="2.97008">
        <ele>946.07470703125</ele>
        <time>2009-06-13T14:17:03Z</time>
      </trkpt>
      <trkpt lat="45.71714" lon="2.97009">
        <ele>946.07470703125</ele>
        <time>2009-06-13T14:17:07Z</time>
      </trkpt>
      <trkpt lat="45.71763" lon="2.97013">
        <ele>945.11328125</ele>
        <time>2009-06-13T14:17:16Z</time>
      </trkpt>
      <trkpt lat="45.71806" lon="2.9702">
        <ele>946.55541992188</ele>
        <time>2009-06-13T14:17:24Z</time>
      </trkpt>
      <trkpt lat="45.71812" lon="2.97021">
        <ele>946.55541992188</ele>
        <time>2009-06-13T14:17:25Z</time>
      </trkpt>
      <trkpt lat="45.71822" lon="2.97024">
        <ele>946.55541992188</ele>
        <time>2009-06-13T14:17:27Z</time>
      </trkpt>
      <trkpt lat="45.71864" lon="2.97036">
        <ele>947.03588867188</ele>
        <time>2009-06-13T14:17:35Z</time>
      </trkpt>
      <trkpt lat="45.71906" lon="2.97047">
        <ele>947.5166015625</ele>
        <time>2009-06-13T14:17:43Z</time>
      </trkpt>
      <trkpt lat="45.71916" lon="2.97049">
        <ele>948.95849609375</ele>
        <time>2009-06-13T14:17:45Z</time>
      </trkpt>
      <trkpt lat="45.71953" lon="2.97059">
        <ele>950.40063476562</ele>
        <time>2009-06-13T14:17:53Z</time>
      </trkpt>
      <trkpt lat="45.71984" lon="2.97069">
        <ele>951.84252929688</ele>
        <time>2009-06-13T14:18:01Z</time>
      </trkpt>
      <trkpt lat="45.71994" lon="2.97074">
        <ele>952.8037109375</ele>
        <time>2009-06-13T14:18:04Z</time>
      </trkpt>
      <trkpt lat="45.72011" lon="2.97088">
        <ele>954.24584960938</ele>
        <time>2009-06-13T14:18:10Z</time>
      </trkpt>
      <trkpt lat="45.7202" lon="2.9709">
        <ele>954.72631835938</ele>
        <time>2009-06-13T14:18:16Z</time>
      </trkpt>
      <trkpt lat="45.72022" lon="2.97091">
        <ele>954.24584960938</ele>
        <time>2009-06-13T14:18:21Z</time>
      </trkpt>
      <trkpt lat="45.72023" lon="2.97091">
        <ele>953.76513671875</ele>
        <time>2009-06-13T14:18:31Z</time>
      </trkpt>
      <trkpt lat="45.72027" lon="2.97092">
        <ele>954.24584960938</ele>
        <time>2009-06-13T14:18:36Z</time>
      </trkpt>
      <trkpt lat="45.72035" lon="2.97094">
        <ele>955.20703125</ele>
        <time>2009-06-13T14:18:43Z</time>
      </trkpt>
      <trkpt lat="45.72037" lon="2.97093">
        <ele>955.20703125</ele>
        <time>2009-06-13T14:18:45Z</time>
      </trkpt>
      <trkpt lat="45.72042" lon="2.97093">
        <ele>955.20703125</ele>
        <time>2009-06-13T14:18:50Z</time>
      </trkpt>
      <trkpt lat="45.72054" lon="2.97099">
        <ele>955.68774414062</ele>
        <time>2009-06-13T14:18:57Z</time>
      </trkpt>
      <trkpt lat="45.72064" lon="2.97104">
        <ele>955.68774414062</ele>
        <time>2009-06-13T14:19:03Z</time>
      </trkpt>
      <trkpt lat="45.72081" lon="2.97109">
        <ele>955.68774414062</ele>
        <time>2009-06-13T14:19:12Z</time>
      </trkpt>
      <trkpt lat="45.72093" lon="2.97111">
        <ele>955.68774414062</ele>
        <time>2009-06-13T14:19:18Z</time>
      </trkpt>
      <trkpt lat="45.72112" lon="2.97117">
        <ele>957.1298828125</ele>
        <time>2009-06-13T14:19:26Z</time>
      </trkpt>
      <trkpt lat="45.7213" lon="2.97122">
        <ele>957.61059570312</ele>
        <time>2009-06-13T14:19:33Z</time>
      </trkpt>
      <trkpt lat="45.7215" lon="2.97127">
        <ele>957.61059570312</ele>
        <time>2009-06-13T14:19:41Z</time>
      </trkpt>
      <trkpt lat="45.72166" lon="2.97133">
        <ele>958.57177734375</ele>
        <time>2009-06-13T14:19:48Z</time>
      </trkpt>
      <trkpt lat="45.72186" lon="2.97138">
        <ele>959.533203125</ele>
        <time>2009-06-13T14:19:55Z</time>
      </trkpt>
      <trkpt lat="45.72205" lon="2.97141">
        <ele>959.533203125</ele>
        <time>2009-06-13T14:20:02Z</time>
      </trkpt>
      <trkpt lat="45.72221" lon="2.97145">
        <ele>959.05249023438</ele>
        <time>2009-06-13T14:20:08Z</time>
      </trkpt>
      <trkpt lat="45.72238" lon="2.97149">
        <ele>960.97509765625</ele>
        <time>2009-06-13T14:20:14Z</time>
      </trkpt>
      <trkpt lat="45.72251" lon="2.97154">
        <ele>960.97509765625</ele>
        <time>2009-06-13T14:20:19Z</time>
      </trkpt>
      <trkpt lat="45.72264" lon="2.97161">
        <ele>961.9365234375</ele>
        <time>2009-06-13T14:20:24Z</time>
      </trkpt>
      <trkpt lat="45.7228" lon="2.97165">
        <ele>961.9365234375</ele>
        <time>2009-06-13T14:20:31Z</time>
      </trkpt>
      <trkpt lat="45.72296" lon="2.97169">
        <ele>963.37841796875</ele>
        <time>2009-06-13T14:20:37Z</time>
      </trkpt>
      <trkpt lat="45.72302" lon="2.97172">
        <ele>962.89770507812</ele>
        <time>2009-06-13T14:20:40Z</time>
      </trkpt>
      <trkpt lat="45.72315" lon="2.97174">
        <ele>963.37841796875</ele>
        <time>2009-06-13T14:20:45Z</time>
      </trkpt>
      <trkpt lat="45.72333" lon="2.97181">
        <ele>963.85888671875</ele>
        <time>2009-06-13T14:20:51Z</time>
      </trkpt>
      <trkpt lat="45.72353" lon="2.97192">
        <ele>965.30102539062</ele>
        <time>2009-06-13T14:20:57Z</time>
      </trkpt>
      <trkpt lat="45.72367" lon="2.97199">
        <ele>964.8203125</ele>
        <time>2009-06-13T14:21:02Z</time>
      </trkpt>
      <trkpt lat="45.72372" lon="2.97201">
        <ele>964.8203125</ele>
        <time>2009-06-13T14:21:04Z</time>
      </trkpt>
      <trkpt lat="45.72389" lon="2.97205">
        <ele>965.30102539062</ele>
        <time>2009-06-13T14:21:10Z</time>
      </trkpt>
      <trkpt lat="45.72405" lon="2.9721">
        <ele>965.30102539062</ele>
        <time>2009-06-13T14:21:16Z</time>
      </trkpt>
      <trkpt lat="45.72421" lon="2.97216">
        <ele>966.74291992188</ele>
        <time>2009-06-13T14:21:22Z</time>
      </trkpt>
      <trkpt lat="45.72438" lon="2.97216">
        <ele>966.26220703125</ele>
        <time>2009-06-13T14:21:27Z</time>
      </trkpt>
      <trkpt lat="45.72466" lon="2.97214">
        <ele>967.2236328125</ele>
        <time>2009-06-13T14:21:35Z</time>
      </trkpt>
      <trkpt lat="45.72486" lon="2.97207">
        <ele>967.7041015625</ele>
        <time>2009-06-13T14:21:41Z</time>
      </trkpt>
      <trkpt lat="45.72501" lon="2.97207">
        <ele>967.7041015625</ele>
        <time>2009-06-13T14:21:46Z</time>
      </trkpt>
      <trkpt lat="45.72509" lon="2.97206">
        <ele>967.7041015625</ele>
        <time>2009-06-13T14:21:50Z</time>
      </trkpt>
      <trkpt lat="45.7252" lon="2.97199">
        <ele>967.7041015625</ele>
        <time>2009-06-13T14:21:55Z</time>
      </trkpt>
      <trkpt lat="45.72536" lon="2.97193">
        <ele>968.18481445312</ele>
        <time>2009-06-13T14:22:00Z</time>
      </trkpt>
      <trkpt lat="45.72551" lon="2.9718">
        <ele>968.66552734375</ele>
        <time>2009-06-13T14:22:05Z</time>
      </trkpt>
      <trkpt lat="45.72564" lon="2.97172">
        <ele>968.66552734375</ele>
        <time>2009-06-13T14:22:10Z</time>
      </trkpt>
      <trkpt lat="45.72577" lon="2.97168">
        <ele>969.626953125</ele>
        <time>2009-06-13T14:22:15Z</time>
      </trkpt>
      <trkpt lat="45.72601" lon="2.97168">
        <ele>970.107421875</ele>
        <time>2009-06-13T14:22:23Z</time>
      </trkpt>
      <trkpt lat="45.72618" lon="2.97169">
        <ele>971.54931640625</ele>
        <time>2009-06-13T14:22:29Z</time>
      </trkpt>
      <trkpt lat="45.72643" lon="2.9717">
        <ele>971.06884765625</ele>
        <time>2009-06-13T14:22:37Z</time>
      </trkpt>
      <trkpt lat="45.7266" lon="2.97165">
        <ele>971.54931640625</ele>
        <time>2009-06-13T14:22:42Z</time>
      </trkpt>
      <trkpt lat="45.72682" lon="2.97151">
        <ele>971.54931640625</ele>
        <time>2009-06-13T14:22:49Z</time>
      </trkpt>
      <trkpt lat="45.72701" lon="2.97143">
        <ele>972.0302734375</ele>
        <time>2009-06-13T14:22:55Z</time>
      </trkpt>
      <trkpt lat="45.72721" lon="2.97135">
        <ele>972.51098632812</ele>
        <time>2009-06-13T14:23:01Z</time>
      </trkpt>
      <trkpt lat="45.7274" lon="2.97122">
        <ele>972.99169921875</ele>
        <time>2009-06-13T14:23:08Z</time>
      </trkpt>
      <trkpt lat="45.72757" lon="2.97109">
        <ele>973.47241210938</ele>
        <time>2009-06-13T14:23:13Z</time>
      </trkpt>
      <trkpt lat="45.72773" lon="2.97097">
        <ele>973.47241210938</ele>
        <time>2009-06-13T14:23:18Z</time>
      </trkpt>
      <trkpt lat="45.72792" lon="2.97087">
        <ele>973.95288085938</ele>
        <time>2009-06-13T14:23:23Z</time>
      </trkpt>
      <trkpt lat="45.72814" lon="2.97083">
        <ele>973.95288085938</ele>
        <time>2009-06-13T14:23:29Z</time>
      </trkpt>
      <trkpt lat="45.7284" lon="2.97085">
        <ele>974.43359375</ele>
        <time>2009-06-13T14:23:36Z</time>
      </trkpt>
      <trkpt lat="45.72865" lon="2.97086">
        <ele>974.91430664062</ele>
        <time>2009-06-13T14:23:42Z</time>
      </trkpt>
      <trkpt lat="45.72892" lon="2.97089">
        <ele>974.91430664062</ele>
        <time>2009-06-13T14:23:49Z</time>
      </trkpt>
      <trkpt lat="45.72925" lon="2.97092">
        <ele>975.87548828125</ele>
        <time>2009-06-13T14:23:58Z</time>
      </trkpt>
      <trkpt lat="45.72942" lon="2.97084">
        <ele>976.8369140625</ele>
        <time>2009-06-13T14:24:03Z</time>
      </trkpt>
      <trkpt lat="45.7296" lon="2.9707">
        <ele>975.87548828125</ele>
        <time>2009-06-13T14:24:08Z</time>
      </trkpt>
      <trkpt lat="45.72987" lon="2.97039">
        <ele>975.87548828125</ele>
        <time>2009-06-13T14:24:16Z</time>
      </trkpt>
      <trkpt lat="45.72999" lon="2.97028">
        <ele>975.39477539062</ele>
        <time>2009-06-13T14:24:20Z</time>
      </trkpt>
      <trkpt lat="45.73007" lon="2.97023">
        <ele>975.39477539062</ele>
        <time>2009-06-13T14:24:22Z</time>
      </trkpt>
      <trkpt lat="45.73033" lon="2.97023">
        <ele>975.87548828125</ele>
        <time>2009-06-13T14:24:28Z</time>
      </trkpt>
      <trkpt lat="45.73074" lon="2.97036">
        <ele>976.35620117188</ele>
        <time>2009-06-13T14:24:38Z</time>
      </trkpt>
      <trkpt lat="45.73098" lon="2.9705">
        <ele>976.8369140625</ele>
        <time>2009-06-13T14:24:45Z</time>
      </trkpt>
      <trkpt lat="45.73111" lon="2.97061">
        <ele>977.79809570312</ele>
        <time>2009-06-13T14:24:49Z</time>
      </trkpt>
      <trkpt lat="45.73137" lon="2.97086">
        <ele>977.79809570312</ele>
        <time>2009-06-13T14:24:57Z</time>
      </trkpt>
      <trkpt lat="45.73168" lon="2.97108">
        <ele>977.31762695312</ele>
        <time>2009-06-13T14:25:06Z</time>
      </trkpt>
      <trkpt lat="45.73175" lon="2.9711">
        <ele>977.79809570312</ele>
        <time>2009-06-13T14:25:08Z</time>
      </trkpt>
      <trkpt lat="45.73192" lon="2.97097">
        <ele>977.79809570312</ele>
        <time>2009-06-13T14:25:14Z</time>
      </trkpt>
      <trkpt lat="45.73209" lon="2.97091">
        <ele>978.75952148438</ele>
        <time>2009-06-13T14:25:20Z</time>
      </trkpt>
      <trkpt lat="45.73221" lon="2.97089">
        <ele>980.20141601562</ele>
        <time>2009-06-13T14:25:25Z</time>
      </trkpt>
      <trkpt lat="45.73225" lon="2.97089">
        <ele>980.68212890625</ele>
        <time>2009-06-13T14:25:29Z</time>
      </trkpt>
      <trkpt lat="45.73225" lon="2.97092">
        <ele>980.20141601562</ele>
        <time>2009-06-13T14:25:36Z</time>
      </trkpt>
      <trkpt lat="45.73224" lon="2.97094">
        <ele>980.68212890625</ele>
        <time>2009-06-13T14:25:58Z</time>
      </trkpt>
      <trkpt lat="45.73225" lon="2.97091">
        <ele>981.16284179688</ele>
        <time>2009-06-13T14:26:21Z</time>
      </trkpt>
      <trkpt lat="45.73225" lon="2.97091">
        <ele>981.16284179688</ele>
        <time>2009-06-13T14:26:32Z</time>
      </trkpt>
      <trkpt lat="45.73225" lon="2.97092">
        <ele>980.68212890625</ele>
        <time>2009-06-13T14:26:55Z</time>
      </trkpt>
      <trkpt lat="45.73225" lon="2.97092">
        <ele>980.20141601562</ele>
        <time>2009-06-13T14:27:04Z</time>
      </trkpt>
      <trkpt lat="45.73226" lon="2.97091">
        <ele>980.20141601562</ele>
        <time>2009-06-13T14:27:12Z</time>
      </trkpt>
      <trkpt lat="45.73226" lon="2.97093">
        <ele>979.23999023438</ele>
        <time>2009-06-13T14:27:23Z</time>
      </trkpt>
      <trkpt lat="45.73225" lon="2.97096">
        <ele>979.23999023438</ele>
        <time>2009-06-13T14:27:27Z</time>
      </trkpt>
      <trkpt lat="45.73225" lon="2.97096">
        <ele>980.20141601562</ele>
        <time>2009-06-13T14:27:42Z</time>
      </trkpt>
      <trkpt lat="45.73224" lon="2.97091">
        <ele>980.20141601562</ele>
        <time>2009-06-13T14:28:08Z</time>
      </trkpt>
      <trkpt lat="45.73223" lon="2.97092">
        <ele>979.720703125</ele>
        <time>2009-06-13T14:28:18Z</time>
      </trkpt>
      <trkpt lat="45.73235" lon="2.97088">
        <ele>979.720703125</ele>
        <time>2009-06-13T14:28:25Z</time>
      </trkpt>
      <trkpt lat="45.73251" lon="2.97078">
        <ele>979.720703125</ele>
        <time>2009-06-13T14:28:31Z</time>
      </trkpt>
      <trkpt lat="45.73273" lon="2.9706">
        <ele>980.68212890625</ele>
        <time>2009-06-13T14:28:39Z</time>
      </trkpt>
      <trkpt lat="45.73292" lon="2.97032">
        <ele>980.68212890625</ele>
        <time>2009-06-13T14:28:47Z</time>
      </trkpt>
      <trkpt lat="45.73308" lon="2.9701">
        <ele>981.16284179688</ele>
        <time>2009-06-13T14:28:53Z</time>
      </trkpt>
      <trkpt lat="45.73334" lon="2.96978">
        <ele>982.60473632812</ele>
        <time>2009-06-13T14:29:03Z</time>
      </trkpt>
      <trkpt lat="45.73349" lon="2.96963">
        <ele>983.08520507812</ele>
        <time>2009-06-13T14:29:09Z</time>
      </trkpt>
      <trkpt lat="45.73375" lon="2.9694">
        <ele>983.08520507812</ele>
        <time>2009-06-13T14:29:18Z</time>
      </trkpt>
      <trkpt lat="45.73402" lon="2.9691">
        <ele>985.00805664062</ele>
        <time>2009-06-13T14:29:28Z</time>
      </trkpt>
      <trkpt lat="45.73428" lon="2.9688">
        <ele>985.00805664062</ele>
        <time>2009-06-13T14:29:37Z</time>
      </trkpt>
      <trkpt lat="45.7345" lon="2.96853">
        <ele>985.96923828125</ele>
        <time>2009-06-13T14:29:45Z</time>
      </trkpt>
      <trkpt lat="45.73472" lon="2.96829">
        <ele>986.44995117188</ele>
        <time>2009-06-13T14:29:53Z</time>
      </trkpt>
      <trkpt lat="45.73489" lon="2.96805">
        <ele>987.4111328125</ele>
        <time>2009-06-13T14:30:00Z</time>
      </trkpt>
      <trkpt lat="45.73508" lon="2.96767">
        <ele>988.853515625</ele>
        <time>2009-06-13T14:30:10Z</time>
      </trkpt>
      <trkpt lat="45.73521" lon="2.96744">
        <ele>988.37280273438</ele>
        <time>2009-06-13T14:30:17Z</time>
      </trkpt>
      <trkpt lat="45.73536" lon="2.96721">
        <ele>989.333984375</ele>
        <time>2009-06-13T14:30:24Z</time>
      </trkpt>
      <trkpt lat="45.73552" lon="2.96699">
        <ele>989.81469726562</ele>
        <time>2009-06-13T14:30:31Z</time>
      </trkpt>
      <trkpt lat="45.73571" lon="2.96671">
        <ele>989.81469726562</ele>
        <time>2009-06-13T14:30:39Z</time>
      </trkpt>
      <trkpt lat="45.73596" lon="2.9664">
        <ele>990.29541015625</ele>
        <time>2009-06-13T14:30:48Z</time>
      </trkpt>
      <trkpt lat="45.73613" lon="2.96623">
        <ele>990.77587890625</ele>
        <time>2009-06-13T14:30:54Z</time>
      </trkpt>
      <trkpt lat="45.73628" lon="2.96612">
        <ele>991.7373046875</ele>
        <time>2009-06-13T14:30:59Z</time>
      </trkpt>
      <trkpt lat="45.73646" lon="2.96592">
        <ele>992.69873046875</ele>
        <time>2009-06-13T14:31:05Z</time>
      </trkpt>
      <trkpt lat="45.73663" lon="2.96566">
        <ele>993.17919921875</ele>
        <time>2009-06-13T14:31:11Z</time>
      </trkpt>
      <trkpt lat="45.73695" lon="2.96525">
        <ele>993.17919921875</ele>
        <time>2009-06-13T14:31:21Z</time>
      </trkpt>
      <trkpt lat="45.73714" lon="2.96507">
        <ele>994.140625</ele>
        <time>2009-06-13T14:31:27Z</time>
      </trkpt>
      <trkpt lat="45.73718" lon="2.96499">
        <ele>994.62109375</ele>
        <time>2009-06-13T14:31:31Z</time>
      </trkpt>
      <trkpt lat="45.73716" lon="2.96499">
        <ele>995.10180664062</ele>
        <time>2009-06-13T14:31:36Z</time>
      </trkpt>
      <trkpt lat="45.73716" lon="2.96499">
        <ele>994.62109375</ele>
        <time>2009-06-13T14:31:45Z</time>
      </trkpt>
      <trkpt lat="45.73717" lon="2.96498">
        <ele>994.140625</ele>
        <time>2009-06-13T14:31:58Z</time>
      </trkpt>
      <trkpt lat="45.73717" lon="2.96497">
        <ele>994.62109375</ele>
        <time>2009-06-13T14:32:22Z</time>
      </trkpt>
      <trkpt lat="45.73716" lon="2.96496">
        <ele>994.62109375</ele>
        <time>2009-06-13T14:32:44Z</time>
      </trkpt>
      <trkpt lat="45.73717" lon="2.96497">
        <ele>994.140625</ele>
        <time>2009-06-13T14:32:53Z</time>
      </trkpt>
      <trkpt lat="45.73718" lon="2.96499">
        <ele>994.62109375</ele>
        <time>2009-06-13T14:33:10Z</time>
      </trkpt>
      <trkpt lat="45.73719" lon="2.96501">
        <ele>994.140625</ele>
        <time>2009-06-13T14:33:32Z</time>
      </trkpt>
      <trkpt lat="45.73717" lon="2.96501">
        <ele>993.65991210938</ele>
        <time>2009-06-13T14:33:48Z</time>
      </trkpt>
      <trkpt lat="45.73717" lon="2.965">
        <ele>993.17919921875</ele>
        <time>2009-06-13T14:34:00Z</time>
      </trkpt>
      <trkpt lat="45.73714" lon="2.96499">
        <ele>993.17919921875</ele>
        <time>2009-06-13T14:34:10Z</time>
      </trkpt>
      <trkpt lat="45.73713" lon="2.96497">
        <ele>993.65991210938</ele>
        <time>2009-06-13T14:34:12Z</time>
      </trkpt>
      <trkpt lat="45.73703" lon="2.96488">
        <ele>993.65991210938</ele>
        <time>2009-06-13T14:34:19Z</time>
      </trkpt>
      <trkpt lat="45.73692" lon="2.96481">
        <ele>994.140625</ele>
        <time>2009-06-13T14:34:25Z</time>
      </trkpt>
      <trkpt lat="45.73686" lon="2.96476">
        <ele>994.140625</ele>
        <time>2009-06-13T14:34:31Z</time>
      </trkpt>
      <trkpt lat="45.73683" lon="2.96475">
        <ele>994.140625</ele>
        <time>2009-06-13T14:34:33Z</time>
      </trkpt>
      <trkpt lat="45.73671" lon="2.96468">
        <ele>994.140625</ele>
        <time>2009-06-13T14:34:39Z</time>
      </trkpt>
      <trkpt lat="45.73655" lon="2.96458">
        <ele>995.10180664062</ele>
        <time>2009-06-13T14:34:45Z</time>
      </trkpt>
      <trkpt lat="45.73631" lon="2.96442">
        <ele>995.58251953125</ele>
        <time>2009-06-13T14:34:53Z</time>
      </trkpt>
      <trkpt lat="45.73602" lon="2.96424">
        <ele>996.5439453125</ele>
        <time>2009-06-13T14:35:02Z</time>
      </trkpt>
      <trkpt lat="45.73589" lon="2.96414">
        <ele>996.5439453125</ele>
        <time>2009-06-13T14:35:07Z</time>
      </trkpt>
      <trkpt lat="45.73575" lon="2.96404">
        <ele>997.0244140625</ele>
        <time>2009-06-13T14:35:13Z</time>
      </trkpt>
      <trkpt lat="45.7356" lon="2.96395">
        <ele>996.5439453125</ele>
        <time>2009-06-13T14:35:18Z</time>
      </trkpt>
      <trkpt lat="45.73541" lon="2.96384">
        <ele>997.50512695312</ele>
        <time>2009-06-13T14:35:25Z</time>
      </trkpt>
      <trkpt lat="45.73529" lon="2.96377">
        <ele>997.50512695312</ele>
        <time>2009-06-13T14:35:30Z</time>
      </trkpt>
      <trkpt lat="45.73508" lon="2.96367">
        <ele>997.98583984375</ele>
        <time>2009-06-13T14:35:37Z</time>
      </trkpt>
      <trkpt lat="45.73491" lon="2.96359">
        <ele>997.98583984375</ele>
        <time>2009-06-13T14:35:43Z</time>
      </trkpt>
      <trkpt lat="45.73461" lon="2.96348">
        <ele>997.98583984375</ele>
        <time>2009-06-13T14:35:53Z</time>
      </trkpt>
      <trkpt lat="45.73444" lon="2.96339">
        <ele>997.50512695312</ele>
        <time>2009-06-13T14:35:59Z</time>
      </trkpt>
      <trkpt lat="45.73429" lon="2.96333">
        <ele>997.98583984375</ele>
        <time>2009-06-13T14:36:05Z</time>
      </trkpt>
      <trkpt lat="45.73414" lon="2.96328">
        <ele>997.98583984375</ele>
        <time>2009-06-13T14:36:10Z</time>
      </trkpt>
      <trkpt lat="45.73399" lon="2.96324">
        <ele>998.94702148438</ele>
        <time>2009-06-13T14:36:15Z</time>
      </trkpt>
      <trkpt lat="45.73381" lon="2.96316">
        <ele>999.90844726562</ele>
        <time>2009-06-13T14:36:21Z</time>
      </trkpt>
      <trkpt lat="45.73358" lon="2.96305">
        <ele>999.427734375</ele>
        <time>2009-06-13T14:36:29Z</time>
      </trkpt>
      <trkpt lat="45.73344" lon="2.96295">
        <ele>1000.3891601562</ele>
        <time>2009-06-13T14:36:34Z</time>
      </trkpt>
      <trkpt lat="45.73318" lon="2.96285">
        <ele>1000.8696289062</ele>
        <time>2009-06-13T14:36:42Z</time>
      </trkpt>
      <trkpt lat="45.73299" lon="2.96277">
        <ele>1002.3115234375</ele>
        <time>2009-06-13T14:36:48Z</time>
      </trkpt>
      <trkpt lat="45.7327" lon="2.96257">
        <ele>1003.2729492188</ele>
        <time>2009-06-13T14:36:59Z</time>
      </trkpt>
      <trkpt lat="45.73257" lon="2.96248">
        <ele>1003.7536621094</ele>
        <time>2009-06-13T14:37:04Z</time>
      </trkpt>
      <trkpt lat="45.73237" lon="2.96234">
        <ele>1004.2346191406</ele>
        <time>2009-06-13T14:37:12Z</time>
      </trkpt>
      <trkpt lat="45.73212" lon="2.96217">
        <ele>1005.6765136719</ele>
        <time>2009-06-13T14:37:21Z</time>
      </trkpt>
      <trkpt lat="45.73194" lon="2.96204">
        <ele>1006.6376953125</ele>
        <time>2009-06-13T14:37:28Z</time>
      </trkpt>
      <trkpt lat="45.73177" lon="2.9619">
        <ele>1007.5991210938</ele>
        <time>2009-06-13T14:37:35Z</time>
      </trkpt>
      <trkpt lat="45.73161" lon="2.96179">
        <ele>1008.5603027344</ele>
        <time>2009-06-13T14:37:41Z</time>
      </trkpt>
      <trkpt lat="45.73146" lon="2.96167">
        <ele>1009.041015625</ele>
        <time>2009-06-13T14:37:47Z</time>
      </trkpt>
      <trkpt lat="45.73126" lon="2.96156">
        <ele>1010.4829101562</ele>
        <time>2009-06-13T14:37:54Z</time>
      </trkpt>
      <trkpt lat="45.73111" lon="2.96159">
        <ele>1011.9250488281</ele>
        <time>2009-06-13T14:38:00Z</time>
      </trkpt>
      <trkpt lat="45.73094" lon="2.96155">
        <ele>1011.9250488281</ele>
        <time>2009-06-13T14:38:06Z</time>
      </trkpt>
      <trkpt lat="45.73083" lon="2.96146">
        <ele>1012.8862304688</ele>
        <time>2009-06-13T14:38:11Z</time>
      </trkpt>
      <trkpt lat="45.73071" lon="2.9614">
        <ele>1014.328125</ele>
        <time>2009-06-13T14:38:17Z</time>
      </trkpt>
      <trkpt lat="45.73063" lon="2.96133">
        <ele>1016.2507324219</ele>
        <time>2009-06-13T14:38:22Z</time>
      </trkpt>
      <trkpt lat="45.73053" lon="2.96126">
        <ele>1017.6926269531</ele>
        <time>2009-06-13T14:38:28Z</time>
      </trkpt>
      <trkpt lat="45.73045" lon="2.96118">
        <ele>1018.6540527344</ele>
        <time>2009-06-13T14:38:34Z</time>
      </trkpt>
      <trkpt lat="45.73035" lon="2.96109">
        <ele>1020.0961914062</ele>
        <time>2009-06-13T14:38:39Z</time>
      </trkpt>
      <trkpt lat="45.73033" lon="2.96102">
        <ele>1021.0576171875</ele>
        <time>2009-06-13T14:38:42Z</time>
      </trkpt>
      <trkpt lat="45.7303" lon="2.961">
        <ele>1022.0187988281</ele>
        <time>2009-06-13T14:38:44Z</time>
      </trkpt>
      <trkpt lat="45.7302" lon="2.96093">
        <ele>1023.4609375</ele>
        <time>2009-06-13T14:38:49Z</time>
      </trkpt>
      <trkpt lat="45.73015" lon="2.96083">
        <ele>1023.94140625</ele>
        <time>2009-06-13T14:38:54Z</time>
      </trkpt>
      <trkpt lat="45.73012" lon="2.9608">
        <ele>1023.94140625</ele>
        <time>2009-06-13T14:38:56Z</time>
      </trkpt>
      <trkpt lat="45.73007" lon="2.96065">
        <ele>1025.3833007812</ele>
        <time>2009-06-13T14:39:02Z</time>
      </trkpt>
      <trkpt lat="45.73003" lon="2.96054">
        <ele>1026.3447265625</ele>
        <time>2009-06-13T14:39:08Z</time>
      </trkpt>
      <trkpt lat="45.73003" lon="2.96052">
        <ele>1026.3447265625</ele>
        <time>2009-06-13T14:39:09Z</time>
      </trkpt>
      <trkpt lat="45.72997" lon="2.96032">
        <ele>1028.2673339844</ele>
        <time>2009-06-13T14:39:17Z</time>
      </trkpt>
      <trkpt lat="45.72994" lon="2.96022">
        <ele>1028.748046875</ele>
        <time>2009-06-13T14:39:21Z</time>
      </trkpt>
      <trkpt lat="45.72987" lon="2.96012">
        <ele>1029.228515625</ele>
        <time>2009-06-13T14:39:25Z</time>
      </trkpt>
      <trkpt lat="45.7298" lon="2.96002">
        <ele>1030.1899414062</ele>
        <time>2009-06-13T14:39:30Z</time>
      </trkpt>
      <trkpt lat="45.72971" lon="2.95993">
        <ele>1031.6318359375</ele>
        <time>2009-06-13T14:39:34Z</time>
      </trkpt>
      <trkpt lat="45.72961" lon="2.95982">
        <ele>1032.5932617188</ele>
        <time>2009-06-13T14:39:39Z</time>
      </trkpt>
      <trkpt lat="45.72949" lon="2.95968">
        <ele>1033.5544433594</ele>
        <time>2009-06-13T14:39:45Z</time>
      </trkpt>
      <trkpt lat="45.72936" lon="2.95957">
        <ele>1034.5158691406</ele>
        <time>2009-06-13T14:39:51Z</time>
      </trkpt>
      <trkpt lat="45.72922" lon="2.95945">
        <ele>1035.9577636719</ele>
        <time>2009-06-13T14:39:57Z</time>
      </trkpt>
      <trkpt lat="45.72917" lon="2.95941">
        <ele>1037.3999023438</ele>
        <time>2009-06-13T14:39:59Z</time>
      </trkpt>
      <trkpt lat="45.72911" lon="2.95933">
        <ele>1038.361328125</ele>
        <time>2009-06-13T14:40:04Z</time>
      </trkpt>
      <trkpt lat="45.72907" lon="2.95929">
        <ele>1039.3225097656</ele>
        <time>2009-06-13T14:40:06Z</time>
      </trkpt>
      <trkpt lat="45.72893" lon="2.95916">
        <ele>1040.7644042969</ele>
        <time>2009-06-13T14:40:14Z</time>
      </trkpt>
      <trkpt lat="45.72884" lon="2.9591">
        <ele>1042.2065429688</ele>
        <time>2009-06-13T14:40:18Z</time>
      </trkpt>
      <trkpt lat="45.72871" lon="2.95896">
        <ele>1042.6872558594</ele>
        <time>2009-06-13T14:40:25Z</time>
      </trkpt>
      <trkpt lat="45.72865" lon="2.95883">
        <ele>1044.6096191406</ele>
        <time>2009-06-13T14:40:30Z</time>
      </trkpt>
      <trkpt lat="45.72863" lon="2.95881">
        <ele>1044.6096191406</ele>
        <time>2009-06-13T14:40:31Z</time>
      </trkpt>
      <trkpt lat="45.7286" lon="2.95877">
        <ele>1044.1291503906</ele>
        <time>2009-06-13T14:40:33Z</time>
      </trkpt>
      <trkpt lat="45.72853" lon="2.95867">
        <ele>1045.0903320312</ele>
        <time>2009-06-13T14:40:38Z</time>
      </trkpt>
      <trkpt lat="45.72848" lon="2.95846">
        <ele>1046.5324707031</ele>
        <time>2009-06-13T14:40:44Z</time>
      </trkpt>
      <trkpt lat="45.72844" lon="2.95834">
        <ele>1047.9743652344</ele>
        <time>2009-06-13T14:40:48Z</time>
      </trkpt>
      <trkpt lat="45.72837" lon="2.95814">
        <ele>1048.935546875</ele>
        <time>2009-06-13T14:40:54Z</time>
      </trkpt>
      <trkpt lat="45.7283" lon="2.95801">
        <ele>1049.8969726562</ele>
        <time>2009-06-13T14:40:59Z</time>
      </trkpt>
      <trkpt lat="45.72822" lon="2.9579">
        <ele>1050.3776855469</ele>
        <time>2009-06-13T14:41:04Z</time>
      </trkpt>
      <trkpt lat="45.72812" lon="2.95774">
        <ele>1051.3388671875</ele>
        <time>2009-06-13T14:41:10Z</time>
      </trkpt>
      <trkpt lat="45.72803" lon="2.95762">
        <ele>1051.8195800781</ele>
        <time>2009-06-13T14:41:16Z</time>
      </trkpt>
      <trkpt lat="45.72792" lon="2.95747">
        <ele>1052.7810058594</ele>
        <time>2009-06-13T14:41:22Z</time>
      </trkpt>
      <trkpt lat="45.72783" lon="2.95735">
        <ele>1053.7424316406</ele>
        <time>2009-06-13T14:41:27Z</time>
      </trkpt>
      <trkpt lat="45.72773" lon="2.95724">
        <ele>1054.2231445312</ele>
        <time>2009-06-13T14:41:32Z</time>
      </trkpt>
      <trkpt lat="45.72764" lon="2.95709">
        <ele>1054.7036132812</ele>
        <time>2009-06-13T14:41:37Z</time>
      </trkpt>
      <trkpt lat="45.72752" lon="2.95691">
        <ele>1055.1843261719</ele>
        <time>2009-06-13T14:41:43Z</time>
      </trkpt>
      <trkpt lat="45.72741" lon="2.95677">
        <ele>1056.1455078125</ele>
        <time>2009-06-13T14:41:48Z</time>
      </trkpt>
      <trkpt lat="45.72729" lon="2.95664">
        <ele>1056.6262207031</ele>
        <time>2009-06-13T14:41:53Z</time>
      </trkpt>
      <trkpt lat="45.72715" lon="2.95651">
        <ele>1057.1069335938</ele>
        <time>2009-06-13T14:41:59Z</time>
      </trkpt>
      <trkpt lat="45.72698" lon="2.95647">
        <ele>1057.5876464844</ele>
        <time>2009-06-13T14:42:04Z</time>
      </trkpt>
      <trkpt lat="45.72684" lon="2.95647">
        <ele>1057.5876464844</ele>
        <time>2009-06-13T14:42:09Z</time>
      </trkpt>
      <trkpt lat="45.72667" lon="2.95645">
        <ele>1057.5876464844</ele>
        <time>2009-06-13T14:42:14Z</time>
      </trkpt>
      <trkpt lat="45.72655" lon="2.95647">
        <ele>1057.5876464844</ele>
        <time>2009-06-13T14:42:18Z</time>
      </trkpt>
      <trkpt lat="45.72644" lon="2.95645">
        <ele>1057.5876464844</ele>
        <time>2009-06-13T14:42:23Z</time>
      </trkpt>
      <trkpt lat="45.72638" lon="2.95645">
        <ele>1057.5876464844</ele>
        <time>2009-06-13T14:42:28Z</time>
      </trkpt>
      <trkpt lat="45.72636" lon="2.95646">
        <ele>1057.5876464844</ele>
        <time>2009-06-13T14:42:30Z</time>
      </trkpt>
      <trkpt lat="45.72633" lon="2.95645">
        <ele>1058.068359375</ele>
        <time>2009-06-13T14:42:32Z</time>
      </trkpt>
      <trkpt lat="45.72625" lon="2.95645">
        <ele>1058.068359375</ele>
        <time>2009-06-13T14:42:37Z</time>
      </trkpt>
      <trkpt lat="45.72613" lon="2.95641">
        <ele>1059.0295410156</ele>
        <time>2009-06-13T14:42:44Z</time>
      </trkpt>
      <trkpt lat="45.72602" lon="2.95641">
        <ele>1059.5102539062</ele>
        <time>2009-06-13T14:42:51Z</time>
      </trkpt>
      <trkpt lat="45.726" lon="2.95641">
        <ele>1059.9907226562</ele>
        <time>2009-06-13T14:42:53Z</time>
      </trkpt>
      <trkpt lat="45.72593" lon="2.95638">
        <ele>1060.4714355469</ele>
        <time>2009-06-13T14:42:59Z</time>
      </trkpt>
      <trkpt lat="45.72589" lon="2.95636">
        <ele>1060.4714355469</ele>
        <time>2009-06-13T14:43:03Z</time>
      </trkpt>
      <trkpt lat="45.72575" lon="2.95626">
        <ele>1060.9521484375</ele>
        <time>2009-06-13T14:43:10Z</time>
      </trkpt>
      <trkpt lat="45.72567" lon="2.9562">
        <ele>1061.4328613281</ele>
        <time>2009-06-13T14:43:14Z</time>
      </trkpt>
      <trkpt lat="45.72551" lon="2.95607">
        <ele>1062.8747558594</ele>
        <time>2009-06-13T14:43:21Z</time>
      </trkpt>
      <trkpt lat="45.7254" lon="2.95599">
        <ele>1063.35546875</ele>
        <time>2009-06-13T14:43:26Z</time>
      </trkpt>
      <trkpt lat="45.72526" lon="2.95586">
        <ele>1063.35546875</ele>
        <time>2009-06-13T14:43:32Z</time>
      </trkpt>
      <trkpt lat="45.72514" lon="2.95572">
        <ele>1064.3166503906</ele>
        <time>2009-06-13T14:43:38Z</time>
      </trkpt>
      <trkpt lat="45.72502" lon="2.95557">
        <ele>1065.2780761719</ele>
        <time>2009-06-13T14:43:44Z</time>
      </trkpt>
      <trkpt lat="45.72491" lon="2.95545">
        <ele>1065.7587890625</ele>
        <time>2009-06-13T14:43:49Z</time>
      </trkpt>
      <trkpt lat="45.72481" lon="2.95534">
        <ele>1066.7199707031</ele>
        <time>2009-06-13T14:43:54Z</time>
      </trkpt>
      <trkpt lat="45.72467" lon="2.95522">
        <ele>1067.6811523438</ele>
        <time>2009-06-13T14:44:00Z</time>
      </trkpt>
      <trkpt lat="45.72452" lon="2.95508">
        <ele>1068.162109375</ele>
        <time>2009-06-13T14:44:06Z</time>
      </trkpt>
      <trkpt lat="45.7244" lon="2.95497">
        <ele>1069.1235351562</ele>
        <time>2009-06-13T14:44:11Z</time>
      </trkpt>
      <trkpt lat="45.72431" lon="2.95481">
        <ele>1070.0847167969</ele>
        <time>2009-06-13T14:44:16Z</time>
      </trkpt>
      <trkpt lat="45.7242" lon="2.95468">
        <ele>1070.5654296875</ele>
        <time>2009-06-13T14:44:21Z</time>
      </trkpt>
      <trkpt lat="45.72404" lon="2.95443">
        <ele>1072.4880371094</ele>
        <time>2009-06-13T14:44:30Z</time>
      </trkpt>
      <trkpt lat="45.7239" lon="2.95427">
        <ele>1074.4106445312</ele>
        <time>2009-06-13T14:44:36Z</time>
      </trkpt>
      <trkpt lat="45.72374" lon="2.95406">
        <ele>1075.8525390625</ele>
        <time>2009-06-13T14:44:43Z</time>
      </trkpt>
      <trkpt lat="45.72364" lon="2.95393">
        <ele>1077.2946777344</ele>
        <time>2009-06-13T14:44:49Z</time>
      </trkpt>
      <trkpt lat="45.72362" lon="2.95391">
        <ele>1078.255859375</ele>
        <time>2009-06-13T14:44:50Z</time>
      </trkpt>
      <trkpt lat="45.7235" lon="2.95374">
        <ele>1079.2170410156</ele>
        <time>2009-06-13T14:44:56Z</time>
      </trkpt>
      <trkpt lat="45.72339" lon="2.95361">
        <ele>1080.1784667969</ele>
        <time>2009-06-13T14:45:01Z</time>
      </trkpt>
      <trkpt lat="45.72335" lon="2.95356">
        <ele>1081.1398925781</ele>
        <time>2009-06-13T14:45:03Z</time>
      </trkpt>
      <trkpt lat="45.72319" lon="2.95341">
        <ele>1082.5817871094</ele>
        <time>2009-06-13T14:45:09Z</time>
      </trkpt>
      <trkpt lat="45.72301" lon="2.95324">
        <ele>1083.54296875</ele>
        <time>2009-06-13T14:45:16Z</time>
      </trkpt>
      <trkpt lat="45.72286" lon="2.95305">
        <ele>1084.5046386719</ele>
        <time>2009-06-13T14:45:23Z</time>
      </trkpt>
      <trkpt lat="45.72275" lon="2.95291">
        <ele>1086.4272460938</ele>
        <time>2009-06-13T14:45:28Z</time>
      </trkpt>
      <trkpt lat="45.72262" lon="2.95272">
        <ele>1086.9077148438</ele>
        <time>2009-06-13T14:45:34Z</time>
      </trkpt>
      <trkpt lat="45.72257" lon="2.95266">
        <ele>1087.3884277344</ele>
        <time>2009-06-13T14:45:36Z</time>
      </trkpt>
      <trkpt lat="45.72236" lon="2.95251">
        <ele>1088.8305664062</ele>
        <time>2009-06-13T14:45:44Z</time>
      </trkpt>
      <trkpt lat="45.72222" lon="2.95238">
        <ele>1089.3110351562</ele>
        <time>2009-06-13T14:45:50Z</time>
      </trkpt>
      <trkpt lat="45.72214" lon="2.95222">
        <ele>1089.7917480469</ele>
        <time>2009-06-13T14:45:55Z</time>
      </trkpt>
      <trkpt lat="45.7221" lon="2.95215">
        <ele>1090.2724609375</ele>
        <time>2009-06-13T14:45:58Z</time>
      </trkpt>
      <trkpt lat="45.72206" lon="2.95211">
        <ele>1090.7529296875</ele>
        <time>2009-06-13T14:46:03Z</time>
      </trkpt>
      <trkpt lat="45.72205" lon="2.95211">
        <ele>1091.2336425781</ele>
        <time>2009-06-13T14:46:10Z</time>
      </trkpt>
      <trkpt lat="45.72208" lon="2.95221">
        <ele>1090.7529296875</ele>
        <time>2009-06-13T14:46:31Z</time>
      </trkpt>
      <trkpt lat="45.72211" lon="2.95225">
        <ele>1091.2336425781</ele>
        <time>2009-06-13T14:46:45Z</time>
      </trkpt>
      <trkpt lat="45.72217" lon="2.95232">
        <ele>1091.2336425781</ele>
        <time>2009-06-13T14:46:56Z</time>
      </trkpt>
      <trkpt lat="45.72219" lon="2.95237">
        <ele>1091.7143554688</ele>
        <time>2009-06-13T14:47:09Z</time>
      </trkpt>
      <trkpt lat="45.72214" lon="2.9523">
        <ele>1092.67578125</ele>
        <time>2009-06-13T14:47:42Z</time>
      </trkpt>
      <trkpt lat="45.72211" lon="2.95224">
        <ele>1093.15625</ele>
        <time>2009-06-13T14:48:11Z</time>
      </trkpt>
      <trkpt lat="45.72214" lon="2.95231">
        <ele>1093.15625</ele>
        <time>2009-06-13T14:48:45Z</time>
      </trkpt>
      <trkpt lat="45.7221" lon="2.95225">
        <ele>1095.5595703125</ele>
        <time>2009-06-13T14:49:53Z</time>
      </trkpt>
      <trkpt lat="45.72209" lon="2.95224">
        <ele>1096.0402832031</ele>
        <time>2009-06-13T14:50:03Z</time>
      </trkpt>
      <trkpt lat="45.72213" lon="2.95238">
        <ele>1096.5209960938</ele>
        <time>2009-06-13T14:51:11Z</time>
      </trkpt>
      <trkpt lat="45.7221" lon="2.95236">
        <ele>1097.0014648438</ele>
        <time>2009-06-13T14:51:40Z</time>
      </trkpt>
      <trkpt lat="45.72208" lon="2.95223">
        <ele>1097.962890625</ele>
        <time>2009-06-13T14:52:08Z</time>
      </trkpt>
      <trkpt lat="45.72208" lon="2.95221">
        <ele>1098.443359375</ele>
        <time>2009-06-13T14:52:33Z</time>
      </trkpt>
      <trkpt lat="45.72209" lon="2.95233">
        <ele>1099.8854980469</ele>
        <time>2009-06-13T14:53:36Z</time>
      </trkpt>
      <trkpt lat="45.72211" lon="2.95239">
        <ele>1099.8854980469</ele>
        <time>2009-06-13T14:53:55Z</time>
      </trkpt>
      <trkpt lat="45.7221" lon="2.95235">
        <ele>1100.3664550781</ele>
        <time>2009-06-13T14:54:04Z</time>
      </trkpt>
      <trkpt lat="45.72206" lon="2.95225">
        <ele>1100.8469238281</ele>
        <time>2009-06-13T14:54:29Z</time>
      </trkpt>
      <trkpt lat="45.72206" lon="2.95225">
        <ele>1100.8469238281</ele>
        <time>2009-06-13T14:54:52Z</time>
      </trkpt>
      <trkpt lat="45.72207" lon="2.95229">
        <ele>1100.8469238281</ele>
        <time>2009-06-13T14:55:08Z</time>
      </trkpt>
      <trkpt lat="45.72213" lon="2.95233">
        <ele>1101.8083496094</ele>
        <time>2009-06-13T14:56:37Z</time>
      </trkpt>
      <trkpt lat="45.7221" lon="2.95234">
        <ele>1102.76953125</ele>
        <time>2009-06-13T14:57:17Z</time>
      </trkpt>
      <trkpt lat="45.72207" lon="2.95228">
        <ele>1103.7309570312</ele>
        <time>2009-06-13T14:57:38Z</time>
      </trkpt>
      <trkpt lat="45.72208" lon="2.95228">
        <ele>1103.7309570312</ele>
        <time>2009-06-13T14:57:51Z</time>
      </trkpt>
      <trkpt lat="45.72204" lon="2.95224">
        <ele>1103.7309570312</ele>
        <time>2009-06-13T14:58:46Z</time>
      </trkpt>
      <trkpt lat="45.72202" lon="2.95217">
        <ele>1103.2502441406</ele>
        <time>2009-06-13T14:59:09Z</time>
      </trkpt>
      <trkpt lat="45.72201" lon="2.95211">
        <ele>1103.7309570312</ele>
        <time>2009-06-13T14:59:22Z</time>
      </trkpt>
      <trkpt lat="45.72199" lon="2.95205">
        <ele>1104.2116699219</ele>
        <time>2009-06-13T14:59:37Z</time>
      </trkpt>
      <trkpt lat="45.72198" lon="2.95203">
        <ele>1103.7309570312</ele>
        <time>2009-06-13T14:59:51Z</time>
      </trkpt>
      <trkpt lat="45.72198" lon="2.95202">
        <ele>1103.7309570312</ele>
        <time>2009-06-13T15:00:12Z</time>
      </trkpt>
      <trkpt lat="45.72198" lon="2.952">
        <ele>1103.2502441406</ele>
        <time>2009-06-13T15:00:26Z</time>
      </trkpt>
      <trkpt lat="45.722" lon="2.952">
        <ele>1102.76953125</ele>
        <time>2009-06-13T15:00:50Z</time>
      </trkpt>
      <trkpt lat="45.722" lon="2.95198">
        <ele>1102.76953125</ele>
        <time>2009-06-13T15:01:03Z</time>
      </trkpt>
      <trkpt lat="45.72198" lon="2.95205">
        <ele>1102.2888183594</ele>
        <time>2009-06-13T15:01:38Z</time>
      </trkpt>
      <trkpt lat="45.72198" lon="2.95206">
        <ele>1102.2888183594</ele>
        <time>2009-06-13T15:01:58Z</time>
      </trkpt>
      <trkpt lat="45.72199" lon="2.95204">
        <ele>1100.8469238281</ele>
        <time>2009-06-13T15:02:37Z</time>
      </trkpt>
      <trkpt lat="45.722" lon="2.95206">
        <ele>1100.8469238281</ele>
        <time>2009-06-13T15:03:03Z</time>
      </trkpt>
      <trkpt lat="45.722" lon="2.95218">
        <ele>1100.3664550781</ele>
        <time>2009-06-13T15:04:01Z</time>
      </trkpt>
      <trkpt lat="45.722" lon="2.95217">
        <ele>1100.8469238281</ele>
        <time>2009-06-13T15:04:27Z</time>
      </trkpt>
      <trkpt lat="45.72202" lon="2.95226">
        <ele>1099.4047851562</ele>
        <time>2009-06-13T15:05:20Z</time>
      </trkpt>
      <trkpt lat="45.72202" lon="2.95217">
        <ele>1100.3664550781</ele>
        <time>2009-06-13T15:05:46Z</time>
      </trkpt>
      <trkpt lat="45.72201" lon="2.95224">
        <ele>1098.9240722656</ele>
        <time>2009-06-13T15:07:15Z</time>
      </trkpt>
      <trkpt lat="45.722" lon="2.95215">
        <ele>1098.9240722656</ele>
        <time>2009-06-13T15:09:52Z</time>
      </trkpt>
      <trkpt lat="45.72203" lon="2.95206">
        <ele>1097.0014648438</ele>
        <time>2009-06-13T15:16:06Z</time>
      </trkpt>
      <trkpt lat="45.72203" lon="2.95213">
        <ele>1097.0014648438</ele>
        <time>2009-06-13T15:16:12Z</time>
      </trkpt>
      <trkpt lat="45.72204" lon="2.95217">
        <ele>1097.0014648438</ele>
        <time>2009-06-13T15:17:18Z</time>
      </trkpt>
      <trkpt lat="45.722" lon="2.9522">
        <ele>1096.5209960938</ele>
        <time>2009-06-13T15:17:23Z</time>
      </trkpt>
      <trkpt lat="45.72197" lon="2.95218">
        <ele>1096.5209960938</ele>
        <time>2009-06-13T15:17:26Z</time>
      </trkpt>
      <trkpt lat="45.72193" lon="2.95217">
        <ele>1096.0402832031</ele>
        <time>2009-06-13T15:17:29Z</time>
      </trkpt>
      <trkpt lat="45.7219" lon="2.95219">
        <ele>1096.5209960938</ele>
        <time>2009-06-13T15:17:35Z</time>
      </trkpt>
      <trkpt lat="45.72189" lon="2.95219">
        <ele>1097.0014648438</ele>
        <time>2009-06-13T15:17:51Z</time>
      </trkpt>
      <trkpt lat="45.72181" lon="2.95218">
        <ele>1096.0402832031</ele>
        <time>2009-06-13T15:17:54Z</time>
      </trkpt>
      <trkpt lat="45.72169" lon="2.95206">
        <ele>1096.0402832031</ele>
        <time>2009-06-13T15:17:59Z</time>
      </trkpt>
      <trkpt lat="45.72149" lon="2.95186">
        <ele>1093.15625</ele>
        <time>2009-06-13T15:18:04Z</time>
      </trkpt>
      <trkpt lat="45.72144" lon="2.95182">
        <ele>1092.67578125</ele>
        <time>2009-06-13T15:18:05Z</time>
      </trkpt>
      <trkpt lat="45.72137" lon="2.95177">
        <ele>1092.1950683594</ele>
        <time>2009-06-13T15:18:06Z</time>
      </trkpt>
      <trkpt lat="45.72095" lon="2.9516">
        <ele>1088.3498535156</ele>
        <time>2009-06-13T15:18:12Z</time>
      </trkpt>
      <trkpt lat="45.72083" lon="2.95154">
        <ele>1086.4272460938</ele>
        <time>2009-06-13T15:18:14Z</time>
      </trkpt>
      <trkpt lat="45.72068" lon="2.95144">
        <ele>1084.9853515625</ele>
        <time>2009-06-13T15:18:17Z</time>
      </trkpt>
      <trkpt lat="45.72055" lon="2.95137">
        <ele>1083.54296875</ele>
        <time>2009-06-13T15:18:19Z</time>
      </trkpt>
      <trkpt lat="45.72041" lon="2.95129">
        <ele>1082.5817871094</ele>
        <time>2009-06-13T15:18:21Z</time>
      </trkpt>
      <trkpt lat="45.72013" lon="2.95108">
        <ele>1081.6203613281</ele>
        <time>2009-06-13T15:18:25Z</time>
      </trkpt>
      <trkpt lat="45.71991" lon="2.95094">
        <ele>1078.255859375</ele>
        <time>2009-06-13T15:18:28Z</time>
      </trkpt>
      <trkpt lat="45.71975" lon="2.95087">
        <ele>1077.7751464844</ele>
        <time>2009-06-13T15:18:30Z</time>
      </trkpt>
      <trkpt lat="45.7196" lon="2.95079">
        <ele>1076.8139648438</ele>
        <time>2009-06-13T15:18:32Z</time>
      </trkpt>
      <trkpt lat="45.71935" lon="2.95066">
        <ele>1076.3332519531</ele>
        <time>2009-06-13T15:18:36Z</time>
      </trkpt>
      <trkpt lat="45.71917" lon="2.95057">
        <ele>1074.4106445312</ele>
        <time>2009-06-13T15:18:39Z</time>
      </trkpt>
      <trkpt lat="45.71902" lon="2.95046">
        <ele>1073.4494628906</ele>
        <time>2009-06-13T15:18:41Z</time>
      </trkpt>
      <trkpt lat="45.71872" lon="2.95021">
        <ele>1072.0073242188</ele>
        <time>2009-06-13T15:18:45Z</time>
      </trkpt>
      <trkpt lat="45.71855" lon="2.95011">
        <ele>1072.0073242188</ele>
        <time>2009-06-13T15:18:47Z</time>
      </trkpt>
      <trkpt lat="45.71812" lon="2.94972">
        <ele>1071.5266113281</ele>
        <time>2009-06-13T15:18:53Z</time>
      </trkpt>
      <trkpt lat="45.71786" lon="2.94947">
        <ele>1071.5266113281</ele>
        <time>2009-06-13T15:18:57Z</time>
      </trkpt>
      <trkpt lat="45.71776" lon="2.9494">
        <ele>1073.4494628906</ele>
        <time>2009-06-13T15:18:59Z</time>
      </trkpt>
      <trkpt lat="45.71771" lon="2.94937">
        <ele>1072.4880371094</ele>
        <time>2009-06-13T15:19:00Z</time>
      </trkpt>
      <trkpt lat="45.71753" lon="2.94924">
        <ele>1072.0073242188</ele>
        <time>2009-06-13T15:19:04Z</time>
      </trkpt>
      <trkpt lat="45.71736" lon="2.94916">
        <ele>1072.0073242188</ele>
        <time>2009-06-13T15:19:07Z</time>
      </trkpt>
      <trkpt lat="45.71707" lon="2.94914">
        <ele>1072.4880371094</ele>
        <time>2009-06-13T15:19:10Z</time>
      </trkpt>
      <trkpt lat="45.71696" lon="2.9491">
        <ele>1073.9299316406</ele>
        <time>2009-06-13T15:19:12Z</time>
      </trkpt>
      <trkpt lat="45.71687" lon="2.94906">
        <ele>1074.8913574219</ele>
        <time>2009-06-13T15:19:14Z</time>
      </trkpt>
      <trkpt lat="45.71677" lon="2.94901">
        <ele>1075.3718261719</ele>
        <time>2009-06-13T15:19:16Z</time>
      </trkpt>
      <trkpt lat="45.71661" lon="2.94886">
        <ele>1073.4494628906</ele>
        <time>2009-06-13T15:19:20Z</time>
      </trkpt>
      <trkpt lat="45.71643" lon="2.94875">
        <ele>1070.0847167969</ele>
        <time>2009-06-13T15:19:23Z</time>
      </trkpt>
      <trkpt lat="45.7163" lon="2.9487">
        <ele>1070.5654296875</ele>
        <time>2009-06-13T15:19:25Z</time>
      </trkpt>
      <trkpt lat="45.71597" lon="2.94855">
        <ele>1067.6811523438</ele>
        <time>2009-06-13T15:19:31Z</time>
      </trkpt>
      <trkpt lat="45.71585" lon="2.9485">
        <ele>1066.7199707031</ele>
        <time>2009-06-13T15:19:35Z</time>
      </trkpt>
      <trkpt lat="45.71574" lon="2.94844">
        <ele>1063.8359375</ele>
        <time>2009-06-13T15:19:38Z</time>
      </trkpt>
      <trkpt lat="45.71563" lon="2.94842">
        <ele>1062.3940429688</ele>
        <time>2009-06-13T15:19:40Z</time>
      </trkpt>
      <trkpt lat="45.7153" lon="2.94832">
        <ele>1060.4714355469</ele>
        <time>2009-06-13T15:19:45Z</time>
      </trkpt>
      <trkpt lat="45.71522" lon="2.9483">
        <ele>1058.548828125</ele>
        <time>2009-06-13T15:19:46Z</time>
      </trkpt>
      <trkpt lat="45.71499" lon="2.94825">
        <ele>1057.5876464844</ele>
        <time>2009-06-13T15:19:49Z</time>
      </trkpt>
      <trkpt lat="45.7147" lon="2.94811">
        <ele>1056.1455078125</ele>
        <time>2009-06-13T15:19:53Z</time>
      </trkpt>
      <trkpt lat="45.71463" lon="2.94807">
        <ele>1054.7036132812</ele>
        <time>2009-06-13T15:19:54Z</time>
      </trkpt>
      <trkpt lat="45.7144" lon="2.94798">
        <ele>1053.26171875</ele>
        <time>2009-06-13T15:19:58Z</time>
      </trkpt>
      <trkpt lat="45.71412" lon="2.9477">
        <ele>1051.3388671875</ele>
        <time>2009-06-13T15:20:03Z</time>
      </trkpt>
      <trkpt lat="45.71406" lon="2.94763">
        <ele>1050.8581542969</ele>
        <time>2009-06-13T15:20:04Z</time>
      </trkpt>
      <trkpt lat="45.71381" lon="2.94737">
        <ele>1049.4162597656</ele>
        <time>2009-06-13T15:20:08Z</time>
      </trkpt>
      <trkpt lat="45.71356" lon="2.94717">
        <ele>1050.3776855469</ele>
        <time>2009-06-13T15:20:12Z</time>
      </trkpt>
      <trkpt lat="45.71305" lon="2.94694">
        <ele>1050.3776855469</ele>
        <time>2009-06-13T15:20:20Z</time>
      </trkpt>
      <trkpt lat="45.71291" lon="2.94682">
        <ele>1050.3776855469</ele>
        <time>2009-06-13T15:20:23Z</time>
      </trkpt>
      <trkpt lat="45.71281" lon="2.94676">
        <ele>1050.8581542969</ele>
        <time>2009-06-13T15:20:25Z</time>
      </trkpt>
      <trkpt lat="45.71272" lon="2.94672">
        <ele>1050.3776855469</ele>
        <time>2009-06-13T15:20:27Z</time>
      </trkpt>
      <trkpt lat="45.71257" lon="2.94664">
        <ele>1049.8969726562</ele>
        <time>2009-06-13T15:20:30Z</time>
      </trkpt>
      <trkpt lat="45.71223" lon="2.94634">
        <ele>1049.8969726562</ele>
        <time>2009-06-13T15:20:37Z</time>
      </trkpt>
      <trkpt lat="45.71198" lon="2.946">
        <ele>1051.3388671875</ele>
        <time>2009-06-13T15:20:43Z</time>
      </trkpt>
      <trkpt lat="45.7119" lon="2.94588">
        <ele>1050.8581542969</ele>
        <time>2009-06-13T15:20:45Z</time>
      </trkpt>
      <trkpt lat="45.71169" lon="2.9455">
        <ele>1051.8195800781</ele>
        <time>2009-06-13T15:20:51Z</time>
      </trkpt>
      <trkpt lat="45.71144" lon="2.94512">
        <ele>1051.3388671875</ele>
        <time>2009-06-13T15:20:57Z</time>
      </trkpt>
      <trkpt lat="45.71113" lon="2.9446">
        <ele>1052.7810058594</ele>
        <time>2009-06-13T15:21:05Z</time>
      </trkpt>
      <trkpt lat="45.71097" lon="2.94425">
        <ele>1053.26171875</ele>
        <time>2009-06-13T15:21:10Z</time>
      </trkpt>
      <trkpt lat="45.71094" lon="2.94419">
        <ele>1052.7810058594</ele>
        <time>2009-06-13T15:21:11Z</time>
      </trkpt>
      <trkpt lat="45.71073" lon="2.9436">
        <ele>1048.935546875</ele>
        <time>2009-06-13T15:21:18Z</time>
      </trkpt>
      <trkpt lat="45.71063" lon="2.94333">
        <ele>1049.4162597656</ele>
        <time>2009-06-13T15:21:21Z</time>
      </trkpt>
      <trkpt lat="45.71051" lon="2.94313">
        <ele>1049.4162597656</ele>
        <time>2009-06-13T15:21:25Z</time>
      </trkpt>
      <trkpt lat="45.71051" lon="2.9431">
        <ele>1050.3776855469</ele>
        <time>2009-06-13T15:21:28Z</time>
      </trkpt>
      <trkpt lat="45.71051" lon="2.94311">
        <ele>1049.8969726562</ele>
        <time>2009-06-13T15:21:38Z</time>
      </trkpt>
      <trkpt lat="45.71051" lon="2.94313">
        <ele>1049.4162597656</ele>
        <time>2009-06-13T15:22:06Z</time>
      </trkpt>
      <trkpt lat="45.71049" lon="2.94312">
        <ele>1048.935546875</ele>
        <time>2009-06-13T15:23:01Z</time>
      </trkpt>
      <trkpt lat="45.71042" lon="2.94317">
        <ele>1047.9743652344</ele>
        <time>2009-06-13T15:23:05Z</time>
      </trkpt>
      <trkpt lat="45.71041" lon="2.94321">
        <ele>1047.4936523438</ele>
        <time>2009-06-13T15:23:06Z</time>
      </trkpt>
      <trkpt lat="45.71029" lon="2.94345">
        <ele>1047.9743652344</ele>
        <time>2009-06-13T15:23:12Z</time>
      </trkpt>
      <trkpt lat="45.71011" lon="2.94364">
        <ele>1048.4548339844</ele>
        <time>2009-06-13T15:23:17Z</time>
      </trkpt>
      <trkpt lat="45.71003" lon="2.94384">
        <ele>1048.935546875</ele>
        <time>2009-06-13T15:23:21Z</time>
      </trkpt>
      <trkpt lat="45.70998" lon="2.94411">
        <ele>1049.8969726562</ele>
        <time>2009-06-13T15:23:27Z</time>
      </trkpt>
      <trkpt lat="45.70992" lon="2.94432">
        <ele>1050.3776855469</ele>
        <time>2009-06-13T15:23:32Z</time>
      </trkpt>
      <trkpt lat="45.70989" lon="2.94451">
        <ele>1050.8581542969</ele>
        <time>2009-06-13T15:23:37Z</time>
      </trkpt>
      <trkpt lat="45.70982" lon="2.9447">
        <ele>1051.3388671875</ele>
        <time>2009-06-13T15:23:41Z</time>
      </trkpt>
      <trkpt lat="45.70966" lon="2.94499">
        <ele>1050.3776855469</ele>
        <time>2009-06-13T15:23:47Z</time>
      </trkpt>
      <trkpt lat="45.70948" lon="2.94534">
        <ele>1050.8581542969</ele>
        <time>2009-06-13T15:23:54Z</time>
      </trkpt>
      <trkpt lat="45.70945" lon="2.94539">
        <ele>1050.8581542969</ele>
        <time>2009-06-13T15:23:55Z</time>
      </trkpt>
      <trkpt lat="45.70919" lon="2.94574">
        <ele>1050.3776855469</ele>
        <time>2009-06-13T15:24:03Z</time>
      </trkpt>
      <trkpt lat="45.70904" lon="2.94601">
        <ele>1049.8969726562</ele>
        <time>2009-06-13T15:24:08Z</time>
      </trkpt>
      <trkpt lat="45.70893" lon="2.9462">
        <ele>1051.3388671875</ele>
        <time>2009-06-13T15:24:12Z</time>
      </trkpt>
      <trkpt lat="45.70888" lon="2.94631">
        <ele>1050.3776855469</ele>
        <time>2009-06-13T15:24:14Z</time>
      </trkpt>
      <trkpt lat="45.70879" lon="2.94646">
        <ele>1049.4162597656</ele>
        <time>2009-06-13T15:24:17Z</time>
      </trkpt>
      <trkpt lat="45.70865" lon="2.9467">
        <ele>1049.4162597656</ele>
        <time>2009-06-13T15:24:22Z</time>
      </trkpt>
      <trkpt lat="45.70841" lon="2.94701">
        <ele>1048.4548339844</ele>
        <time>2009-06-13T15:24:29Z</time>
      </trkpt>
      <trkpt lat="45.70815" lon="2.94741">
        <ele>1048.4548339844</ele>
        <time>2009-06-13T15:24:36Z</time>
      </trkpt>
      <trkpt lat="45.70804" lon="2.94759">
        <ele>1047.9743652344</ele>
        <time>2009-06-13T15:24:39Z</time>
      </trkpt>
      <trkpt lat="45.70777" lon="2.94794">
        <ele>1047.9743652344</ele>
        <time>2009-06-13T15:24:46Z</time>
      </trkpt>
      <trkpt lat="45.70763" lon="2.94809">
        <ele>1047.4936523438</ele>
        <time>2009-06-13T15:24:49Z</time>
      </trkpt>
      <trkpt lat="45.70739" lon="2.9484">
        <ele>1046.5324707031</ele>
        <time>2009-06-13T15:24:55Z</time>
      </trkpt>
      <trkpt lat="45.70726" lon="2.94864">
        <ele>1047.0129394531</ele>
        <time>2009-06-13T15:25:00Z</time>
      </trkpt>
      <trkpt lat="45.70724" lon="2.94869">
        <ele>1046.5324707031</ele>
        <time>2009-06-13T15:25:01Z</time>
      </trkpt>
      <trkpt lat="45.70712" lon="2.94907">
        <ele>1045.5710449219</ele>
        <time>2009-06-13T15:25:08Z</time>
      </trkpt>
      <trkpt lat="45.70708" lon="2.94926">
        <ele>1045.5710449219</ele>
        <time>2009-06-13T15:25:12Z</time>
      </trkpt>
      <trkpt lat="45.70699" lon="2.9495">
        <ele>1044.6096191406</ele>
        <time>2009-06-13T15:25:16Z</time>
      </trkpt>
      <trkpt lat="45.70683" lon="2.94989">
        <ele>1040.7644042969</ele>
        <time>2009-06-13T15:25:22Z</time>
      </trkpt>
      <trkpt lat="45.70679" lon="2.94997">
        <ele>1040.7644042969</ele>
        <time>2009-06-13T15:25:23Z</time>
      </trkpt>
      <trkpt lat="45.70672" lon="2.95034">
        <ele>1040.7644042969</ele>
        <time>2009-06-13T15:25:27Z</time>
      </trkpt>
      <trkpt lat="45.70672" lon="2.95061">
        <ele>1039.8032226562</ele>
        <time>2009-06-13T15:25:30Z</time>
      </trkpt>
      <trkpt lat="45.70675" lon="2.95118">
        <ele>1039.8032226562</ele>
        <time>2009-06-13T15:25:37Z</time>
      </trkpt>
      <trkpt lat="45.70667" lon="2.95156">
        <ele>1040.2839355469</ele>
        <time>2009-06-13T15:25:43Z</time>
      </trkpt>
      <trkpt lat="45.7066" lon="2.95189">
        <ele>1040.7644042969</ele>
        <time>2009-06-13T15:25:49Z</time>
      </trkpt>
      <trkpt lat="45.70653" lon="2.95203">
        <ele>1038.8420410156</ele>
        <time>2009-06-13T15:25:52Z</time>
      </trkpt>
      <trkpt lat="45.70635" lon="2.95227">
        <ele>1037.8806152344</ele>
        <time>2009-06-13T15:25:57Z</time>
      </trkpt>
      <trkpt lat="45.70631" lon="2.95234">
        <ele>1036.4387207031</ele>
        <time>2009-06-13T15:25:58Z</time>
      </trkpt>
      <trkpt lat="45.70609" lon="2.95266">
        <ele>1033.0737304688</ele>
        <time>2009-06-13T15:26:04Z</time>
      </trkpt>
      <trkpt lat="45.70603" lon="2.95269">
        <ele>1031.6318359375</ele>
        <time>2009-06-13T15:26:06Z</time>
      </trkpt>
      <trkpt lat="45.70597" lon="2.95285">
        <ele>1029.228515625</ele>
        <time>2009-06-13T15:26:10Z</time>
      </trkpt>
      <trkpt lat="45.70595" lon="2.9529">
        <ele>1028.748046875</ele>
        <time>2009-06-13T15:26:11Z</time>
      </trkpt>
      <trkpt lat="45.70588" lon="2.95298">
        <ele>1026.8254394531</ele>
        <time>2009-06-13T15:26:14Z</time>
      </trkpt>
      <trkpt lat="45.70588" lon="2.953">
        <ele>1027.3061523438</ele>
        <time>2009-06-13T15:26:18Z</time>
      </trkpt>
      <trkpt lat="45.70588" lon="2.953">
        <ele>1027.3061523438</ele>
        <time>2009-06-13T15:26:24Z</time>
      </trkpt>
      <trkpt lat="45.70589" lon="2.95299">
        <ele>1027.7866210938</ele>
        <time>2009-06-13T15:26:30Z</time>
      </trkpt>
      <trkpt lat="45.70588" lon="2.95298">
        <ele>1027.3061523438</ele>
        <time>2009-06-13T15:27:03Z</time>
      </trkpt>
      <trkpt lat="45.70587" lon="2.95298">
        <ele>1027.7866210938</ele>
        <time>2009-06-13T15:27:09Z</time>
      </trkpt>
      <trkpt lat="45.70574" lon="2.95299">
        <ele>1024.4221191406</ele>
        <time>2009-06-13T15:27:14Z</time>
      </trkpt>
      <trkpt lat="45.70569" lon="2.95302">
        <ele>1022.9802246094</ele>
        <time>2009-06-13T15:27:15Z</time>
      </trkpt>
      <trkpt lat="45.70549" lon="2.95317">
        <ele>1019.6154785156</ele>
        <time>2009-06-13T15:27:19Z</time>
      </trkpt>
      <trkpt lat="45.70538" lon="2.95327">
        <ele>1018.1733398438</ele>
        <time>2009-06-13T15:27:21Z</time>
      </trkpt>
      <trkpt lat="45.70519" lon="2.95358">
        <ele>1014.328125</ele>
        <time>2009-06-13T15:27:25Z</time>
      </trkpt>
      <trkpt lat="45.70516" lon="2.95365">
        <ele>1014.8088378906</ele>
        <time>2009-06-13T15:27:26Z</time>
      </trkpt>
      <trkpt lat="45.70509" lon="2.95378">
        <ele>1012.8862304688</ele>
        <time>2009-06-13T15:27:28Z</time>
      </trkpt>
      <trkpt lat="45.70502" lon="2.95391">
        <ele>1011.9250488281</ele>
        <time>2009-06-13T15:27:30Z</time>
      </trkpt>
      <trkpt lat="45.7049" lon="2.9541">
        <ele>1009.5217285156</ele>
        <time>2009-06-13T15:27:33Z</time>
      </trkpt>
      <trkpt lat="45.70478" lon="2.95437">
        <ele>1007.1184082031</ele>
        <time>2009-06-13T15:27:37Z</time>
      </trkpt>
      <trkpt lat="45.70475" lon="2.95446">
        <ele>1007.1184082031</ele>
        <time>2009-06-13T15:27:38Z</time>
      </trkpt>
      <trkpt lat="45.70469" lon="2.95489">
        <ele>1005.1958007812</ele>
        <time>2009-06-13T15:27:43Z</time>
      </trkpt>
      <trkpt lat="45.70464" lon="2.95515">
        <ele>1004.7150878906</ele>
        <time>2009-06-13T15:27:47Z</time>
      </trkpt>
      <trkpt lat="45.70459" lon="2.95528">
        <ele>1003.7536621094</ele>
        <time>2009-06-13T15:27:49Z</time>
      </trkpt>
      <trkpt lat="45.70446" lon="2.95564">
        <ele>1002.3115234375</ele>
        <time>2009-06-13T15:27:54Z</time>
      </trkpt>
      <trkpt lat="45.7044" lon="2.95587">
        <ele>1001.8310546875</ele>
        <time>2009-06-13T15:27:57Z</time>
      </trkpt>
      <trkpt lat="45.70421" lon="2.95618">
        <ele>1000.3891601562</ele>
        <time>2009-06-13T15:28:02Z</time>
      </trkpt>
      <trkpt lat="45.70411" lon="2.95629">
        <ele>998.94702148438</ele>
        <time>2009-06-13T15:28:04Z</time>
      </trkpt>
      <trkpt lat="45.7039" lon="2.9566">
        <ele>998.94702148438</ele>
        <time>2009-06-13T15:28:09Z</time>
      </trkpt>
      <trkpt lat="45.70385" lon="2.95665">
        <ele>998.46630859375</ele>
        <time>2009-06-13T15:28:10Z</time>
      </trkpt>
      <trkpt lat="45.70373" lon="2.95692">
        <ele>997.98583984375</ele>
        <time>2009-06-13T15:28:14Z</time>
      </trkpt>
      <trkpt lat="45.70366" lon="2.95714">
        <ele>998.46630859375</ele>
        <time>2009-06-13T15:28:17Z</time>
      </trkpt>
      <trkpt lat="45.70361" lon="2.95743">
        <ele>996.5439453125</ele>
        <time>2009-06-13T15:28:21Z</time>
      </trkpt>
      <trkpt lat="45.70349" lon="2.95772">
        <ele>997.0244140625</ele>
        <time>2009-06-13T15:28:26Z</time>
      </trkpt>
      <trkpt lat="45.70341" lon="2.95788">
        <ele>997.50512695312</ele>
        <time>2009-06-13T15:28:29Z</time>
      </trkpt>
      <trkpt lat="45.70332" lon="2.95809">
        <ele>995.10180664062</ele>
        <time>2009-06-13T15:28:33Z</time>
      </trkpt>
      <trkpt lat="45.70318" lon="2.95835">
        <ele>996.5439453125</ele>
        <time>2009-06-13T15:28:38Z</time>
      </trkpt>
      <trkpt lat="45.70304" lon="2.95853">
        <ele>996.06323242188</ele>
        <time>2009-06-13T15:28:42Z</time>
      </trkpt>
      <trkpt lat="45.70278" lon="2.95901">
        <ele>995.58251953125</ele>
        <time>2009-06-13T15:28:51Z</time>
      </trkpt>
      <trkpt lat="45.70262" lon="2.95944">
        <ele>997.0244140625</ele>
        <time>2009-06-13T15:28:58Z</time>
      </trkpt>
      <trkpt lat="45.70248" lon="2.95958">
        <ele>997.98583984375</ele>
        <time>2009-06-13T15:29:02Z</time>
      </trkpt>
      <trkpt lat="45.70228" lon="2.95967">
        <ele>997.98583984375</ele>
        <time>2009-06-13T15:29:10Z</time>
      </trkpt>
      <trkpt lat="45.70226" lon="2.95968">
        <ele>997.50512695312</ele>
        <time>2009-06-13T15:29:11Z</time>
      </trkpt>
      <trkpt lat="45.70226" lon="2.95971">
        <ele>997.98583984375</ele>
        <time>2009-06-13T15:29:13Z</time>
      </trkpt>
      <trkpt lat="45.70223" lon="2.9598">
        <ele>997.50512695312</ele>
        <time>2009-06-13T15:29:18Z</time>
      </trkpt>
      <trkpt lat="45.70218" lon="2.95994">
        <ele>997.50512695312</ele>
        <time>2009-06-13T15:29:23Z</time>
      </trkpt>
      <trkpt lat="45.70215" lon="2.95999">
        <ele>997.50512695312</ele>
        <time>2009-06-13T15:29:25Z</time>
      </trkpt>
      <trkpt lat="45.70209" lon="2.96012">
        <ele>997.50512695312</ele>
        <time>2009-06-13T15:29:31Z</time>
      </trkpt>
      <trkpt lat="45.70196" lon="2.96028">
        <ele>997.0244140625</ele>
        <time>2009-06-13T15:29:37Z</time>
      </trkpt>
      <trkpt lat="45.70182" lon="2.96047">
        <ele>996.06323242188</ele>
        <time>2009-06-13T15:29:42Z</time>
      </trkpt>
      <trkpt lat="45.70165" lon="2.96077">
        <ele>995.58251953125</ele>
        <time>2009-06-13T15:29:48Z</time>
      </trkpt>
      <trkpt lat="45.70155" lon="2.96097">
        <ele>995.58251953125</ele>
        <time>2009-06-13T15:29:52Z</time>
      </trkpt>
      <trkpt lat="45.70125" lon="2.96141">
        <ele>996.06323242188</ele>
        <time>2009-06-13T15:30:00Z</time>
      </trkpt>
      <trkpt lat="45.70115" lon="2.96159">
        <ele>996.06323242188</ele>
        <time>2009-06-13T15:30:03Z</time>
      </trkpt>
      <trkpt lat="45.70107" lon="2.96178">
        <ele>996.5439453125</ele>
        <time>2009-06-13T15:30:06Z</time>
      </trkpt>
      <trkpt lat="45.70094" lon="2.96211">
        <ele>997.0244140625</ele>
        <time>2009-06-13T15:30:11Z</time>
      </trkpt>
      <trkpt lat="45.70084" lon="2.96238">
        <ele>997.98583984375</ele>
        <time>2009-06-13T15:30:15Z</time>
      </trkpt>
      <trkpt lat="45.70079" lon="2.96252">
        <ele>998.94702148438</ele>
        <time>2009-06-13T15:30:17Z</time>
      </trkpt>
      <trkpt lat="45.7007" lon="2.96296">
        <ele>1000.8696289062</ele>
        <time>2009-06-13T15:30:23Z</time>
      </trkpt>
      <trkpt lat="45.70065" lon="2.96326">
        <ele>1002.7922363281</ele>
        <time>2009-06-13T15:30:28Z</time>
      </trkpt>
      <trkpt lat="45.70062" lon="2.96337">
        <ele>1001.3503417969</ele>
        <time>2009-06-13T15:30:30Z</time>
      </trkpt>
      <trkpt lat="45.70063" lon="2.96376">
        <ele>998.94702148438</ele>
        <time>2009-06-13T15:30:35Z</time>
      </trkpt>
      <trkpt lat="45.70063" lon="2.96386">
        <ele>998.46630859375</ele>
        <time>2009-06-13T15:30:36Z</time>
      </trkpt>
      <trkpt lat="45.70061" lon="2.96426">
        <ele>996.5439453125</ele>
        <time>2009-06-13T15:30:40Z</time>
      </trkpt>
      <trkpt lat="45.70061" lon="2.96471">
        <ele>992.21801757812</ele>
        <time>2009-06-13T15:30:44Z</time>
      </trkpt>
      <trkpt lat="45.70063" lon="2.96482">
        <ele>992.21801757812</ele>
        <time>2009-06-13T15:30:45Z</time>
      </trkpt>
      <trkpt lat="45.70066" lon="2.96493">
        <ele>991.7373046875</ele>
        <time>2009-06-13T15:30:46Z</time>
      </trkpt>
      <trkpt lat="45.70077" lon="2.96522">
        <ele>990.77587890625</ele>
        <time>2009-06-13T15:30:49Z</time>
      </trkpt>
      <trkpt lat="45.70081" lon="2.96539">
        <ele>989.81469726562</ele>
        <time>2009-06-13T15:30:51Z</time>
      </trkpt>
      <trkpt lat="45.70088" lon="2.96552">
        <ele>988.853515625</ele>
        <time>2009-06-13T15:30:53Z</time>
      </trkpt>
      <trkpt lat="45.70097" lon="2.96565">
        <ele>987.89184570312</ele>
        <time>2009-06-13T15:30:55Z</time>
      </trkpt>
      <trkpt lat="45.70101" lon="2.96571">
        <ele>987.4111328125</ele>
        <time>2009-06-13T15:30:56Z</time>
      </trkpt>
      <trkpt lat="45.70117" lon="2.96602">
        <ele>985.96923828125</ele>
        <time>2009-06-13T15:31:00Z</time>
      </trkpt>
      <trkpt lat="45.70123" lon="2.96619">
        <ele>985.00805664062</ele>
        <time>2009-06-13T15:31:02Z</time>
      </trkpt>
      <trkpt lat="45.70125" lon="2.96628">
        <ele>984.52734375</ele>
        <time>2009-06-13T15:31:03Z</time>
      </trkpt>
      <trkpt lat="45.70129" lon="2.96659">
        <ele>984.52734375</ele>
        <time>2009-06-13T15:31:07Z</time>
      </trkpt>
      <trkpt lat="45.70134" lon="2.96676">
        <ele>985.00805664062</ele>
        <time>2009-06-13T15:31:10Z</time>
      </trkpt>
      <trkpt lat="45.70137" lon="2.96717">
        <ele>985.00805664062</ele>
        <time>2009-06-13T15:31:17Z</time>
      </trkpt>
      <trkpt lat="45.7014" lon="2.96744">
        <ele>985.00805664062</ele>
        <time>2009-06-13T15:31:22Z</time>
      </trkpt>
      <trkpt lat="45.70143" lon="2.96753">
        <ele>985.00805664062</ele>
        <time>2009-06-13T15:31:24Z</time>
      </trkpt>
      <trkpt lat="45.70135" lon="2.96769">
        <ele>984.52734375</ele>
        <time>2009-06-13T15:31:29Z</time>
      </trkpt>
      <trkpt lat="45.70126" lon="2.96786">
        <ele>984.04663085938</ele>
        <time>2009-06-13T15:31:34Z</time>
      </trkpt>
      <trkpt lat="45.7012" lon="2.96809">
        <ele>984.52734375</ele>
        <time>2009-06-13T15:31:41Z</time>
      </trkpt>
      <trkpt lat="45.70109" lon="2.96835">
        <ele>983.56591796875</ele>
        <time>2009-06-13T15:31:48Z</time>
      </trkpt>
      <trkpt lat="45.70099" lon="2.96858">
        <ele>983.56591796875</ele>
        <time>2009-06-13T15:31:54Z</time>
      </trkpt>
      <trkpt lat="45.70095" lon="2.96872">
        <ele>984.04663085938</ele>
        <time>2009-06-13T15:31:59Z</time>
      </trkpt>
      <trkpt lat="45.70088" lon="2.96884">
        <ele>984.04663085938</ele>
        <time>2009-06-13T15:32:05Z</time>
      </trkpt>
      <trkpt lat="45.7008" lon="2.96913">
        <ele>984.52734375</ele>
        <time>2009-06-13T15:32:12Z</time>
      </trkpt>
      <trkpt lat="45.70079" lon="2.96923">
        <ele>983.56591796875</ele>
        <time>2009-06-13T15:32:14Z</time>
      </trkpt>
      <trkpt lat="45.70066" lon="2.96952">
        <ele>985.00805664062</ele>
        <time>2009-06-13T15:32:20Z</time>
      </trkpt>
      <trkpt lat="45.70057" lon="2.96976">
        <ele>985.00805664062</ele>
        <time>2009-06-13T15:32:26Z</time>
      </trkpt>
      <trkpt lat="45.70049" lon="2.96993">
        <ele>984.52734375</ele>
        <time>2009-06-13T15:32:31Z</time>
      </trkpt>
      <trkpt lat="45.70039" lon="2.9701">
        <ele>984.52734375</ele>
        <time>2009-06-13T15:32:37Z</time>
      </trkpt>
      <trkpt lat="45.70029" lon="2.97027">
        <ele>985.00805664062</ele>
        <time>2009-06-13T15:32:42Z</time>
      </trkpt>
      <trkpt lat="45.70017" lon="2.97048">
        <ele>985.00805664062</ele>
        <time>2009-06-13T15:32:47Z</time>
      </trkpt>
      <trkpt lat="45.70003" lon="2.97079">
        <ele>985.96923828125</ele>
        <time>2009-06-13T15:32:54Z</time>
      </trkpt>
      <trkpt lat="45.69995" lon="2.97102">
        <ele>985.96923828125</ele>
        <time>2009-06-13T15:33:00Z</time>
      </trkpt>
      <trkpt lat="45.69991" lon="2.97108">
        <ele>986.93041992188</ele>
        <time>2009-06-13T15:33:05Z</time>
      </trkpt>
      <trkpt lat="45.69987" lon="2.97113">
        <ele>986.93041992188</ele>
        <time>2009-06-13T15:33:13Z</time>
      </trkpt>
      <trkpt lat="45.69983" lon="2.9713">
        <ele>986.44995117188</ele>
        <time>2009-06-13T15:33:17Z</time>
      </trkpt>
      <trkpt lat="45.69975" lon="2.97161">
        <ele>986.93041992188</ele>
        <time>2009-06-13T15:33:24Z</time>
      </trkpt>
      <trkpt lat="45.69968" lon="2.97189">
        <ele>986.44995117188</ele>
        <time>2009-06-13T15:33:30Z</time>
      </trkpt>
      <trkpt lat="45.69963" lon="2.97216">
        <ele>985.96923828125</ele>
        <time>2009-06-13T15:33:35Z</time>
      </trkpt>
      <trkpt lat="45.69958" lon="2.97249">
        <ele>984.52734375</ele>
        <time>2009-06-13T15:33:41Z</time>
      </trkpt>
      <trkpt lat="45.69955" lon="2.9726">
        <ele>983.56591796875</ele>
        <time>2009-06-13T15:33:43Z</time>
      </trkpt>
      <trkpt lat="45.69952" lon="2.97273">
        <ele>983.56591796875</ele>
        <time>2009-06-13T15:33:45Z</time>
      </trkpt>
      <trkpt lat="45.6994" lon="2.97313">
        <ele>980.68212890625</ele>
        <time>2009-06-13T15:33:50Z</time>
      </trkpt>
      <trkpt lat="45.69934" lon="2.97327">
        <ele>978.75952148438</ele>
        <time>2009-06-13T15:33:52Z</time>
      </trkpt>
      <trkpt lat="45.69927" lon="2.97347">
        <ele>976.8369140625</ele>
        <time>2009-06-13T15:33:55Z</time>
      </trkpt>
      <trkpt lat="45.69923" lon="2.97365">
        <ele>974.43359375</ele>
        <time>2009-06-13T15:33:57Z</time>
      </trkpt>
      <trkpt lat="45.69913" lon="2.97394">
        <ele>972.51098632812</ele>
        <time>2009-06-13T15:34:00Z</time>
      </trkpt>
      <trkpt lat="45.69903" lon="2.97412">
        <ele>972.0302734375</ele>
        <time>2009-06-13T15:34:02Z</time>
      </trkpt>
      <trkpt lat="45.69891" lon="2.97434">
        <ele>972.51098632812</ele>
        <time>2009-06-13T15:34:05Z</time>
      </trkpt>
      <trkpt lat="45.69879" lon="2.97471">
        <ele>971.54931640625</ele>
        <time>2009-06-13T15:34:11Z</time>
      </trkpt>
      <trkpt lat="45.69873" lon="2.97487">
        <ele>968.18481445312</ele>
        <time>2009-06-13T15:34:14Z</time>
      </trkpt>
      <trkpt lat="45.69865" lon="2.97507">
        <ele>967.2236328125</ele>
        <time>2009-06-13T15:34:17Z</time>
      </trkpt>
      <trkpt lat="45.6985" lon="2.97551">
        <ele>963.85888671875</ele>
        <time>2009-06-13T15:34:22Z</time>
      </trkpt>
      <trkpt lat="45.6984" lon="2.97584">
        <ele>962.89770507812</ele>
        <time>2009-06-13T15:34:25Z</time>
      </trkpt>
      <trkpt lat="45.69828" lon="2.97637">
        <ele>960.013671875</ele>
        <time>2009-06-13T15:34:30Z</time>
      </trkpt>
      <trkpt lat="45.69827" lon="2.97653">
        <ele>960.013671875</ele>
        <time>2009-06-13T15:34:31Z</time>
      </trkpt>
      <trkpt lat="45.69826" lon="2.97678">
        <ele>959.05249023438</ele>
        <time>2009-06-13T15:34:33Z</time>
      </trkpt>
      <trkpt lat="45.69817" lon="2.97721">
        <ele>957.61059570312</ele>
        <time>2009-06-13T15:34:37Z</time>
      </trkpt>
      <trkpt lat="45.69802" lon="2.97762">
        <ele>956.64916992188</ele>
        <time>2009-06-13T15:34:41Z</time>
      </trkpt>
      <trkpt lat="45.69794" lon="2.97783">
        <ele>956.64916992188</ele>
        <time>2009-06-13T15:34:43Z</time>
      </trkpt>
      <trkpt lat="45.69772" lon="2.97831">
        <ele>954.72631835938</ele>
        <time>2009-06-13T15:34:48Z</time>
      </trkpt>
      <trkpt lat="45.6977" lon="2.9784">
        <ele>954.72631835938</ele>
        <time>2009-06-13T15:34:49Z</time>
      </trkpt>
      <trkpt lat="45.69753" lon="2.97893">
        <ele>953.76513671875</ele>
        <time>2009-06-13T15:34:54Z</time>
      </trkpt>
      <trkpt lat="45.69735" lon="2.97931">
        <ele>952.8037109375</ele>
        <time>2009-06-13T15:34:58Z</time>
      </trkpt>
      <trkpt lat="45.69722" lon="2.97995">
        <ele>952.32299804688</ele>
        <time>2009-06-13T15:35:05Z</time>
      </trkpt>
      <trkpt lat="45.6972" lon="2.98005">
        <ele>952.32299804688</ele>
        <time>2009-06-13T15:35:06Z</time>
      </trkpt>
      <trkpt lat="45.69715" lon="2.98024">
        <ele>950.40063476562</ele>
        <time>2009-06-13T15:35:08Z</time>
      </trkpt>
      <trkpt lat="45.69708" lon="2.98062">
        <ele>951.84252929688</ele>
        <time>2009-06-13T15:35:12Z</time>
      </trkpt>
      <trkpt lat="45.69705" lon="2.98074">
        <ele>952.32299804688</ele>
        <time>2009-06-13T15:35:14Z</time>
      </trkpt>
      <trkpt lat="45.69702" lon="2.98086">
        <ele>952.8037109375</ele>
        <time>2009-06-13T15:35:18Z</time>
      </trkpt>
      <trkpt lat="45.69703" lon="2.98103">
        <ele>952.32299804688</ele>
        <time>2009-06-13T15:35:22Z</time>
      </trkpt>
      <trkpt lat="45.697" lon="2.98121">
        <ele>951.84252929688</ele>
        <time>2009-06-13T15:35:26Z</time>
      </trkpt>
      <trkpt lat="45.69696" lon="2.9814">
        <ele>951.36181640625</ele>
        <time>2009-06-13T15:35:29Z</time>
      </trkpt>
      <trkpt lat="45.69693" lon="2.98182">
        <ele>952.32299804688</ele>
        <time>2009-06-13T15:35:35Z</time>
      </trkpt>
      <trkpt lat="45.6969" lon="2.98205">
        <ele>952.32299804688</ele>
        <time>2009-06-13T15:35:39Z</time>
      </trkpt>
      <trkpt lat="45.69687" lon="2.98223">
        <ele>951.84252929688</ele>
        <time>2009-06-13T15:35:42Z</time>
      </trkpt>
      <trkpt lat="45.6968" lon="2.98252">
        <ele>951.84252929688</ele>
        <time>2009-06-13T15:35:46Z</time>
      </trkpt>
      <trkpt lat="45.6967" lon="2.98292">
        <ele>950.88110351562</ele>
        <time>2009-06-13T15:35:51Z</time>
      </trkpt>
      <trkpt lat="45.69665" lon="2.98325">
        <ele>951.36181640625</ele>
        <time>2009-06-13T15:35:55Z</time>
      </trkpt>
      <trkpt lat="45.69663" lon="2.98355">
        <ele>950.40063476562</ele>
        <time>2009-06-13T15:35:59Z</time>
      </trkpt>
      <trkpt lat="45.69661" lon="2.98361">
        <ele>950.40063476562</ele>
        <time>2009-06-13T15:36:00Z</time>
      </trkpt>
      <trkpt lat="45.69651" lon="2.98405">
        <ele>948.95849609375</ele>
        <time>2009-06-13T15:36:06Z</time>
      </trkpt>
      <trkpt lat="45.69645" lon="2.98439">
        <ele>946.07470703125</ele>
        <time>2009-06-13T15:36:10Z</time>
      </trkpt>
      <trkpt lat="45.69643" lon="2.98449">
        <ele>945.11328125</ele>
        <time>2009-06-13T15:36:11Z</time>
      </trkpt>
      <trkpt lat="45.69642" lon="2.9847">
        <ele>944.15209960938</ele>
        <time>2009-06-13T15:36:13Z</time>
      </trkpt>
      <trkpt lat="45.69642" lon="2.98482">
        <ele>942.71020507812</ele>
        <time>2009-06-13T15:36:14Z</time>
      </trkpt>
      <trkpt lat="45.69642" lon="2.98516">
        <ele>942.71020507812</ele>
        <time>2009-06-13T15:36:17Z</time>
      </trkpt>
      <trkpt lat="45.69632" lon="2.98556">
        <ele>941.26806640625</ele>
        <time>2009-06-13T15:36:21Z</time>
      </trkpt>
      <trkpt lat="45.69626" lon="2.98584">
        <ele>940.30688476562</ele>
        <time>2009-06-13T15:36:24Z</time>
      </trkpt>
      <trkpt lat="45.69614" lon="2.98628">
        <ele>938.38403320312</ele>
        <time>2009-06-13T15:36:29Z</time>
      </trkpt>
      <trkpt lat="45.6961" lon="2.98655">
        <ele>937.9033203125</ele>
        <time>2009-06-13T15:36:32Z</time>
      </trkpt>
      <trkpt lat="45.69603" lon="2.98679">
        <ele>938.86474609375</ele>
        <time>2009-06-13T15:36:35Z</time>
      </trkpt>
      <trkpt lat="45.69595" lon="2.98704">
        <ele>940.78735351562</ele>
        <time>2009-06-13T15:36:40Z</time>
      </trkpt>
      <trkpt lat="45.69593" lon="2.98711">
        <ele>941.74877929688</ele>
        <time>2009-06-13T15:36:43Z</time>
      </trkpt>
      <trkpt lat="45.6959" lon="2.98716">
        <ele>941.74877929688</ele>
        <time>2009-06-13T15:36:49Z</time>
      </trkpt>
      <trkpt lat="45.69588" lon="2.9871">
        <ele>941.74877929688</ele>
        <time>2009-06-13T15:37:05Z</time>
      </trkpt>
      <trkpt lat="45.69588" lon="2.98713">
        <ele>941.74877929688</ele>
        <time>2009-06-13T15:37:22Z</time>
      </trkpt>
      <trkpt lat="45.69589" lon="2.98716">
        <ele>942.2294921875</ele>
        <time>2009-06-13T15:37:50Z</time>
      </trkpt>
      <trkpt lat="45.69587" lon="2.98722">
        <ele>942.2294921875</ele>
        <time>2009-06-13T15:37:54Z</time>
      </trkpt>
      <trkpt lat="45.69582" lon="2.98734">
        <ele>941.74877929688</ele>
        <time>2009-06-13T15:37:57Z</time>
      </trkpt>
      <trkpt lat="45.69579" lon="2.98752">
        <ele>942.2294921875</ele>
        <time>2009-06-13T15:38:00Z</time>
      </trkpt>
      <trkpt lat="45.69572" lon="2.98776">
        <ele>939.82592773438</ele>
        <time>2009-06-13T15:38:04Z</time>
      </trkpt>
      <trkpt lat="45.69567" lon="2.98815">
        <ele>937.9033203125</ele>
        <time>2009-06-13T15:38:09Z</time>
      </trkpt>
      <trkpt lat="45.69564" lon="2.9883">
        <ele>936.94189453125</ele>
        <time>2009-06-13T15:38:11Z</time>
      </trkpt>
      <trkpt lat="45.69561" lon="2.98839">
        <ele>936.46142578125</ele>
        <time>2009-06-13T15:38:12Z</time>
      </trkpt>
      <trkpt lat="45.69556" lon="2.98859">
        <ele>935.5</ele>
        <time>2009-06-13T15:38:14Z</time>
      </trkpt>
      <trkpt lat="45.69553" lon="2.98869">
        <ele>935.01953125</ele>
        <time>2009-06-13T15:38:15Z</time>
      </trkpt>
      <trkpt lat="45.69545" lon="2.98887">
        <ele>935.01953125</ele>
        <time>2009-06-13T15:38:17Z</time>
      </trkpt>
      <trkpt lat="45.69536" lon="2.98906">
        <ele>935.01953125</ele>
        <time>2009-06-13T15:38:19Z</time>
      </trkpt>
      <trkpt lat="45.69516" lon="2.98949">
        <ele>935.01953125</ele>
        <time>2009-06-13T15:38:24Z</time>
      </trkpt>
      <trkpt lat="45.69518" lon="2.98982">
        <ele>934.53881835938</ele>
        <time>2009-06-13T15:38:28Z</time>
      </trkpt>
      <trkpt lat="45.6953" lon="2.9901">
        <ele>936.46142578125</ele>
        <time>2009-06-13T15:38:31Z</time>
      </trkpt>
      <trkpt lat="45.69547" lon="2.99041">
        <ele>936.94189453125</ele>
        <time>2009-06-13T15:38:35Z</time>
      </trkpt>
      <trkpt lat="45.69548" lon="2.9905">
        <ele>936.94189453125</ele>
        <time>2009-06-13T15:38:36Z</time>
      </trkpt>
      <trkpt lat="45.69558" lon="2.99085">
        <ele>936.94189453125</ele>
        <time>2009-06-13T15:38:40Z</time>
      </trkpt>
      <trkpt lat="45.69564" lon="2.99128">
        <ele>933.57739257812</ele>
        <time>2009-06-13T15:38:45Z</time>
      </trkpt>
      <trkpt lat="45.69558" lon="2.99146">
        <ele>933.0966796875</ele>
        <time>2009-06-13T15:38:47Z</time>
      </trkpt>
      <trkpt lat="45.69545" lon="2.99172">
        <ele>932.6162109375</ele>
        <time>2009-06-13T15:38:50Z</time>
      </trkpt>
      <trkpt lat="45.6953" lon="2.99221">
        <ele>932.13549804688</ele>
        <time>2009-06-13T15:38:55Z</time>
      </trkpt>
      <trkpt lat="45.69523" lon="2.99263">
        <ele>931.17431640625</ele>
        <time>2009-06-13T15:38:59Z</time>
      </trkpt>
      <trkpt lat="45.69518" lon="2.99295">
        <ele>926.36767578125</ele>
        <time>2009-06-13T15:39:02Z</time>
      </trkpt>
      <trkpt lat="45.69513" lon="2.99316">
        <ele>925.88696289062</ele>
        <time>2009-06-13T15:39:04Z</time>
      </trkpt>
      <trkpt lat="45.69507" lon="2.99337">
        <ele>926.84838867188</ele>
        <time>2009-06-13T15:39:06Z</time>
      </trkpt>
      <trkpt lat="45.69482" lon="2.9938">
        <ele>923.96411132812</ele>
        <time>2009-06-13T15:39:11Z</time>
      </trkpt>
      <trkpt lat="45.69466" lon="2.99398">
        <ele>922.52221679688</ele>
        <time>2009-06-13T15:39:14Z</time>
      </trkpt>
      <trkpt lat="45.69452" lon="2.99408">
        <ele>921.56079101562</ele>
        <time>2009-06-13T15:39:16Z</time>
      </trkpt>
      <trkpt lat="45.69436" lon="2.99417">
        <ele>920.599609375</ele>
        <time>2009-06-13T15:39:18Z</time>
      </trkpt>
      <trkpt lat="45.69428" lon="2.99423">
        <ele>920.599609375</ele>
        <time>2009-06-13T15:39:19Z</time>
      </trkpt>
      <trkpt lat="45.69421" lon="2.99442">
        <ele>920.11889648438</ele>
        <time>2009-06-13T15:39:21Z</time>
      </trkpt>
      <trkpt lat="45.69414" lon="2.99489">
        <ele>919.15771484375</ele>
        <time>2009-06-13T15:39:25Z</time>
      </trkpt>
      <trkpt lat="45.69411" lon="2.99558">
        <ele>919.15771484375</ele>
        <time>2009-06-13T15:39:31Z</time>
      </trkpt>
      <trkpt lat="45.6941" lon="2.99591">
        <ele>919.15771484375</ele>
        <time>2009-06-13T15:39:34Z</time>
      </trkpt>
      <trkpt lat="45.69405" lon="2.99608">
        <ele>920.599609375</ele>
        <time>2009-06-13T15:39:38Z</time>
      </trkpt>
      <trkpt lat="45.69405" lon="2.99609">
        <ele>921.08032226562</ele>
        <time>2009-06-13T15:39:43Z</time>
      </trkpt>
      <trkpt lat="45.69404" lon="2.99609">
        <ele>921.08032226562</ele>
        <time>2009-06-13T15:39:52Z</time>
      </trkpt>
      <trkpt lat="45.69399" lon="2.996">
        <ele>921.56079101562</ele>
        <time>2009-06-13T15:39:57Z</time>
      </trkpt>
      <trkpt lat="45.69391" lon="2.99588">
        <ele>921.08032226562</ele>
        <time>2009-06-13T15:40:02Z</time>
      </trkpt>
      <trkpt lat="45.69376" lon="2.99561">
        <ele>922.04150390625</ele>
        <time>2009-06-13T15:40:09Z</time>
      </trkpt>
      <trkpt lat="45.69366" lon="2.99537">
        <ele>922.52221679688</ele>
        <time>2009-06-13T15:40:15Z</time>
      </trkpt>
      <trkpt lat="45.69353" lon="2.99512">
        <ele>921.56079101562</ele>
        <time>2009-06-13T15:40:22Z</time>
      </trkpt>
      <trkpt lat="45.69345" lon="2.99503">
        <ele>919.63842773438</ele>
        <time>2009-06-13T15:40:24Z</time>
      </trkpt>
      <trkpt lat="45.69329" lon="2.99496">
        <ele>918.1962890625</ele>
        <time>2009-06-13T15:40:28Z</time>
      </trkpt>
      <trkpt lat="45.69318" lon="2.99504">
        <ele>915.79321289062</ele>
        <time>2009-06-13T15:40:32Z</time>
      </trkpt>
      <trkpt lat="45.69302" lon="2.99516">
        <ele>913.87036132812</ele>
        <time>2009-06-13T15:40:36Z</time>
      </trkpt>
      <trkpt lat="45.69294" lon="2.99507">
        <ele>911.94799804688</ele>
        <time>2009-06-13T15:40:38Z</time>
      </trkpt>
      <trkpt lat="45.69279" lon="2.99494">
        <ele>910.02514648438</ele>
        <time>2009-06-13T15:40:41Z</time>
      </trkpt>
      <trkpt lat="45.69266" lon="2.9949">
        <ele>908.58325195312</ele>
        <time>2009-06-13T15:40:43Z</time>
      </trkpt>
      <trkpt lat="45.69248" lon="2.99495">
        <ele>907.62182617188</ele>
        <time>2009-06-13T15:40:46Z</time>
      </trkpt>
      <trkpt lat="45.69225" lon="2.99502">
        <ele>906.66040039062</ele>
        <time>2009-06-13T15:40:51Z</time>
      </trkpt>
      <trkpt lat="45.69219" lon="2.99496">
        <ele>907.14111328125</ele>
        <time>2009-06-13T15:40:53Z</time>
      </trkpt>
      <trkpt lat="45.69198" lon="2.99466">
        <ele>908.10278320312</ele>
        <time>2009-06-13T15:41:01Z</time>
      </trkpt>
      <trkpt lat="45.69184" lon="2.99439">
        <ele>908.10278320312</ele>
        <time>2009-06-13T15:41:07Z</time>
      </trkpt>
      <trkpt lat="45.69171" lon="2.99397">
        <ele>909.54467773438</ele>
        <time>2009-06-13T15:41:15Z</time>
      </trkpt>
      <trkpt lat="45.69164" lon="2.99358">
        <ele>910.98657226562</ele>
        <time>2009-06-13T15:41:22Z</time>
      </trkpt>
      <trkpt lat="45.69162" lon="2.99329">
        <ele>911.46728515625</ele>
        <time>2009-06-13T15:41:27Z</time>
      </trkpt>
      <trkpt lat="45.69156" lon="2.99287">
        <ele>912.42846679688</ele>
        <time>2009-06-13T15:41:34Z</time>
      </trkpt>
      <trkpt lat="45.6915" lon="2.99246">
        <ele>914.35107421875</ele>
        <time>2009-06-13T15:41:41Z</time>
      </trkpt>
      <trkpt lat="45.69147" lon="2.99209">
        <ele>916.27368164062</ele>
        <time>2009-06-13T15:41:48Z</time>
      </trkpt>
      <trkpt lat="45.6914" lon="2.99176">
        <ele>915.79321289062</ele>
        <time>2009-06-13T15:41:55Z</time>
      </trkpt>
      <trkpt lat="45.69133" lon="2.99153">
        <ele>916.75439453125</ele>
        <time>2009-06-13T15:42:00Z</time>
      </trkpt>
      <trkpt lat="45.6912" lon="2.9913">
        <ele>917.23510742188</ele>
        <time>2009-06-13T15:42:07Z</time>
      </trkpt>
      <trkpt lat="45.69115" lon="2.99115">
        <ele>916.75439453125</ele>
        <time>2009-06-13T15:42:12Z</time>
      </trkpt>
      <trkpt lat="45.6911" lon="2.99097">
        <ele>917.71557617188</ele>
        <time>2009-06-13T15:42:18Z</time>
      </trkpt>
      <trkpt lat="45.69107" lon="2.99083">
        <ele>917.23510742188</ele>
        <time>2009-06-13T15:42:23Z</time>
      </trkpt>
      <trkpt lat="45.69101" lon="2.99065">
        <ele>917.23510742188</ele>
        <time>2009-06-13T15:42:29Z</time>
      </trkpt>
      <trkpt lat="45.69095" lon="2.99048">
        <ele>917.71557617188</ele>
        <time>2009-06-13T15:42:35Z</time>
      </trkpt>
      <trkpt lat="45.69088" lon="2.99028">
        <ele>918.1962890625</ele>
        <time>2009-06-13T15:42:42Z</time>
      </trkpt>
      <trkpt lat="45.69084" lon="2.99016">
        <ele>918.67700195312</ele>
        <time>2009-06-13T15:42:47Z</time>
      </trkpt>
      <trkpt lat="45.6908" lon="2.98999">
        <ele>919.63842773438</ele>
        <time>2009-06-13T15:42:56Z</time>
      </trkpt>
      <trkpt lat="45.69075" lon="2.98978">
        <ele>919.15771484375</ele>
        <time>2009-06-13T15:43:03Z</time>
      </trkpt>
      <trkpt lat="45.6907" lon="2.98952">
        <ele>920.11889648438</ele>
        <time>2009-06-13T15:43:09Z</time>
      </trkpt>
      <trkpt lat="45.69067" lon="2.9892">
        <ele>921.56079101562</ele>
        <time>2009-06-13T15:43:16Z</time>
      </trkpt>
      <trkpt lat="45.69061" lon="2.98885">
        <ele>921.08032226562</ele>
        <time>2009-06-13T15:43:24Z</time>
      </trkpt>
      <trkpt lat="45.69051" lon="2.98855">
        <ele>922.04150390625</ele>
        <time>2009-06-13T15:43:31Z</time>
      </trkpt>
      <trkpt lat="45.69039" lon="2.98825">
        <ele>922.04150390625</ele>
        <time>2009-06-13T15:43:38Z</time>
      </trkpt>
      <trkpt lat="45.69024" lon="2.98801">
        <ele>922.52221679688</ele>
        <time>2009-06-13T15:43:45Z</time>
      </trkpt>
      <trkpt lat="45.69017" lon="2.98776">
        <ele>922.52221679688</ele>
        <time>2009-06-13T15:43:51Z</time>
      </trkpt>
      <trkpt lat="45.69004" lon="2.98752">
        <ele>923.0029296875</ele>
        <time>2009-06-13T15:43:57Z</time>
      </trkpt>
      <trkpt lat="45.68985" lon="2.98734">
        <ele>922.52221679688</ele>
        <time>2009-06-13T15:44:03Z</time>
      </trkpt>
      <trkpt lat="45.68975" lon="2.98722">
        <ele>922.52221679688</ele>
        <time>2009-06-13T15:44:06Z</time>
      </trkpt>
      <trkpt lat="45.68968" lon="2.98712">
        <ele>922.04150390625</ele>
        <time>2009-06-13T15:44:08Z</time>
      </trkpt>
      <trkpt lat="45.68951" lon="2.98697">
        <ele>922.04150390625</ele>
        <time>2009-06-13T15:44:13Z</time>
      </trkpt>
      <trkpt lat="45.68943" lon="2.98684">
        <ele>922.52221679688</ele>
        <time>2009-06-13T15:44:17Z</time>
      </trkpt>
      <trkpt lat="45.68932" lon="2.98674">
        <ele>922.52221679688</ele>
        <time>2009-06-13T15:44:21Z</time>
      </trkpt>
      <trkpt lat="45.68917" lon="2.98678">
        <ele>924.44506835938</ele>
        <time>2009-06-13T15:44:26Z</time>
      </trkpt>
      <trkpt lat="45.689" lon="2.98687">
        <ele>923.0029296875</ele>
        <time>2009-06-13T15:44:32Z</time>
      </trkpt>
      <trkpt lat="45.68893" lon="2.98687">
        <ele>921.56079101562</ele>
        <time>2009-06-13T15:44:34Z</time>
      </trkpt>
      <trkpt lat="45.68872" lon="2.98679">
        <ele>920.599609375</ele>
        <time>2009-06-13T15:44:39Z</time>
      </trkpt>
      <trkpt lat="45.68851" lon="2.9867">
        <ele>919.63842773438</ele>
        <time>2009-06-13T15:44:43Z</time>
      </trkpt>
      <trkpt lat="45.68841" lon="2.98662">
        <ele>917.71557617188</ele>
        <time>2009-06-13T15:44:45Z</time>
      </trkpt>
      <trkpt lat="45.68811" lon="2.98632">
        <ele>914.83178710938</ele>
        <time>2009-06-13T15:44:51Z</time>
      </trkpt>
      <trkpt lat="45.68795" lon="2.98603">
        <ele>912.42846679688</ele>
        <time>2009-06-13T15:44:55Z</time>
      </trkpt>
      <trkpt lat="45.68786" lon="2.98587">
        <ele>911.46728515625</ele>
        <time>2009-06-13T15:44:57Z</time>
      </trkpt>
      <trkpt lat="45.68767" lon="2.98561">
        <ele>910.98657226562</ele>
        <time>2009-06-13T15:45:01Z</time>
      </trkpt>
      <trkpt lat="45.68748" lon="2.98522">
        <ele>911.94799804688</ele>
        <time>2009-06-13T15:45:07Z</time>
      </trkpt>
      <trkpt lat="45.68744" lon="2.98493">
        <ele>912.9091796875</ele>
        <time>2009-06-13T15:45:12Z</time>
      </trkpt>
      <trkpt lat="45.68744" lon="2.98488">
        <ele>913.38989257812</ele>
        <time>2009-06-13T15:45:13Z</time>
      </trkpt>
      <trkpt lat="45.68734" lon="2.98466">
        <ele>914.35107421875</ele>
        <time>2009-06-13T15:45:18Z</time>
      </trkpt>
      <trkpt lat="45.68727" lon="2.98459">
        <ele>914.35107421875</ele>
        <time>2009-06-13T15:45:20Z</time>
      </trkpt>
      <trkpt lat="45.68714" lon="2.98445">
        <ele>913.87036132812</ele>
        <time>2009-06-13T15:45:24Z</time>
      </trkpt>
      <trkpt lat="45.68701" lon="2.98437">
        <ele>913.87036132812</ele>
        <time>2009-06-13T15:45:27Z</time>
      </trkpt>
      <trkpt lat="45.68689" lon="2.98427">
        <ele>913.87036132812</ele>
        <time>2009-06-13T15:45:30Z</time>
      </trkpt>
      <trkpt lat="45.68677" lon="2.98401">
        <ele>914.83178710938</ele>
        <time>2009-06-13T15:45:35Z</time>
      </trkpt>
      <trkpt lat="45.68676" lon="2.98368">
        <ele>915.79321289062</ele>
        <time>2009-06-13T15:45:41Z</time>
      </trkpt>
      <trkpt lat="45.68679" lon="2.98333">
        <ele>916.27368164062</ele>
        <time>2009-06-13T15:45:47Z</time>
      </trkpt>
      <trkpt lat="45.68681" lon="2.98312">
        <ele>916.75439453125</ele>
        <time>2009-06-13T15:45:51Z</time>
      </trkpt>
      <trkpt lat="45.68679" lon="2.98286">
        <ele>917.23510742188</ele>
        <time>2009-06-13T15:45:56Z</time>
      </trkpt>
      <trkpt lat="45.68671" lon="2.9826">
        <ele>916.75439453125</ele>
        <time>2009-06-13T15:46:01Z</time>
      </trkpt>
      <trkpt lat="45.68668" lon="2.98255">
        <ele>917.23510742188</ele>
        <time>2009-06-13T15:46:02Z</time>
      </trkpt>
      <trkpt lat="45.68655" lon="2.98226">
        <ele>918.1962890625</ele>
        <time>2009-06-13T15:46:08Z</time>
      </trkpt>
      <trkpt lat="45.68646" lon="2.98215">
        <ele>917.71557617188</ele>
        <time>2009-06-13T15:46:11Z</time>
      </trkpt>
      <trkpt lat="45.68624" lon="2.9818">
        <ele>918.1962890625</ele>
        <time>2009-06-13T15:46:19Z</time>
      </trkpt>
      <trkpt lat="45.68617" lon="2.98167">
        <ele>919.63842773438</ele>
        <time>2009-06-13T15:46:22Z</time>
      </trkpt>
      <trkpt lat="45.6861" lon="2.98145">
        <ele>919.63842773438</ele>
        <time>2009-06-13T15:46:26Z</time>
      </trkpt>
      <trkpt lat="45.68604" lon="2.98111">
        <ele>919.15771484375</ele>
        <time>2009-06-13T15:46:32Z</time>
      </trkpt>
      <trkpt lat="45.68599" lon="2.9809">
        <ele>921.56079101562</ele>
        <time>2009-06-13T15:46:36Z</time>
      </trkpt>
      <trkpt lat="45.6859" lon="2.98068">
        <ele>922.52221679688</ele>
        <time>2009-06-13T15:46:41Z</time>
      </trkpt>
      <trkpt lat="45.68572" lon="2.98051">
        <ele>923.48364257812</ele>
        <time>2009-06-13T15:46:47Z</time>
      </trkpt>
      <trkpt lat="45.68563" lon="2.98047">
        <ele>922.52221679688</ele>
        <time>2009-06-13T15:46:50Z</time>
      </trkpt>
      <trkpt lat="45.68541" lon="2.98041">
        <ele>922.04150390625</ele>
        <time>2009-06-13T15:46:56Z</time>
      </trkpt>
      <trkpt lat="45.68528" lon="2.98033">
        <ele>922.52221679688</ele>
        <time>2009-06-13T15:47:01Z</time>
      </trkpt>
      <trkpt lat="45.68522" lon="2.98032">
        <ele>923.0029296875</ele>
        <time>2009-06-13T15:47:04Z</time>
      </trkpt>
      <trkpt lat="45.68511" lon="2.98022">
        <ele>922.52221679688</ele>
        <time>2009-06-13T15:47:11Z</time>
      </trkpt>
      <trkpt lat="45.68511" lon="2.98019">
        <ele>922.52221679688</ele>
        <time>2009-06-13T15:47:18Z</time>
      </trkpt>
      <trkpt lat="45.68509" lon="2.98019">
        <ele>923.48364257812</ele>
        <time>2009-06-13T15:47:49Z</time>
      </trkpt>
      <trkpt lat="45.68511" lon="2.98019">
        <ele>923.96411132812</ele>
        <time>2009-06-13T15:48:03Z</time>
      </trkpt>
      <trkpt lat="45.68511" lon="2.98019">
        <ele>923.96411132812</ele>
        <time>2009-06-13T15:48:18Z</time>
      </trkpt>
      <trkpt lat="45.6851" lon="2.9802">
        <ele>923.96411132812</ele>
        <time>2009-06-13T15:48:30Z</time>
      </trkpt>
      <trkpt lat="45.6851" lon="2.98024">
        <ele>923.96411132812</ele>
        <time>2009-06-13T15:49:10Z</time>
      </trkpt>
      <trkpt lat="45.68509" lon="2.98022">
        <ele>924.44506835938</ele>
        <time>2009-06-13T15:49:36Z</time>
      </trkpt>
      <trkpt lat="45.68509" lon="2.98021">
        <ele>924.44506835938</ele>
        <time>2009-06-13T15:49:51Z</time>
      </trkpt>
      <trkpt lat="45.68509" lon="2.9802">
        <ele>923.96411132812</ele>
        <time>2009-06-13T15:50:12Z</time>
      </trkpt>
      <trkpt lat="45.68502" lon="2.9802">
        <ele>923.96411132812</ele>
        <time>2009-06-13T15:50:28Z</time>
      </trkpt>
      <trkpt lat="45.68501" lon="2.98024">
        <ele>924.44506835938</ele>
        <time>2009-06-13T15:50:41Z</time>
      </trkpt>
      <trkpt lat="45.68506" lon="2.98018">
        <ele>924.44506835938</ele>
        <time>2009-06-13T15:50:53Z</time>
      </trkpt>
      <trkpt lat="45.68509" lon="2.98018">
        <ele>924.44506835938</ele>
        <time>2009-06-13T15:51:03Z</time>
      </trkpt>
      <trkpt lat="45.6851" lon="2.98018">
        <ele>924.44506835938</ele>
        <time>2009-06-13T15:51:19Z</time>
      </trkpt>
      <trkpt lat="45.6851" lon="2.98016">
        <ele>924.44506835938</ele>
        <time>2009-06-13T15:51:32Z</time>
      </trkpt>
      <trkpt lat="45.6851" lon="2.98013">
        <ele>924.44506835938</ele>
        <time>2009-06-13T15:51:48Z</time>
      </trkpt>
      <trkpt lat="45.68509" lon="2.98016">
        <ele>924.44506835938</ele>
        <time>2009-06-13T15:52:06Z</time>
      </trkpt>
      <trkpt lat="45.6851" lon="2.98018">
        <ele>924.44506835938</ele>
        <time>2009-06-13T15:52:16Z</time>
      </trkpt>
      <trkpt lat="45.68509" lon="2.98022">
        <ele>924.44506835938</ele>
        <time>2009-06-13T15:52:27Z</time>
      </trkpt>
      <trkpt lat="45.68508" lon="2.98024">
        <ele>924.92578125</ele>
        <time>2009-06-13T15:52:51Z</time>
      </trkpt>
      <trkpt lat="45.68509" lon="2.98022">
        <ele>924.92578125</ele>
        <time>2009-06-13T15:53:10Z</time>
      </trkpt>
      <trkpt lat="45.68508" lon="2.98027">
        <ele>924.92578125</ele>
        <time>2009-06-13T15:53:24Z</time>
      </trkpt>
      <trkpt lat="45.68505" lon="2.98024">
        <ele>925.40625</ele>
        <time>2009-06-13T15:53:40Z</time>
      </trkpt>
      <trkpt lat="45.68493" lon="2.98012">
        <ele>924.92578125</ele>
        <time>2009-06-13T15:53:46Z</time>
      </trkpt>
      <trkpt lat="45.68487" lon="2.98007">
        <ele>925.88696289062</ele>
        <time>2009-06-13T15:53:49Z</time>
      </trkpt>
      <trkpt lat="45.68477" lon="2.97993">
        <ele>927.3291015625</ele>
        <time>2009-06-13T15:53:57Z</time>
      </trkpt>
      <trkpt lat="45.68471" lon="2.97984">
        <ele>926.84838867188</ele>
        <time>2009-06-13T15:54:03Z</time>
      </trkpt>
      <trkpt lat="45.68467" lon="2.97979">
        <ele>926.36767578125</ele>
        <time>2009-06-13T15:54:07Z</time>
      </trkpt>
      <trkpt lat="45.68461" lon="2.97965">
        <ele>925.88696289062</ele>
        <time>2009-06-13T15:54:14Z</time>
      </trkpt>
      <trkpt lat="45.68451" lon="2.9796">
        <ele>924.44506835938</ele>
        <time>2009-06-13T15:54:19Z</time>
      </trkpt>
      <trkpt lat="45.68437" lon="2.97966">
        <ele>923.0029296875</ele>
        <time>2009-06-13T15:54:24Z</time>
      </trkpt>
      <trkpt lat="45.68423" lon="2.97974">
        <ele>920.599609375</ele>
        <time>2009-06-13T15:54:28Z</time>
      </trkpt>
      <trkpt lat="45.68403" lon="2.97981">
        <ele>921.08032226562</ele>
        <time>2009-06-13T15:54:33Z</time>
      </trkpt>
      <trkpt lat="45.68386" lon="2.97981">
        <ele>919.63842773438</ele>
        <time>2009-06-13T15:54:39Z</time>
      </trkpt>
      <trkpt lat="45.68372" lon="2.97972">
        <ele>919.15771484375</ele>
        <time>2009-06-13T15:54:44Z</time>
      </trkpt>
      <trkpt lat="45.68357" lon="2.97958">
        <ele>918.67700195312</ele>
        <time>2009-06-13T15:54:49Z</time>
      </trkpt>
      <trkpt lat="45.6834" lon="2.97949">
        <ele>919.15771484375</ele>
        <time>2009-06-13T15:54:54Z</time>
      </trkpt>
      <trkpt lat="45.68321" lon="2.97951">
        <ele>919.15771484375</ele>
        <time>2009-06-13T15:55:00Z</time>
      </trkpt>
      <trkpt lat="45.683" lon="2.97953">
        <ele>918.1962890625</ele>
        <time>2009-06-13T15:55:06Z</time>
      </trkpt>
      <trkpt lat="45.68279" lon="2.97953">
        <ele>915.3125</ele>
        <time>2009-06-13T15:55:11Z</time>
      </trkpt>
      <trkpt lat="45.68269" lon="2.97951">
        <ele>914.83178710938</ele>
        <time>2009-06-13T15:55:13Z</time>
      </trkpt>
      <trkpt lat="45.6826" lon="2.97948">
        <ele>914.35107421875</ele>
        <time>2009-06-13T15:55:15Z</time>
      </trkpt>
      <trkpt lat="45.68231" lon="2.97941">
        <ele>913.38989257812</ele>
        <time>2009-06-13T15:55:20Z</time>
      </trkpt>
      <trkpt lat="45.68212" lon="2.97936">
        <ele>913.38989257812</ele>
        <time>2009-06-13T15:55:24Z</time>
      </trkpt>
      <trkpt lat="45.68184" lon="2.9793">
        <ele>913.38989257812</ele>
        <time>2009-06-13T15:55:29Z</time>
      </trkpt>
      <trkpt lat="45.68173" lon="2.97928">
        <ele>913.87036132812</ele>
        <time>2009-06-13T15:55:31Z</time>
      </trkpt>
      <trkpt lat="45.68156" lon="2.97916">
        <ele>912.9091796875</ele>
        <time>2009-06-13T15:55:35Z</time>
      </trkpt>
      <trkpt lat="45.68138" lon="2.97893">
        <ele>913.38989257812</ele>
        <time>2009-06-13T15:55:41Z</time>
      </trkpt>
      <trkpt lat="45.68127" lon="2.97872">
        <ele>913.38989257812</ele>
        <time>2009-06-13T15:55:46Z</time>
      </trkpt>
      <trkpt lat="45.68116" lon="2.97847">
        <ele>912.42846679688</ele>
        <time>2009-06-13T15:55:52Z</time>
      </trkpt>
      <trkpt lat="45.6811" lon="2.97833">
        <ele>912.9091796875</ele>
        <time>2009-06-13T15:55:55Z</time>
      </trkpt>
      <trkpt lat="45.68103" lon="2.97811">
        <ele>912.9091796875</ele>
        <time>2009-06-13T15:55:59Z</time>
      </trkpt>
      <trkpt lat="45.6809" lon="2.97774">
        <ele>914.35107421875</ele>
        <time>2009-06-13T15:56:07Z</time>
      </trkpt>
      <trkpt lat="45.68082" lon="2.97747">
        <ele>915.79321289062</ele>
        <time>2009-06-13T15:56:14Z</time>
      </trkpt>
      <trkpt lat="45.6807" lon="2.97718">
        <ele>915.79321289062</ele>
        <time>2009-06-13T15:56:22Z</time>
      </trkpt>
      <trkpt lat="45.6806" lon="2.97695">
        <ele>916.75439453125</ele>
        <time>2009-06-13T15:56:28Z</time>
      </trkpt>
      <trkpt lat="45.68048" lon="2.97673">
        <ele>917.71557617188</ele>
        <time>2009-06-13T15:56:34Z</time>
      </trkpt>
      <trkpt lat="45.6803" lon="2.9765">
        <ele>918.67700195312</ele>
        <time>2009-06-13T15:56:41Z</time>
      </trkpt>
      <trkpt lat="45.6801" lon="2.97634">
        <ele>918.67700195312</ele>
        <time>2009-06-13T15:56:47Z</time>
      </trkpt>
      <trkpt lat="45.67978" lon="2.97605">
        <ele>921.08032226562</ele>
        <time>2009-06-13T15:56:57Z</time>
      </trkpt>
      <trkpt lat="45.67955" lon="2.97585">
        <ele>921.56079101562</ele>
        <time>2009-06-13T15:57:05Z</time>
      </trkpt>
      <trkpt lat="45.67934" lon="2.97566">
        <ele>921.56079101562</ele>
        <time>2009-06-13T15:57:12Z</time>
      </trkpt>
      <trkpt lat="45.6792" lon="2.97552">
        <ele>921.08032226562</ele>
        <time>2009-06-13T15:57:16Z</time>
      </trkpt>
      <trkpt lat="45.67907" lon="2.97534">
        <ele>921.08032226562</ele>
        <time>2009-06-13T15:57:20Z</time>
      </trkpt>
      <trkpt lat="45.67888" lon="2.97497">
        <ele>922.52221679688</ele>
        <time>2009-06-13T15:57:28Z</time>
      </trkpt>
      <trkpt lat="45.67886" lon="2.97495">
        <ele>923.0029296875</ele>
        <time>2009-06-13T15:57:29Z</time>
      </trkpt>
      <trkpt lat="45.67879" lon="2.97483">
        <ele>922.04150390625</ele>
        <time>2009-06-13T15:57:34Z</time>
      </trkpt>
      <trkpt lat="45.67859" lon="2.97447">
        <ele>923.0029296875</ele>
        <time>2009-06-13T15:57:42Z</time>
      </trkpt>
      <trkpt lat="45.67833" lon="2.97401">
        <ele>923.0029296875</ele>
        <time>2009-06-13T15:57:51Z</time>
      </trkpt>
      <trkpt lat="45.67818" lon="2.97375">
        <ele>924.44506835938</ele>
        <time>2009-06-13T15:57:56Z</time>
      </trkpt>
      <trkpt lat="45.67804" lon="2.97342">
        <ele>924.92578125</ele>
        <time>2009-06-13T15:58:03Z</time>
      </trkpt>
      <trkpt lat="45.67789" lon="2.97307">
        <ele>923.96411132812</ele>
        <time>2009-06-13T15:58:11Z</time>
      </trkpt>
      <trkpt lat="45.67772" lon="2.97271">
        <ele>924.92578125</ele>
        <time>2009-06-13T15:58:19Z</time>
      </trkpt>
      <trkpt lat="45.6775" lon="2.97244">
        <ele>924.44506835938</ele>
        <time>2009-06-13T15:58:26Z</time>
      </trkpt>
      <trkpt lat="45.67728" lon="2.97222">
        <ele>924.92578125</ele>
        <time>2009-06-13T15:58:33Z</time>
      </trkpt>
      <trkpt lat="45.6772" lon="2.9723">
        <ele>925.88696289062</ele>
        <time>2009-06-13T15:58:37Z</time>
      </trkpt>
      <trkpt lat="45.6772" lon="2.97234">
        <ele>924.44506835938</ele>
        <time>2009-06-13T15:58:38Z</time>
      </trkpt>
      <trkpt lat="45.67719" lon="2.97242">
        <ele>923.96411132812</ele>
        <time>2009-06-13T15:58:40Z</time>
      </trkpt>
      <trkpt lat="45.6772" lon="2.97258">
        <ele>922.52221679688</ele>
        <time>2009-06-13T15:58:46Z</time>
      </trkpt>
      <trkpt lat="45.67717" lon="2.97277">
        <ele>920.599609375</ele>
        <time>2009-06-13T15:58:52Z</time>
      </trkpt>
      <trkpt lat="45.67716" lon="2.97293">
        <ele>918.1962890625</ele>
        <time>2009-06-13T15:58:55Z</time>
      </trkpt>
      <trkpt lat="45.67716" lon="2.97317">
        <ele>916.27368164062</ele>
        <time>2009-06-13T15:58:59Z</time>
      </trkpt>
      <trkpt lat="45.67715" lon="2.97331">
        <ele>914.83178710938</ele>
        <time>2009-06-13T15:59:01Z</time>
      </trkpt>
      <trkpt lat="45.67713" lon="2.97362">
        <ele>912.42846679688</ele>
        <time>2009-06-13T15:59:05Z</time>
      </trkpt>
      <trkpt lat="45.6771" lon="2.97387">
        <ele>911.94799804688</ele>
        <time>2009-06-13T15:59:09Z</time>
      </trkpt>
      <trkpt lat="45.6771" lon="2.97391">
        <ele>911.94799804688</ele>
        <time>2009-06-13T15:59:10Z</time>
      </trkpt>
      <trkpt lat="45.67719" lon="2.97402">
        <ele>911.46728515625</ele>
        <time>2009-06-13T15:59:15Z</time>
      </trkpt>
      <trkpt lat="45.67722" lon="2.97407">
        <ele>910.98657226562</ele>
        <time>2009-06-13T15:59:19Z</time>
      </trkpt>
      <trkpt lat="45.67721" lon="2.97406">
        <ele>910.98657226562</ele>
        <time>2009-06-13T15:59:20Z</time>
      </trkpt>
      <trkpt lat="45.67712" lon="2.97395">
        <ele>911.94799804688</ele>
        <time>2009-06-13T15:59:27Z</time>
      </trkpt>
      <trkpt lat="45.67708" lon="2.97394">
        <ele>911.46728515625</ele>
        <time>2009-06-13T15:59:33Z</time>
      </trkpt>
      <trkpt lat="45.67707" lon="2.97395">
        <ele>911.46728515625</ele>
        <time>2009-06-13T15:59:45Z</time>
      </trkpt>
      <trkpt lat="45.67693" lon="2.97402">
        <ele>910.98657226562</ele>
        <time>2009-06-13T15:59:52Z</time>
      </trkpt>
      <trkpt lat="45.67685" lon="2.97409">
        <ele>910.98657226562</ele>
        <time>2009-06-13T15:59:56Z</time>
      </trkpt>
      <trkpt lat="45.67681" lon="2.97408">
        <ele>910.98657226562</ele>
        <time>2009-06-13T15:59:59Z</time>
      </trkpt>
      <trkpt lat="45.6769" lon="2.97404">
        <ele>910.98657226562</ele>
        <time>2009-06-13T16:00:04Z</time>
      </trkpt>
      <trkpt lat="45.67703" lon="2.97399">
        <ele>911.46728515625</ele>
        <time>2009-06-13T16:00:10Z</time>
      </trkpt>
      <trkpt lat="45.67719" lon="2.97402">
        <ele>910.98657226562</ele>
        <time>2009-06-13T16:00:17Z</time>
      </trkpt>
      <trkpt lat="45.67729" lon="2.97418">
        <ele>910.505859375</ele>
        <time>2009-06-13T16:00:22Z</time>
      </trkpt>
      <trkpt lat="45.67743" lon="2.97446">
        <ele>910.02514648438</ele>
        <time>2009-06-13T16:00:29Z</time>
      </trkpt>
      <trkpt lat="45.67744" lon="2.9745">
        <ele>910.02514648438</ele>
        <time>2009-06-13T16:00:30Z</time>
      </trkpt>
      <trkpt lat="45.67745" lon="2.97457">
        <ele>910.02514648438</ele>
        <time>2009-06-13T16:00:35Z</time>
      </trkpt>
      <trkpt lat="45.67744" lon="2.97457">
        <ele>909.54467773438</ele>
        <time>2009-06-13T16:01:07Z</time>
      </trkpt>
      <trkpt lat="45.67742" lon="2.97458">
        <ele>909.54467773438</ele>
        <time>2009-06-13T16:01:13Z</time>
      </trkpt>
      <trkpt lat="45.67743" lon="2.97459">
        <ele>909.54467773438</ele>
        <time>2009-06-13T16:01:32Z</time>
      </trkpt>
      <trkpt lat="45.67743" lon="2.97457">
        <ele>909.54467773438</ele>
        <time>2009-06-13T16:02:58Z</time>
      </trkpt>
      <trkpt lat="45.67744" lon="2.97457">
        <ele>910.02514648438</ele>
        <time>2009-06-13T16:03:07Z</time>
      </trkpt>
      <trkpt lat="45.67744" lon="2.97461">
        <ele>909.54467773438</ele>
        <time>2009-06-13T16:03:14Z</time>
      </trkpt>
      <trkpt lat="45.67744" lon="2.97471">
        <ele>908.58325195312</ele>
        <time>2009-06-13T16:03:18Z</time>
      </trkpt>
      <trkpt lat="45.67742" lon="2.97494">
        <ele>906.66040039062</ele>
        <time>2009-06-13T16:03:22Z</time>
      </trkpt>
      <trkpt lat="45.67741" lon="2.97517">
        <ele>903.2958984375</ele>
        <time>2009-06-13T16:03:25Z</time>
      </trkpt>
      <trkpt lat="45.67737" lon="2.97554">
        <ele>900.892578125</ele>
        <time>2009-06-13T16:03:29Z</time>
      </trkpt>
      <trkpt lat="45.67733" lon="2.97583">
        <ele>898.96997070312</ele>
        <time>2009-06-13T16:03:32Z</time>
      </trkpt>
      <trkpt lat="45.67729" lon="2.97633">
        <ele>895.60546875</ele>
        <time>2009-06-13T16:03:37Z</time>
      </trkpt>
      <trkpt lat="45.67728" lon="2.97642">
        <ele>896.08618164062</ele>
        <time>2009-06-13T16:03:38Z</time>
      </trkpt>
      <trkpt lat="45.67722" lon="2.97712">
        <ele>894.16357421875</ele>
        <time>2009-06-13T16:03:45Z</time>
      </trkpt>
      <trkpt lat="45.6772" lon="2.97741">
        <ele>893.68286132812</ele>
        <time>2009-06-13T16:03:48Z</time>
      </trkpt>
      <trkpt lat="45.67718" lon="2.97761">
        <ele>892.24096679688</ele>
        <time>2009-06-13T16:03:50Z</time>
      </trkpt>
      <trkpt lat="45.67716" lon="2.97809">
        <ele>891.76000976562</ele>
        <time>2009-06-13T16:03:55Z</time>
      </trkpt>
      <trkpt lat="45.67716" lon="2.97828">
        <ele>890.79858398438</ele>
        <time>2009-06-13T16:03:57Z</time>
      </trkpt>
      <trkpt lat="45.67727" lon="2.97882">
        <ele>889.83740234375</ele>
        <time>2009-06-13T16:04:03Z</time>
      </trkpt>
      <trkpt lat="45.67749" lon="2.97936">
        <ele>888.87622070312</ele>
        <time>2009-06-13T16:04:10Z</time>
      </trkpt>
      <trkpt lat="45.6776" lon="2.97972">
        <ele>885.9921875</ele>
        <time>2009-06-13T16:04:14Z</time>
      </trkpt>
      <trkpt lat="45.67772" lon="2.98015">
        <ele>883.10815429688</ele>
        <time>2009-06-13T16:04:18Z</time>
      </trkpt>
      <trkpt lat="45.67781" lon="2.98063">
        <ele>886.95336914062</ele>
        <time>2009-06-13T16:04:23Z</time>
      </trkpt>
      <trkpt lat="45.67782" lon="2.98069">
        <ele>887.43408203125</ele>
        <time>2009-06-13T16:04:24Z</time>
      </trkpt>
      <trkpt lat="45.67785" lon="2.9808">
        <ele>888.87622070312</ele>
        <time>2009-06-13T16:04:26Z</time>
      </trkpt>
      <trkpt lat="45.67786" lon="2.98086">
        <ele>888.87622070312</ele>
        <time>2009-06-13T16:04:27Z</time>
      </trkpt>
      <trkpt lat="45.67796" lon="2.98122">
        <ele>887.43408203125</ele>
        <time>2009-06-13T16:04:33Z</time>
      </trkpt>
      <trkpt lat="45.67793" lon="2.98143">
        <ele>888.87622070312</ele>
        <time>2009-06-13T16:04:37Z</time>
      </trkpt>
      <trkpt lat="45.67788" lon="2.98145">
        <ele>889.83740234375</ele>
        <time>2009-06-13T16:04:39Z</time>
      </trkpt>
      <trkpt lat="45.67769" lon="2.98153">
        <ele>890.31811523438</ele>
        <time>2009-06-13T16:04:45Z</time>
      </trkpt>
      <trkpt lat="45.67759" lon="2.98156">
        <ele>890.79858398438</ele>
        <time>2009-06-13T16:04:50Z</time>
      </trkpt>
      <trkpt lat="45.67756" lon="2.98158">
        <ele>890.79858398438</ele>
        <time>2009-06-13T16:04:53Z</time>
      </trkpt>
      <trkpt lat="45.67741" lon="2.98164">
        <ele>890.31811523438</ele>
        <time>2009-06-13T16:05:00Z</time>
      </trkpt>
      <trkpt lat="45.67721" lon="2.98169">
        <ele>890.79858398438</ele>
        <time>2009-06-13T16:05:07Z</time>
      </trkpt>
      <trkpt lat="45.67696" lon="2.98175">
        <ele>890.79858398438</ele>
        <time>2009-06-13T16:05:14Z</time>
      </trkpt>
      <trkpt lat="45.67684" lon="2.98179">
        <ele>890.31811523438</ele>
        <time>2009-06-13T16:05:17Z</time>
      </trkpt>
      <trkpt lat="45.67649" lon="2.98197">
        <ele>890.31811523438</ele>
        <time>2009-06-13T16:05:25Z</time>
      </trkpt>
      <trkpt lat="45.67631" lon="2.98206">
        <ele>887.43408203125</ele>
        <time>2009-06-13T16:05:29Z</time>
      </trkpt>
      <trkpt lat="45.67596" lon="2.98208">
        <ele>887.91479492188</ele>
        <time>2009-06-13T16:05:35Z</time>
      </trkpt>
      <trkpt lat="45.6758" lon="2.98206">
        <ele>889.83740234375</ele>
        <time>2009-06-13T16:05:39Z</time>
      </trkpt>
      <trkpt lat="45.67563" lon="2.98207">
        <ele>891.279296875</ele>
        <time>2009-06-13T16:05:43Z</time>
      </trkpt>
      <trkpt lat="45.67531" lon="2.98197">
        <ele>894.16357421875</ele>
        <time>2009-06-13T16:05:50Z</time>
      </trkpt>
      <trkpt lat="45.67512" lon="2.98186">
        <ele>897.04736328125</ele>
        <time>2009-06-13T16:05:55Z</time>
      </trkpt>
      <trkpt lat="45.67503" lon="2.98182">
        <ele>898.96997070312</ele>
        <time>2009-06-13T16:05:58Z</time>
      </trkpt>
      <trkpt lat="45.67495" lon="2.98178">
        <ele>899.93139648438</ele>
        <time>2009-06-13T16:06:03Z</time>
      </trkpt>
      <trkpt lat="45.67484" lon="2.98177">
        <ele>900.412109375</ele>
        <time>2009-06-13T16:06:08Z</time>
      </trkpt>
      <trkpt lat="45.67459" lon="2.98169">
        <ele>900.412109375</ele>
        <time>2009-06-13T16:06:17Z</time>
      </trkpt>
      <trkpt lat="45.67432" lon="2.98155">
        <ele>900.412109375</ele>
        <time>2009-06-13T16:06:25Z</time>
      </trkpt>
      <trkpt lat="45.674" lon="2.98148">
        <ele>901.37329101562</ele>
        <time>2009-06-13T16:06:34Z</time>
      </trkpt>
      <trkpt lat="45.67365" lon="2.98152">
        <ele>901.85400390625</ele>
        <time>2009-06-13T16:06:43Z</time>
      </trkpt>
      <trkpt lat="45.67336" lon="2.9816">
        <ele>901.37329101562</ele>
        <time>2009-06-13T16:06:51Z</time>
      </trkpt>
      <trkpt lat="45.67313" lon="2.98163">
        <ele>900.892578125</ele>
        <time>2009-06-13T16:06:58Z</time>
      </trkpt>
      <trkpt lat="45.6729" lon="2.98161">
        <ele>899.93139648438</ele>
        <time>2009-06-13T16:07:05Z</time>
      </trkpt>
      <trkpt lat="45.6726" lon="2.98159">
        <ele>898.4892578125</ele>
        <time>2009-06-13T16:07:13Z</time>
      </trkpt>
      <trkpt lat="45.67233" lon="2.98156">
        <ele>897.04736328125</ele>
        <time>2009-06-13T16:07:20Z</time>
      </trkpt>
      <trkpt lat="45.67205" lon="2.98148">
        <ele>897.04736328125</ele>
        <time>2009-06-13T16:07:28Z</time>
      </trkpt>
      <trkpt lat="45.67198" lon="2.98144">
        <ele>897.04736328125</ele>
        <time>2009-06-13T16:07:30Z</time>
      </trkpt>
      <trkpt lat="45.6717" lon="2.98133">
        <ele>895.12475585938</ele>
        <time>2009-06-13T16:07:37Z</time>
      </trkpt>
      <trkpt lat="45.67162" lon="2.98127">
        <ele>893.68286132812</ele>
        <time>2009-06-13T16:07:39Z</time>
      </trkpt>
      <trkpt lat="45.6714" lon="2.98108">
        <ele>892.7216796875</ele>
        <time>2009-06-13T16:07:46Z</time>
      </trkpt>
      <trkpt lat="45.6713" lon="2.98105">
        <ele>893.2021484375</ele>
        <time>2009-06-13T16:07:50Z</time>
      </trkpt>
      <trkpt lat="45.67113" lon="2.98109">
        <ele>892.7216796875</ele>
        <time>2009-06-13T16:07:57Z</time>
      </trkpt>
      <trkpt lat="45.67101" lon="2.98116">
        <ele>891.76000976562</ele>
        <time>2009-06-13T16:08:03Z</time>
      </trkpt>
      <trkpt lat="45.67089" lon="2.98119">
        <ele>891.76000976562</ele>
        <time>2009-06-13T16:08:09Z</time>
      </trkpt>
      <trkpt lat="45.6707" lon="2.98109">
        <ele>889.83740234375</ele>
        <time>2009-06-13T16:08:17Z</time>
      </trkpt>
      <trkpt lat="45.67056" lon="2.98106">
        <ele>887.91479492188</ele>
        <time>2009-06-13T16:08:21Z</time>
      </trkpt>
      <trkpt lat="45.67041" lon="2.98109">
        <ele>888.87622070312</ele>
        <time>2009-06-13T16:08:25Z</time>
      </trkpt>
      <trkpt lat="45.67033" lon="2.98117">
        <ele>889.83740234375</ele>
        <time>2009-06-13T16:08:29Z</time>
      </trkpt>
      <trkpt lat="45.67024" lon="2.98126">
        <ele>889.83740234375</ele>
        <time>2009-06-13T16:08:36Z</time>
      </trkpt>
      <trkpt lat="45.67013" lon="2.98125">
        <ele>890.31811523438</ele>
        <time>2009-06-13T16:08:43Z</time>
      </trkpt>
      <trkpt lat="45.67013" lon="2.98124">
        <ele>890.31811523438</ele>
        <time>2009-06-13T16:08:53Z</time>
      </trkpt>
      <trkpt lat="45.67012" lon="2.98123">
        <ele>889.35668945312</ele>
        <time>2009-06-13T16:09:08Z</time>
      </trkpt>
      <trkpt lat="45.6701" lon="2.9812">
        <ele>890.31811523438</ele>
        <time>2009-06-13T16:09:33Z</time>
      </trkpt>
      <trkpt lat="45.67008" lon="2.98116">
        <ele>889.83740234375</ele>
        <time>2009-06-13T16:09:35Z</time>
      </trkpt>
      <trkpt lat="45.67006" lon="2.9809">
        <ele>890.31811523438</ele>
        <time>2009-06-13T16:09:41Z</time>
      </trkpt>
      <trkpt lat="45.67005" lon="2.98052">
        <ele>891.279296875</ele>
        <time>2009-06-13T16:09:48Z</time>
      </trkpt>
      <trkpt lat="45.67001" lon="2.98022">
        <ele>892.24096679688</ele>
        <time>2009-06-13T16:09:54Z</time>
      </trkpt>
      <trkpt lat="45.66997" lon="2.97994">
        <ele>893.68286132812</ele>
        <time>2009-06-13T16:10:01Z</time>
      </trkpt>
      <trkpt lat="45.66993" lon="2.97959">
        <ele>895.60546875</ele>
        <time>2009-06-13T16:10:10Z</time>
      </trkpt>
      <trkpt lat="45.66991" lon="2.97936">
        <ele>897.04736328125</ele>
        <time>2009-06-13T16:10:16Z</time>
      </trkpt>
      <trkpt lat="45.66989" lon="2.97917">
        <ele>897.52807617188</ele>
        <time>2009-06-13T16:10:21Z</time>
      </trkpt>
      <trkpt lat="45.66986" lon="2.97889">
        <ele>898.4892578125</ele>
        <time>2009-06-13T16:10:28Z</time>
      </trkpt>
      <trkpt lat="45.66986" lon="2.97862">
        <ele>900.412109375</ele>
        <time>2009-06-13T16:10:35Z</time>
      </trkpt>
      <trkpt lat="45.66987" lon="2.97834">
        <ele>900.892578125</ele>
        <time>2009-06-13T16:10:42Z</time>
      </trkpt>
      <trkpt lat="45.66987" lon="2.9781">
        <ele>902.33447265625</ele>
        <time>2009-06-13T16:10:48Z</time>
      </trkpt>
      <trkpt lat="45.66989" lon="2.97787">
        <ele>903.2958984375</ele>
        <time>2009-06-13T16:10:54Z</time>
      </trkpt>
      <trkpt lat="45.6699" lon="2.97767">
        <ele>903.77661132812</ele>
        <time>2009-06-13T16:10:59Z</time>
      </trkpt>
      <trkpt lat="45.66991" lon="2.97745">
        <ele>904.25732421875</ele>
        <time>2009-06-13T16:11:06Z</time>
      </trkpt>
      <trkpt lat="45.66993" lon="2.97715">
        <ele>905.69921875</ele>
        <time>2009-06-13T16:11:14Z</time>
      </trkpt>
      <trkpt lat="45.66996" lon="2.97679">
        <ele>907.62182617188</ele>
        <time>2009-06-13T16:11:23Z</time>
      </trkpt>
      <trkpt lat="45.66996" lon="2.97645">
        <ele>909.06396484375</ele>
        <time>2009-06-13T16:11:31Z</time>
      </trkpt>
      <trkpt lat="45.66989" lon="2.97612">
        <ele>911.46728515625</ele>
        <time>2009-06-13T16:11:39Z</time>
      </trkpt>
      <trkpt lat="45.66982" lon="2.97574">
        <ele>912.42846679688</ele>
        <time>2009-06-13T16:11:48Z</time>
      </trkpt>
      <trkpt lat="45.66974" lon="2.9753">
        <ele>914.35107421875</ele>
        <time>2009-06-13T16:11:59Z</time>
      </trkpt>
      <trkpt lat="45.66973" lon="2.97515">
        <ele>914.83178710938</ele>
        <time>2009-06-13T16:12:05Z</time>
      </trkpt>
      <trkpt lat="45.66972" lon="2.97503">
        <ele>915.79321289062</ele>
        <time>2009-06-13T16:12:11Z</time>
      </trkpt>
      <trkpt lat="45.66972" lon="2.97503">
        <ele>915.3125</ele>
        <time>2009-06-13T16:12:17Z</time>
      </trkpt>
      <trkpt lat="45.66971" lon="2.97503">
        <ele>915.3125</ele>
        <time>2009-06-13T16:12:37Z</time>
      </trkpt>
      <trkpt lat="45.66972" lon="2.97503">
        <ele>915.3125</ele>
        <time>2009-06-13T16:13:13Z</time>
      </trkpt>
      <trkpt lat="45.66972" lon="2.97503">
        <ele>915.3125</ele>
        <time>2009-06-13T16:13:48Z</time>
      </trkpt>
      <trkpt lat="45.66971" lon="2.97502">
        <ele>914.83178710938</ele>
        <time>2009-06-13T16:14:23Z</time>
      </trkpt>
      <trkpt lat="45.6696" lon="2.97498">
        <ele>914.35107421875</ele>
        <time>2009-06-13T16:14:30Z</time>
      </trkpt>
      <trkpt lat="45.66939" lon="2.97498">
        <ele>912.9091796875</ele>
        <time>2009-06-13T16:14:37Z</time>
      </trkpt>
      <trkpt lat="45.66911" lon="2.97493">
        <ele>911.46728515625</ele>
        <time>2009-06-13T16:14:44Z</time>
      </trkpt>
      <trkpt lat="45.66907" lon="2.97491">
        <ele>910.98657226562</ele>
        <time>2009-06-13T16:14:45Z</time>
      </trkpt>
      <trkpt lat="45.66882" lon="2.97465">
        <ele>910.98657226562</ele>
        <time>2009-06-13T16:14:51Z</time>
      </trkpt>
      <trkpt lat="45.66874" lon="2.97452">
        <ele>910.505859375</ele>
        <time>2009-06-13T16:14:55Z</time>
      </trkpt>
      <trkpt lat="45.66871" lon="2.97448">
        <ele>909.54467773438</ele>
        <time>2009-06-13T16:14:56Z</time>
      </trkpt>
      <trkpt lat="45.66864" lon="2.9744">
        <ele>909.06396484375</ele>
        <time>2009-06-13T16:14:58Z</time>
      </trkpt>
      <trkpt lat="45.66854" lon="2.97436">
        <ele>908.10278320312</ele>
        <time>2009-06-13T16:15:00Z</time>
      </trkpt>
      <trkpt lat="45.66833" lon="2.97436">
        <ele>907.62182617188</ele>
        <time>2009-06-13T16:15:04Z</time>
      </trkpt>
      <trkpt lat="45.66817" lon="2.97443">
        <ele>908.58325195312</ele>
        <time>2009-06-13T16:15:09Z</time>
      </trkpt>
      <trkpt lat="45.66795" lon="2.97456">
        <ele>909.54467773438</ele>
        <time>2009-06-13T16:15:17Z</time>
      </trkpt>
      <trkpt lat="45.66778" lon="2.97465">
        <ele>910.02514648438</ele>
        <time>2009-06-13T16:15:24Z</time>
      </trkpt>
      <trkpt lat="45.66761" lon="2.9747">
        <ele>910.505859375</ele>
        <time>2009-06-13T16:15:30Z</time>
      </trkpt>
      <trkpt lat="45.66737" lon="2.97478">
        <ele>910.505859375</ele>
        <time>2009-06-13T16:15:37Z</time>
      </trkpt>
      <trkpt lat="45.66712" lon="2.97478">
        <ele>910.98657226562</ele>
        <time>2009-06-13T16:15:43Z</time>
      </trkpt>
      <trkpt lat="45.66708" lon="2.97478">
        <ele>910.505859375</ele>
        <time>2009-06-13T16:15:44Z</time>
      </trkpt>
      <trkpt lat="45.66688" lon="2.97469">
        <ele>911.94799804688</ele>
        <time>2009-06-13T16:15:49Z</time>
      </trkpt>
      <trkpt lat="45.66677" lon="2.97462">
        <ele>910.98657226562</ele>
        <time>2009-06-13T16:15:52Z</time>
      </trkpt>
      <trkpt lat="45.66643" lon="2.97441">
        <ele>908.58325195312</ele>
        <time>2009-06-13T16:15:59Z</time>
      </trkpt>
      <trkpt lat="45.66589" lon="2.97406">
        <ele>907.62182617188</ele>
        <time>2009-06-13T16:16:09Z</time>
      </trkpt>
      <trkpt lat="45.66548" lon="2.97382">
        <ele>908.10278320312</ele>
        <time>2009-06-13T16:16:17Z</time>
      </trkpt>
      <trkpt lat="45.66528" lon="2.97373">
        <ele>908.10278320312</ele>
        <time>2009-06-13T16:16:21Z</time>
      </trkpt>
      <trkpt lat="45.66478" lon="2.9736">
        <ele>907.62182617188</ele>
        <time>2009-06-13T16:16:31Z</time>
      </trkpt>
      <trkpt lat="45.66461" lon="2.97353">
        <ele>909.54467773438</ele>
        <time>2009-06-13T16:16:35Z</time>
      </trkpt>
      <trkpt lat="45.66446" lon="2.97356">
        <ele>909.06396484375</ele>
        <time>2009-06-13T16:16:39Z</time>
      </trkpt>
      <trkpt lat="45.66443" lon="2.97371">
        <ele>910.02514648438</ele>
        <time>2009-06-13T16:16:42Z</time>
      </trkpt>
      <trkpt lat="45.66446" lon="2.97381">
        <ele>909.54467773438</ele>
        <time>2009-06-13T16:16:44Z</time>
      </trkpt>
      <trkpt lat="45.66456" lon="2.97415">
        <ele>910.02514648438</ele>
        <time>2009-06-13T16:16:51Z</time>
      </trkpt>
      <trkpt lat="45.66467" lon="2.9746">
        <ele>911.46728515625</ele>
        <time>2009-06-13T16:16:59Z</time>
      </trkpt>
      <trkpt lat="45.66472" lon="2.97485">
        <ele>911.94799804688</ele>
        <time>2009-06-13T16:17:04Z</time>
      </trkpt>
      <trkpt lat="45.66486" lon="2.9753">
        <ele>910.505859375</ele>
        <time>2009-06-13T16:17:12Z</time>
      </trkpt>
      <trkpt lat="45.66489" lon="2.97561">
        <ele>910.505859375</ele>
        <time>2009-06-13T16:17:18Z</time>
      </trkpt>
      <trkpt lat="45.66482" lon="2.97573">
        <ele>910.505859375</ele>
        <time>2009-06-13T16:17:23Z</time>
      </trkpt>
      <trkpt lat="45.66468" lon="2.97582">
        <ele>910.02514648438</ele>
        <time>2009-06-13T16:17:29Z</time>
      </trkpt>
      <trkpt lat="45.66449" lon="2.97593">
        <ele>910.02514648438</ele>
        <time>2009-06-13T16:17:37Z</time>
      </trkpt>
      <trkpt lat="45.66443" lon="2.97595">
        <ele>909.54467773438</ele>
        <time>2009-06-13T16:17:42Z</time>
      </trkpt>
      <trkpt lat="45.6644" lon="2.97604">
        <ele>909.54467773438</ele>
        <time>2009-06-13T16:17:48Z</time>
      </trkpt>
      <trkpt lat="45.66434" lon="2.97606">
        <ele>909.06396484375</ele>
        <time>2009-06-13T16:17:53Z</time>
      </trkpt>
      <trkpt lat="45.66431" lon="2.97609">
        <ele>909.06396484375</ele>
        <time>2009-06-13T16:17:55Z</time>
      </trkpt>
      <trkpt lat="45.66428" lon="2.97611">
        <ele>908.58325195312</ele>
        <time>2009-06-13T16:18:00Z</time>
      </trkpt>
      <trkpt lat="45.66428" lon="2.97611">
        <ele>909.06396484375</ele>
        <time>2009-06-13T16:18:08Z</time>
      </trkpt>
      <trkpt lat="45.6642" lon="2.9762">
        <ele>906.66040039062</ele>
        <time>2009-06-13T16:18:13Z</time>
      </trkpt>
      <trkpt lat="45.66404" lon="2.97635">
        <ele>905.69921875</ele>
        <time>2009-06-13T16:18:17Z</time>
      </trkpt>
      <trkpt lat="45.66383" lon="2.9765">
        <ele>902.81518554688</ele>
        <time>2009-06-13T16:18:21Z</time>
      </trkpt>
      <trkpt lat="45.6637" lon="2.97654">
        <ele>901.37329101562</ele>
        <time>2009-06-13T16:18:23Z</time>
      </trkpt>
      <trkpt lat="45.66357" lon="2.97655">
        <ele>900.412109375</ele>
        <time>2009-06-13T16:18:25Z</time>
      </trkpt>
      <trkpt lat="45.6635" lon="2.97655">
        <ele>899.93139648438</ele>
        <time>2009-06-13T16:18:26Z</time>
      </trkpt>
      <trkpt lat="45.6633" lon="2.97649">
        <ele>897.52807617188</ele>
        <time>2009-06-13T16:18:29Z</time>
      </trkpt>
      <trkpt lat="45.66315" lon="2.9763">
        <ele>897.04736328125</ele>
        <time>2009-06-13T16:18:32Z</time>
      </trkpt>
      <trkpt lat="45.66312" lon="2.97621">
        <ele>897.04736328125</ele>
        <time>2009-06-13T16:18:33Z</time>
      </trkpt>
      <trkpt lat="45.66304" lon="2.97596">
        <ele>896.56689453125</ele>
        <time>2009-06-13T16:18:36Z</time>
      </trkpt>
      <trkpt lat="45.66294" lon="2.97551">
        <ele>893.2021484375</ele>
        <time>2009-06-13T16:18:42Z</time>
      </trkpt>
      <trkpt lat="45.66291" lon="2.97516">
        <ele>891.76000976562</ele>
        <time>2009-06-13T16:18:47Z</time>
      </trkpt>
      <trkpt lat="45.66286" lon="2.97495">
        <ele>891.279296875</ele>
        <time>2009-06-13T16:18:50Z</time>
      </trkpt>
      <trkpt lat="45.66273" lon="2.97451">
        <ele>888.87622070312</ele>
        <time>2009-06-13T16:18:56Z</time>
      </trkpt>
      <trkpt lat="45.66265" lon="2.97427">
        <ele>888.3955078125</ele>
        <time>2009-06-13T16:19:00Z</time>
      </trkpt>
      <trkpt lat="45.66259" lon="2.97421">
        <ele>887.43408203125</ele>
        <time>2009-06-13T16:19:04Z</time>
      </trkpt>
      <trkpt lat="45.66252" lon="2.97414">
        <ele>885.51147460938</ele>
        <time>2009-06-13T16:19:08Z</time>
      </trkpt>
      <trkpt lat="45.6625" lon="2.97411">
        <ele>884.55029296875</ele>
        <time>2009-06-13T16:19:09Z</time>
      </trkpt>
      <trkpt lat="45.6624" lon="2.97392">
        <ele>882.62768554688</ele>
        <time>2009-06-13T16:19:15Z</time>
      </trkpt>
      <trkpt lat="45.66237" lon="2.97385">
        <ele>882.62768554688</ele>
        <time>2009-06-13T16:19:20Z</time>
      </trkpt>
      <trkpt lat="45.66235" lon="2.97383">
        <ele>882.62768554688</ele>
        <time>2009-06-13T16:19:43Z</time>
      </trkpt>
      <trkpt lat="45.6623" lon="2.97382">
        <ele>883.10815429688</ele>
        <time>2009-06-13T16:19:56Z</time>
      </trkpt>
      <trkpt lat="45.66229" lon="2.97379">
        <ele>882.62768554688</ele>
        <time>2009-06-13T16:20:08Z</time>
      </trkpt>
      <trkpt lat="45.6622" lon="2.97363">
        <ele>880.705078125</ele>
        <time>2009-06-13T16:20:13Z</time>
      </trkpt>
      <trkpt lat="45.66213" lon="2.97356">
        <ele>879.26293945312</ele>
        <time>2009-06-13T16:20:15Z</time>
      </trkpt>
      <trkpt lat="45.66206" lon="2.97348">
        <ele>877.82104492188</ele>
        <time>2009-06-13T16:20:18Z</time>
      </trkpt>
      <trkpt lat="45.662" lon="2.97339">
        <ele>875.89819335938</ele>
        <time>2009-06-13T16:20:21Z</time>
      </trkpt>
      <trkpt lat="45.66196" lon="2.97336">
        <ele>874.93701171875</ele>
        <time>2009-06-13T16:20:26Z</time>
      </trkpt>
      <trkpt lat="45.66198" lon="2.97336">
        <ele>874.93701171875</ele>
        <time>2009-06-13T16:20:34Z</time>
      </trkpt>
      <trkpt lat="45.66196" lon="2.97338">
        <ele>874.93701171875</ele>
        <time>2009-06-13T16:20:39Z</time>
      </trkpt>
      <trkpt lat="45.66198" lon="2.97338">
        <ele>875.41748046875</ele>
        <time>2009-06-13T16:20:45Z</time>
      </trkpt>
      <trkpt lat="45.66197" lon="2.97352">
        <ele>874.45629882812</ele>
        <time>2009-06-13T16:20:50Z</time>
      </trkpt>
      <trkpt lat="45.66183" lon="2.97373">
        <ele>873.01440429688</ele>
        <time>2009-06-13T16:20:55Z</time>
      </trkpt>
      <trkpt lat="45.66165" lon="2.97373">
        <ele>871.091796875</ele>
        <time>2009-06-13T16:20:59Z</time>
      </trkpt>
      <trkpt lat="45.66156" lon="2.97365">
        <ele>870.13037109375</ele>
        <time>2009-06-13T16:21:01Z</time>
      </trkpt>
      <trkpt lat="45.66148" lon="2.97355">
        <ele>869.16918945312</ele>
        <time>2009-06-13T16:21:03Z</time>
      </trkpt>
      <trkpt lat="45.66122" lon="2.97318">
        <ele>866.28515625</ele>
        <time>2009-06-13T16:21:10Z</time>
      </trkpt>
      <trkpt lat="45.66111" lon="2.973">
        <ele>865.8046875</ele>
        <time>2009-06-13T16:21:13Z</time>
      </trkpt>
      <trkpt lat="45.66087" lon="2.97276">
        <ele>865.32397460938</ele>
        <time>2009-06-13T16:21:18Z</time>
      </trkpt>
      <trkpt lat="45.66051" lon="2.97256">
        <ele>862.92065429688</ele>
        <time>2009-06-13T16:21:24Z</time>
      </trkpt>
      <trkpt lat="45.66026" lon="2.97257">
        <ele>861.95947265625</ele>
        <time>2009-06-13T16:21:28Z</time>
      </trkpt>
      <trkpt lat="45.66012" lon="2.97271">
        <ele>861.95947265625</ele>
        <time>2009-06-13T16:21:31Z</time>
      </trkpt>
      <trkpt lat="45.66005" lon="2.97294">
        <ele>861.95947265625</ele>
        <time>2009-06-13T16:21:34Z</time>
      </trkpt>
      <trkpt lat="45.65995" lon="2.97341">
        <ele>860.998046875</ele>
        <time>2009-06-13T16:21:40Z</time>
      </trkpt>
      <trkpt lat="45.65992" lon="2.97356">
        <ele>860.998046875</ele>
        <time>2009-06-13T16:21:42Z</time>
      </trkpt>
      <trkpt lat="45.65981" lon="2.9738">
        <ele>860.03662109375</ele>
        <time>2009-06-13T16:21:46Z</time>
      </trkpt>
      <trkpt lat="45.65978" lon="2.97382">
        <ele>861.47875976562</ele>
        <time>2009-06-13T16:21:48Z</time>
      </trkpt>
      <trkpt lat="45.65977" lon="2.97385">
        <ele>860.998046875</ele>
        <time>2009-06-13T16:21:57Z</time>
      </trkpt>
      <trkpt lat="45.6598" lon="2.97384">
        <ele>861.47875976562</ele>
        <time>2009-06-13T16:22:14Z</time>
      </trkpt>
      <trkpt lat="45.65983" lon="2.9738">
        <ele>860.998046875</ele>
        <time>2009-06-13T16:22:38Z</time>
      </trkpt>
      <trkpt lat="45.65984" lon="2.9738">
        <ele>860.51733398438</ele>
        <time>2009-06-13T16:22:59Z</time>
      </trkpt>
      <trkpt lat="45.65984" lon="2.97381">
        <ele>860.03662109375</ele>
        <time>2009-06-13T16:23:15Z</time>
      </trkpt>
      <trkpt lat="45.65987" lon="2.97393">
        <ele>859.55590820312</ele>
        <time>2009-06-13T16:23:21Z</time>
      </trkpt>
      <trkpt lat="45.65986" lon="2.97396">
        <ele>859.55590820312</ele>
        <time>2009-06-13T16:23:22Z</time>
      </trkpt>
      <trkpt lat="45.65981" lon="2.97424">
        <ele>857.63330078125</ele>
        <time>2009-06-13T16:23:28Z</time>
      </trkpt>
      <trkpt lat="45.65981" lon="2.9743">
        <ele>858.11401367188</ele>
        <time>2009-06-13T16:23:29Z</time>
      </trkpt>
      <trkpt lat="45.65975" lon="2.97471">
        <ele>860.03662109375</ele>
        <time>2009-06-13T16:23:36Z</time>
      </trkpt>
      <trkpt lat="45.65974" lon="2.97477">
        <ele>860.03662109375</ele>
        <time>2009-06-13T16:23:37Z</time>
      </trkpt>
      <trkpt lat="45.65965" lon="2.97507">
        <ele>862.92065429688</ele>
        <time>2009-06-13T16:23:42Z</time>
      </trkpt>
      <trkpt lat="45.65962" lon="2.97512">
        <ele>862.92065429688</ele>
        <time>2009-06-13T16:23:43Z</time>
      </trkpt>
      <trkpt lat="45.65954" lon="2.97537">
        <ele>864.36254882812</ele>
        <time>2009-06-13T16:23:47Z</time>
      </trkpt>
      <trkpt lat="45.65953" lon="2.97571">
        <ele>865.32397460938</ele>
        <time>2009-06-13T16:23:52Z</time>
      </trkpt>
      <trkpt lat="45.65956" lon="2.97636">
        <ele>868.20776367188</ele>
        <time>2009-06-13T16:24:01Z</time>
      </trkpt>
      <trkpt lat="45.65956" lon="2.97643">
        <ele>868.20776367188</ele>
        <time>2009-06-13T16:24:02Z</time>
      </trkpt>
      <trkpt lat="45.65955" lon="2.97687">
        <ele>868.6884765625</ele>
        <time>2009-06-13T16:24:09Z</time>
      </trkpt>
      <trkpt lat="45.6596" lon="2.97729">
        <ele>869.16918945312</ele>
        <time>2009-06-13T16:24:16Z</time>
      </trkpt>
      <trkpt lat="45.65967" lon="2.97769">
        <ele>868.6884765625</ele>
        <time>2009-06-13T16:24:23Z</time>
      </trkpt>
      <trkpt lat="45.65973" lon="2.97802">
        <ele>869.16918945312</ele>
        <time>2009-06-13T16:24:28Z</time>
      </trkpt>
      <trkpt lat="45.65979" lon="2.97845">
        <ele>870.13037109375</ele>
        <time>2009-06-13T16:24:34Z</time>
      </trkpt>
      <trkpt lat="45.65979" lon="2.97867">
        <ele>870.61108398438</ele>
        <time>2009-06-13T16:24:37Z</time>
      </trkpt>
      <trkpt lat="45.65981" lon="2.97896">
        <ele>872.05297851562</ele>
        <time>2009-06-13T16:24:42Z</time>
      </trkpt>
      <trkpt lat="45.65983" lon="2.97908">
        <ele>872.53369140625</ele>
        <time>2009-06-13T16:24:46Z</time>
      </trkpt>
      <trkpt lat="45.65988" lon="2.97928">
        <ele>873.01440429688</ele>
        <time>2009-06-13T16:24:55Z</time>
      </trkpt>
      <trkpt lat="45.65991" lon="2.9794">
        <ele>873.4951171875</ele>
        <time>2009-06-13T16:25:00Z</time>
      </trkpt>
      <trkpt lat="45.65996" lon="2.97954">
        <ele>873.9755859375</ele>
        <time>2009-06-13T16:25:06Z</time>
      </trkpt>
      <trkpt lat="45.66006" lon="2.97978">
        <ele>874.93701171875</ele>
        <time>2009-06-13T16:25:15Z</time>
      </trkpt>
      <trkpt lat="45.66011" lon="2.97995">
        <ele>874.45629882812</ele>
        <time>2009-06-13T16:25:21Z</time>
      </trkpt>
      <trkpt lat="45.66013" lon="2.97998">
        <ele>874.93701171875</ele>
        <time>2009-06-13T16:25:22Z</time>
      </trkpt>
      <trkpt lat="45.66018" lon="2.98009">
        <ele>875.89819335938</ele>
        <time>2009-06-13T16:25:27Z</time>
      </trkpt>
      <trkpt lat="45.66019" lon="2.98021">
        <ele>876.37915039062</ele>
        <time>2009-06-13T16:25:32Z</time>
      </trkpt>
      <trkpt lat="45.66021" lon="2.98028">
        <ele>876.37915039062</ele>
        <time>2009-06-13T16:25:37Z</time>
      </trkpt>
      <trkpt lat="45.66018" lon="2.9802">
        <ele>875.89819335938</ele>
        <time>2009-06-13T16:25:42Z</time>
      </trkpt>
      <trkpt lat="45.66015" lon="2.98">
        <ele>873.9755859375</ele>
        <time>2009-06-13T16:25:47Z</time>
      </trkpt>
      <trkpt lat="45.66003" lon="2.97967">
        <ele>873.01440429688</ele>
        <time>2009-06-13T16:25:53Z</time>
      </trkpt>
      <trkpt lat="45.65993" lon="2.97941">
        <ele>871.572265625</ele>
        <time>2009-06-13T16:25:57Z</time>
      </trkpt>
      <trkpt lat="45.65987" lon="2.97913">
        <ele>872.05297851562</ele>
        <time>2009-06-13T16:26:02Z</time>
      </trkpt>
      <trkpt lat="45.65985" lon="2.9791">
        <ele>872.05297851562</ele>
        <time>2009-06-13T16:26:04Z</time>
      </trkpt>
      <trkpt lat="45.65986" lon="2.9792">
        <ele>872.05297851562</ele>
        <time>2009-06-13T16:26:08Z</time>
      </trkpt>
      <trkpt lat="45.6599" lon="2.97929">
        <ele>872.05297851562</ele>
        <time>2009-06-13T16:26:10Z</time>
      </trkpt>
      <trkpt lat="45.65998" lon="2.97955">
        <ele>873.01440429688</ele>
        <time>2009-06-13T16:26:16Z</time>
      </trkpt>
      <trkpt lat="45.66011" lon="2.97991">
        <ele>873.9755859375</ele>
        <time>2009-06-13T16:26:23Z</time>
      </trkpt>
      <trkpt lat="45.66022" lon="2.98035">
        <ele>875.41748046875</ele>
        <time>2009-06-13T16:26:31Z</time>
      </trkpt>
      <trkpt lat="45.66019" lon="2.98066">
        <ele>877.82104492188</ele>
        <time>2009-06-13T16:26:37Z</time>
      </trkpt>
      <trkpt lat="45.66014" lon="2.98108">
        <ele>880.22436523438</ele>
        <time>2009-06-13T16:26:46Z</time>
      </trkpt>
      <trkpt lat="45.66011" lon="2.9812">
        <ele>881.18579101562</ele>
        <time>2009-06-13T16:26:49Z</time>
      </trkpt>
      <trkpt lat="45.66005" lon="2.98163">
        <ele>882.14697265625</ele>
        <time>2009-06-13T16:27:00Z</time>
      </trkpt>
      <trkpt lat="45.66002" lon="2.98182">
        <ele>883.5888671875</ele>
        <time>2009-06-13T16:27:05Z</time>
      </trkpt>
      <trkpt lat="45.65996" lon="2.98225">
        <ele>885.51147460938</ele>
        <time>2009-06-13T16:27:16Z</time>
      </trkpt>
      <trkpt lat="45.65989" lon="2.98266">
        <ele>886.95336914062</ele>
        <time>2009-06-13T16:27:27Z</time>
      </trkpt>
      <trkpt lat="45.65986" lon="2.98287">
        <ele>885.51147460938</ele>
        <time>2009-06-13T16:27:33Z</time>
      </trkpt>
      <trkpt lat="45.6598" lon="2.98308">
        <ele>885.51147460938</ele>
        <time>2009-06-13T16:27:38Z</time>
      </trkpt>
      <trkpt lat="45.65969" lon="2.98328">
        <ele>883.5888671875</ele>
        <time>2009-06-13T16:27:44Z</time>
      </trkpt>
      <trkpt lat="45.65961" lon="2.98348">
        <ele>882.14697265625</ele>
        <time>2009-06-13T16:27:48Z</time>
      </trkpt>
      <trkpt lat="45.65945" lon="2.98392">
        <ele>881.18579101562</ele>
        <time>2009-06-13T16:27:55Z</time>
      </trkpt>
      <trkpt lat="45.65943" lon="2.98399">
        <ele>880.705078125</ele>
        <time>2009-06-13T16:27:56Z</time>
      </trkpt>
      <trkpt lat="45.65936" lon="2.9842">
        <ele>879.74365234375</ele>
        <time>2009-06-13T16:27:59Z</time>
      </trkpt>
      <trkpt lat="45.65933" lon="2.98427">
        <ele>878.78247070312</ele>
        <time>2009-06-13T16:28:00Z</time>
      </trkpt>
      <trkpt lat="45.65903" lon="2.98458">
        <ele>876.37915039062</ele>
        <time>2009-06-13T16:28:07Z</time>
      </trkpt>
      <trkpt lat="45.65899" lon="2.98461">
        <ele>875.89819335938</ele>
        <time>2009-06-13T16:28:08Z</time>
      </trkpt>
      <trkpt lat="45.65883" lon="2.98488">
        <ele>873.9755859375</ele>
        <time>2009-06-13T16:28:13Z</time>
      </trkpt>
      <trkpt lat="45.6588" lon="2.98497">
        <ele>873.9755859375</ele>
        <time>2009-06-13T16:28:14Z</time>
      </trkpt>
      <trkpt lat="45.65878" lon="2.98513">
        <ele>873.01440429688</ele>
        <time>2009-06-13T16:28:16Z</time>
      </trkpt>
      <trkpt lat="45.65877" lon="2.98543">
        <ele>872.05297851562</ele>
        <time>2009-06-13T16:28:20Z</time>
      </trkpt>
      <trkpt lat="45.65874" lon="2.9858">
        <ele>870.61108398438</ele>
        <time>2009-06-13T16:28:25Z</time>
      </trkpt>
      <trkpt lat="45.65872" lon="2.98608">
        <ele>870.13037109375</ele>
        <time>2009-06-13T16:28:29Z</time>
      </trkpt>
      <trkpt lat="45.65871" lon="2.98636">
        <ele>868.20776367188</ele>
        <time>2009-06-13T16:28:33Z</time>
      </trkpt>
      <trkpt lat="45.65876" lon="2.98662">
        <ele>863.8818359375</ele>
        <time>2009-06-13T16:28:37Z</time>
      </trkpt>
      <trkpt lat="45.65887" lon="2.98685">
        <ele>860.51733398438</ele>
        <time>2009-06-13T16:28:41Z</time>
      </trkpt>
      <trkpt lat="45.65891" lon="2.98699">
        <ele>860.03662109375</ele>
        <time>2009-06-13T16:28:43Z</time>
      </trkpt>
      <trkpt lat="45.65892" lon="2.98712">
        <ele>859.55590820312</ele>
        <time>2009-06-13T16:28:45Z</time>
      </trkpt>
      <trkpt lat="45.65895" lon="2.98734">
        <ele>860.03662109375</ele>
        <time>2009-06-13T16:28:49Z</time>
      </trkpt>
      <trkpt lat="45.65899" lon="2.98752">
        <ele>859.55590820312</ele>
        <time>2009-06-13T16:28:55Z</time>
      </trkpt>
      <trkpt lat="45.65905" lon="2.98764">
        <ele>860.998046875</ele>
        <time>2009-06-13T16:29:00Z</time>
      </trkpt>
      <trkpt lat="45.65906" lon="2.98765">
        <ele>860.998046875</ele>
        <time>2009-06-13T16:29:01Z</time>
      </trkpt>
      <trkpt lat="45.65919" lon="2.98768">
        <ele>859.55590820312</ele>
        <time>2009-06-13T16:29:06Z</time>
      </trkpt>
      <trkpt lat="45.6594" lon="2.98775">
        <ele>857.15258789062</ele>
        <time>2009-06-13T16:29:11Z</time>
      </trkpt>
      <trkpt lat="45.65947" lon="2.98778">
        <ele>857.15258789062</ele>
        <time>2009-06-13T16:29:12Z</time>
      </trkpt>
      <trkpt lat="45.65952" lon="2.9878">
        <ele>857.15258789062</ele>
        <time>2009-06-13T16:29:13Z</time>
      </trkpt>
      <trkpt lat="45.65967" lon="2.98788">
        <ele>855.22998046875</ele>
        <time>2009-06-13T16:29:16Z</time>
      </trkpt>
      <trkpt lat="45.65977" lon="2.98796">
        <ele>854.26879882812</ele>
        <time>2009-06-13T16:29:18Z</time>
      </trkpt>
      <trkpt lat="45.65989" lon="2.98814">
        <ele>853.30737304688</ele>
        <time>2009-06-13T16:29:21Z</time>
      </trkpt>
      <trkpt lat="45.65997" lon="2.98836">
        <ele>853.7880859375</ele>
        <time>2009-06-13T16:29:24Z</time>
      </trkpt>
      <trkpt lat="45.66007" lon="2.98878">
        <ele>854.26879882812</ele>
        <time>2009-06-13T16:29:30Z</time>
      </trkpt>
      <trkpt lat="45.66009" lon="2.98902">
        <ele>855.22998046875</ele>
        <time>2009-06-13T16:29:34Z</time>
      </trkpt>
      <trkpt lat="45.66011" lon="2.98935">
        <ele>856.19116210938</ele>
        <time>2009-06-13T16:29:40Z</time>
      </trkpt>
      <trkpt lat="45.6601" lon="2.98959">
        <ele>856.19116210938</ele>
        <time>2009-06-13T16:29:45Z</time>
      </trkpt>
      <trkpt lat="45.66007" lon="2.98979">
        <ele>858.11401367188</ele>
        <time>2009-06-13T16:29:49Z</time>
      </trkpt>
      <trkpt lat="45.66006" lon="2.98997">
        <ele>857.63330078125</ele>
        <time>2009-06-13T16:29:53Z</time>
      </trkpt>
      <trkpt lat="45.66006" lon="2.99009">
        <ele>856.671875</ele>
        <time>2009-06-13T16:29:55Z</time>
      </trkpt>
      <trkpt lat="45.66011" lon="2.99038">
        <ele>852.34594726562</ele>
        <time>2009-06-13T16:29:59Z</time>
      </trkpt>
      <trkpt lat="45.66012" lon="2.99047">
        <ele>852.82666015625</ele>
        <time>2009-06-13T16:30:00Z</time>
      </trkpt>
      <trkpt lat="45.6602" lon="2.99081">
        <ele>851.384765625</ele>
        <time>2009-06-13T16:30:04Z</time>
      </trkpt>
      <trkpt lat="45.66034" lon="2.99111">
        <ele>851.384765625</ele>
        <time>2009-06-13T16:30:08Z</time>
      </trkpt>
      <trkpt lat="45.66038" lon="2.99127">
        <ele>850.90405273438</ele>
        <time>2009-06-13T16:30:10Z</time>
      </trkpt>
      <trkpt lat="45.66039" lon="2.9916">
        <ele>848.50073242188</ele>
        <time>2009-06-13T16:30:14Z</time>
      </trkpt>
      <trkpt lat="45.6603" lon="2.99182">
        <ele>848.50073242188</ele>
        <time>2009-06-13T16:30:17Z</time>
      </trkpt>
      <trkpt lat="45.6603" lon="2.9919">
        <ele>848.9814453125</ele>
        <time>2009-06-13T16:30:20Z</time>
      </trkpt>
      <trkpt lat="45.66031" lon="2.99204">
        <ele>848.02026367188</ele>
        <time>2009-06-13T16:30:25Z</time>
      </trkpt>
      <trkpt lat="45.66039" lon="2.9922">
        <ele>847.53955078125</ele>
        <time>2009-06-13T16:30:30Z</time>
      </trkpt>
      <trkpt lat="45.66057" lon="2.99238">
        <ele>847.53955078125</ele>
        <time>2009-06-13T16:30:36Z</time>
      </trkpt>
      <trkpt lat="45.66071" lon="2.99246">
        <ele>848.02026367188</ele>
        <time>2009-06-13T16:30:40Z</time>
      </trkpt>
      <trkpt lat="45.66085" lon="2.99248">
        <ele>849.46215820312</ele>
        <time>2009-06-13T16:30:44Z</time>
      </trkpt>
      <trkpt lat="45.66091" lon="2.99247">
        <ele>849.94287109375</ele>
        <time>2009-06-13T16:30:46Z</time>
      </trkpt>
      <trkpt lat="45.66097" lon="2.99248">
        <ele>851.384765625</ele>
        <time>2009-06-13T16:30:49Z</time>
      </trkpt>
      <trkpt lat="45.66108" lon="2.99249">
        <ele>853.30737304688</ele>
        <time>2009-06-13T16:30:55Z</time>
      </trkpt>
      <trkpt lat="45.6611" lon="2.99249">
        <ele>853.7880859375</ele>
        <time>2009-06-13T16:30:56Z</time>
      </trkpt>
      <trkpt lat="45.66125" lon="2.9925">
        <ele>855.71069335938</ele>
        <time>2009-06-13T16:31:03Z</time>
      </trkpt>
      <trkpt lat="45.6613" lon="2.9925">
        <ele>857.15258789062</ele>
        <time>2009-06-13T16:31:06Z</time>
      </trkpt>
      <trkpt lat="45.66136" lon="2.99251">
        <ele>858.11401367188</ele>
        <time>2009-06-13T16:31:09Z</time>
      </trkpt>
      <trkpt lat="45.66143" lon="2.9925">
        <ele>859.55590820312</ele>
        <time>2009-06-13T16:31:14Z</time>
      </trkpt>
      <trkpt lat="45.66151" lon="2.99243">
        <ele>860.03662109375</ele>
        <time>2009-06-13T16:31:19Z</time>
      </trkpt>
      <trkpt lat="45.6616" lon="2.99237">
        <ele>860.998046875</ele>
        <time>2009-06-13T16:31:24Z</time>
      </trkpt>
      <trkpt lat="45.66166" lon="2.99232">
        <ele>862.43994140625</ele>
        <time>2009-06-13T16:31:30Z</time>
      </trkpt>
      <trkpt lat="45.66168" lon="2.99232">
        <ele>861.95947265625</ele>
        <time>2009-06-13T16:31:39Z</time>
      </trkpt>
      <trkpt lat="45.66171" lon="2.99234">
        <ele>861.95947265625</ele>
        <time>2009-06-13T16:31:54Z</time>
      </trkpt>
      <trkpt lat="45.66171" lon="2.99233">
        <ele>861.47875976562</ele>
        <time>2009-06-13T16:32:05Z</time>
      </trkpt>
      <trkpt lat="45.6617" lon="2.99231">
        <ele>861.47875976562</ele>
        <time>2009-06-13T16:32:16Z</time>
      </trkpt>
      <trkpt lat="45.66169" lon="2.99227">
        <ele>861.47875976562</ele>
        <time>2009-06-13T16:32:27Z</time>
      </trkpt>
      <trkpt lat="45.66169" lon="2.99229">
        <ele>861.47875976562</ele>
        <time>2009-06-13T16:32:38Z</time>
      </trkpt>
      <trkpt lat="45.66175" lon="2.99225">
        <ele>862.92065429688</ele>
        <time>2009-06-13T16:32:45Z</time>
      </trkpt>
      <trkpt lat="45.66179" lon="2.99221">
        <ele>862.43994140625</ele>
        <time>2009-06-13T16:32:48Z</time>
      </trkpt>
      <trkpt lat="45.6619" lon="2.99211">
        <ele>863.8818359375</ele>
        <time>2009-06-13T16:32:57Z</time>
      </trkpt>
      <trkpt lat="45.66192" lon="2.99209">
        <ele>864.36254882812</ele>
        <time>2009-06-13T16:32:58Z</time>
      </trkpt>
      <trkpt lat="45.66203" lon="2.99196">
        <ele>863.4013671875</ele>
        <time>2009-06-13T16:33:04Z</time>
      </trkpt>
      <trkpt lat="45.66206" lon="2.99189">
        <ele>862.43994140625</ele>
        <time>2009-06-13T16:33:06Z</time>
      </trkpt>
      <trkpt lat="45.66214" lon="2.99181">
        <ele>864.84326171875</ele>
        <time>2009-06-13T16:33:10Z</time>
      </trkpt>
      <trkpt lat="45.66216" lon="2.99179">
        <ele>864.84326171875</ele>
        <time>2009-06-13T16:33:11Z</time>
      </trkpt>
      <trkpt lat="45.66228" lon="2.99168">
        <ele>866.28515625</ele>
        <time>2009-06-13T16:33:19Z</time>
      </trkpt>
      <trkpt lat="45.66239" lon="2.99158">
        <ele>867.72705078125</ele>
        <time>2009-06-13T16:33:26Z</time>
      </trkpt>
      <trkpt lat="45.6625" lon="2.99151">
        <ele>869.16918945312</ele>
        <time>2009-06-13T16:33:33Z</time>
      </trkpt>
      <trkpt lat="45.66258" lon="2.99147">
        <ele>869.64990234375</ele>
        <time>2009-06-13T16:33:38Z</time>
      </trkpt>
      <trkpt lat="45.66269" lon="2.99146">
        <ele>869.64990234375</ele>
        <time>2009-06-13T16:33:44Z</time>
      </trkpt>
      <trkpt lat="45.66273" lon="2.9915">
        <ele>870.61108398438</ele>
        <time>2009-06-13T16:33:49Z</time>
      </trkpt>
      <trkpt lat="45.66275" lon="2.99149">
        <ele>870.61108398438</ele>
        <time>2009-06-13T16:33:59Z</time>
      </trkpt>
      <trkpt lat="45.66275" lon="2.99149">
        <ele>870.61108398438</ele>
        <time>2009-06-13T16:34:11Z</time>
      </trkpt>
      <trkpt lat="45.66276" lon="2.99149">
        <ele>871.091796875</ele>
        <time>2009-06-13T16:34:35Z</time>
      </trkpt>
      <trkpt lat="45.66278" lon="2.99148">
        <ele>870.13037109375</ele>
        <time>2009-06-13T16:36:06Z</time>
      </trkpt>
      <trkpt lat="45.66281" lon="2.99148">
        <ele>870.13037109375</ele>
        <time>2009-06-13T16:36:13Z</time>
      </trkpt>
      <trkpt lat="45.66285" lon="2.99149">
        <ele>870.13037109375</ele>
        <time>2009-06-13T16:36:22Z</time>
      </trkpt>
      <trkpt lat="45.66294" lon="2.99152">
        <ele>869.64990234375</ele>
        <time>2009-06-13T16:36:27Z</time>
      </trkpt>
      <trkpt lat="45.66309" lon="2.99159">
        <ele>870.61108398438</ele>
        <time>2009-06-13T16:36:33Z</time>
      </trkpt>
      <trkpt lat="45.66328" lon="2.99167">
        <ele>871.091796875</ele>
        <time>2009-06-13T16:36:41Z</time>
      </trkpt>
      <trkpt lat="45.66333" lon="2.99174">
        <ele>872.53369140625</ele>
        <time>2009-06-13T16:36:45Z</time>
      </trkpt>
      <trkpt lat="45.66341" lon="2.99178">
        <ele>873.4951171875</ele>
        <time>2009-06-13T16:36:51Z</time>
      </trkpt>
      <trkpt lat="45.66353" lon="2.99187">
        <ele>873.9755859375</ele>
        <time>2009-06-13T16:36:57Z</time>
      </trkpt>
      <trkpt lat="45.66369" lon="2.99199">
        <ele>873.9755859375</ele>
        <time>2009-06-13T16:37:05Z</time>
      </trkpt>
      <trkpt lat="45.66386" lon="2.99211">
        <ele>874.93701171875</ele>
        <time>2009-06-13T16:37:12Z</time>
      </trkpt>
      <trkpt lat="45.66402" lon="2.99226">
        <ele>875.41748046875</ele>
        <time>2009-06-13T16:37:19Z</time>
      </trkpt>
      <trkpt lat="45.66416" lon="2.99241">
        <ele>877.34057617188</ele>
        <time>2009-06-13T16:37:25Z</time>
      </trkpt>
      <trkpt lat="45.66429" lon="2.99258">
        <ele>878.3017578125</ele>
        <time>2009-06-13T16:37:32Z</time>
      </trkpt>
      <trkpt lat="45.66439" lon="2.99268">
        <ele>878.78247070312</ele>
        <time>2009-06-13T16:37:37Z</time>
      </trkpt>
      <trkpt lat="45.66442" lon="2.99275">
        <ele>878.3017578125</ele>
        <time>2009-06-13T16:37:42Z</time>
      </trkpt>
      <trkpt lat="45.66445" lon="2.99278">
        <ele>878.3017578125</ele>
        <time>2009-06-13T16:37:52Z</time>
      </trkpt>
      <trkpt lat="45.66453" lon="2.99291">
        <ele>876.37915039062</ele>
        <time>2009-06-13T16:37:57Z</time>
      </trkpt>
      <trkpt lat="45.66456" lon="2.993">
        <ele>875.89819335938</ele>
        <time>2009-06-13T16:37:59Z</time>
      </trkpt>
      <trkpt lat="45.66459" lon="2.99313">
        <ele>875.41748046875</ele>
        <time>2009-06-13T16:38:01Z</time>
      </trkpt>
      <trkpt lat="45.66463" lon="2.99332">
        <ele>873.9755859375</ele>
        <time>2009-06-13T16:38:04Z</time>
      </trkpt>
      <trkpt lat="45.66477" lon="2.99365">
        <ele>870.13037109375</ele>
        <time>2009-06-13T16:38:10Z</time>
      </trkpt>
      <trkpt lat="45.66479" lon="2.99371">
        <ele>870.13037109375</ele>
        <time>2009-06-13T16:38:11Z</time>
      </trkpt>
      <trkpt lat="45.6649" lon="2.99387">
        <ele>867.24658203125</ele>
        <time>2009-06-13T16:38:15Z</time>
      </trkpt>
      <trkpt lat="45.66494" lon="2.99392">
        <ele>865.32397460938</ele>
        <time>2009-06-13T16:38:16Z</time>
      </trkpt>
      <trkpt lat="45.66501" lon="2.99403">
        <ele>864.84326171875</ele>
        <time>2009-06-13T16:38:18Z</time>
      </trkpt>
      <trkpt lat="45.6651" lon="2.99412">
        <ele>863.4013671875</ele>
        <time>2009-06-13T16:38:20Z</time>
      </trkpt>
      <trkpt lat="45.66514" lon="2.99416">
        <ele>862.43994140625</ele>
        <time>2009-06-13T16:38:21Z</time>
      </trkpt>
      <trkpt lat="45.66532" lon="2.99436">
        <ele>860.51733398438</ele>
        <time>2009-06-13T16:38:26Z</time>
      </trkpt>
      <trkpt lat="45.66539" lon="2.99441">
        <ele>859.0751953125</ele>
        <time>2009-06-13T16:38:28Z</time>
      </trkpt>
      <trkpt lat="45.66557" lon="2.99456">
        <ele>856.671875</ele>
        <time>2009-06-13T16:38:32Z</time>
      </trkpt>
      <trkpt lat="45.6658" lon="2.99471">
        <ele>853.7880859375</ele>
        <time>2009-06-13T16:38:37Z</time>
      </trkpt>
      <trkpt lat="45.66584" lon="2.99474">
        <ele>852.82666015625</ele>
        <time>2009-06-13T16:38:38Z</time>
      </trkpt>
      <trkpt lat="45.66598" lon="2.99493">
        <ele>849.94287109375</ele>
        <time>2009-06-13T16:38:42Z</time>
      </trkpt>
      <trkpt lat="45.66609" lon="2.9953">
        <ele>848.02026367188</ele>
        <time>2009-06-13T16:38:47Z</time>
      </trkpt>
      <trkpt lat="45.6661" lon="2.99538">
        <ele>848.50073242188</ele>
        <time>2009-06-13T16:38:48Z</time>
      </trkpt>
      <trkpt lat="45.66613" lon="2.99553">
        <ele>848.02026367188</ele>
        <time>2009-06-13T16:38:50Z</time>
      </trkpt>
      <trkpt lat="45.66615" lon="2.99574">
        <ele>848.50073242188</ele>
        <time>2009-06-13T16:38:53Z</time>
      </trkpt>
      <trkpt lat="45.66614" lon="2.99587">
        <ele>847.53955078125</ele>
        <time>2009-06-13T16:38:55Z</time>
      </trkpt>
      <trkpt lat="45.66614" lon="2.99619">
        <ele>847.53955078125</ele>
        <time>2009-06-13T16:39:00Z</time>
      </trkpt>
      <trkpt lat="45.66616" lon="2.99625">
        <ele>847.53955078125</ele>
        <time>2009-06-13T16:39:01Z</time>
      </trkpt>
      <trkpt lat="45.66624" lon="2.99647">
        <ele>846.09765625</ele>
        <time>2009-06-13T16:39:05Z</time>
      </trkpt>
      <trkpt lat="45.66628" lon="2.9966">
        <ele>846.09765625</ele>
        <time>2009-06-13T16:39:07Z</time>
      </trkpt>
      <trkpt lat="45.6664" lon="2.99691">
        <ele>846.57836914062</ele>
        <time>2009-06-13T16:39:12Z</time>
      </trkpt>
      <trkpt lat="45.66647" lon="2.99717">
        <ele>847.53955078125</ele>
        <time>2009-06-13T16:39:18Z</time>
      </trkpt>
      <trkpt lat="45.6666" lon="2.99736">
        <ele>846.57836914062</ele>
        <time>2009-06-13T16:39:23Z</time>
      </trkpt>
      <trkpt lat="45.66681" lon="2.99757">
        <ele>846.57836914062</ele>
        <time>2009-06-13T16:39:28Z</time>
      </trkpt>
      <trkpt lat="45.6669" lon="2.99771">
        <ele>847.05883789062</ele>
        <time>2009-06-13T16:39:31Z</time>
      </trkpt>
      <trkpt lat="45.66693" lon="2.99783">
        <ele>846.57836914062</ele>
        <time>2009-06-13T16:39:33Z</time>
      </trkpt>
      <trkpt lat="45.66694" lon="2.99813">
        <ele>843.69409179688</ele>
        <time>2009-06-13T16:39:37Z</time>
      </trkpt>
      <trkpt lat="45.66703" lon="2.99879">
        <ele>842.73291015625</ele>
        <time>2009-06-13T16:39:45Z</time>
      </trkpt>
      <trkpt lat="45.667" lon="2.99918">
        <ele>840.32958984375</ele>
        <time>2009-06-13T16:39:50Z</time>
      </trkpt>
      <trkpt lat="45.66696" lon="2.99935">
        <ele>838.8876953125</ele>
        <time>2009-06-13T16:39:52Z</time>
      </trkpt>
      <trkpt lat="45.66678" lon="2.99967">
        <ele>840.32958984375</ele>
        <time>2009-06-13T16:39:57Z</time>
      </trkpt>
      <trkpt lat="45.66668" lon="2.99977">
        <ele>840.81005859375</ele>
        <time>2009-06-13T16:40:00Z</time>
      </trkpt>
      <trkpt lat="45.6667" lon="2.9999">
        <ele>840.81005859375</ele>
        <time>2009-06-13T16:40:03Z</time>
      </trkpt>
      <trkpt lat="45.66681" lon="3.00011">
        <ele>839.3681640625</ele>
        <time>2009-06-13T16:40:08Z</time>
      </trkpt>
      <trkpt lat="45.66684" lon="3.0004">
        <ele>838.8876953125</ele>
        <time>2009-06-13T16:40:13Z</time>
      </trkpt>
      <trkpt lat="45.6668" lon="3.00047">
        <ele>838.40698242188</ele>
        <time>2009-06-13T16:40:15Z</time>
      </trkpt>
      <trkpt lat="45.6666" lon="3.00084">
        <ele>836.484375</ele>
        <time>2009-06-13T16:40:22Z</time>
      </trkpt>
      <trkpt lat="45.66645" lon="3.00112">
        <ele>837.92626953125</ele>
        <time>2009-06-13T16:40:28Z</time>
      </trkpt>
      <trkpt lat="45.66641" lon="3.00118">
        <ele>837.92626953125</ele>
        <time>2009-06-13T16:40:30Z</time>
      </trkpt>
      <trkpt lat="45.66636" lon="3.00121">
        <ele>838.40698242188</ele>
        <time>2009-06-13T16:40:34Z</time>
      </trkpt>
    </trkseg>
  </trk>
</gpx>